GFSNGP_850_thetae_000.txt.gz
Theta_e
322 318 322 323 324 323 323 322 325 326 324 326 329 330 331 338 337 336 336 337 339 339 340 341 342 343 344 345 347 347 346 342 341 343 346 347 337 332 325 322 322 322 320 321
322 319 320 322 322 325 324 324 323 324 324 323 327 330 331 335 338 338 338 338 338 338 339 339 339 339 341 343 344 345 345 345 345 348 349 345 336 335 332 327 324 323 323 323
321 319 319 321 322 322 324 323 324 325 325 323 328 330 331 333 337 339 340 339 339 339 338 337 336 337 339 340 342 343 345 346 348 349 348 345 339 333 338 326 323 322 323 326
322 321 323 322 326 323 326 332 331 330 326 325 328 331 332 333 334 337 338 338 339 337 336 337 338 339 339 340 340 341 342 346 348 349 348 345 337 333 338 328 322 323 327 327
320 319 323 333 332 332 332 333 330 332 331 330 329 331 331 331 333 333 334 335 335 338 335 329 328 331 334 338 342 344 344 346 347 348 347 345 340 331 336 338 331 330 331 330
322 324 331 330 330 331 330 333 329 329 329 328 329 329 328 330 331 334 336 336 332 329 329 329 329 329 330 336 342 343 346 348 348 348 346 342 339 333 336 336 337 335 333 333
330 331 330 331 329 331 333 330 328 328 329 330 329 330 333 334 333 333 332 332 333 333 333 332 331 332 333 333 335 340 345 350 348 347 346 341 337 338 338 337 336 331 330 326
332 334 336 329 331 331 331 329 331 331 330 329 331 333 330 328 327 327 328 328 328 328 328 327 327 333 336 336 341 338 347 349 346 344 343 340 337 337 337 335 333 330 330 327
332 332 328 327 327 329 330 328 327 326 327 329 330 330 330 330 330 330 330 330 330 329 328 327 327 332 328 340 338 344 348 346 343 341 341 338 336 334 333 330 328 329 324 327
332 329 328 323 325 327 327 327 328 331 331 331 331 331 333 333 330 329 330 331 331 331 332 336 336 342 342 344 345 346 342 341 340 337 336 332 328 327 329 329 329 326 324 327
330 327 324 321 322 322 322 324 324 326 327 327 329 330 330 331 333 331 333 332 331 332 331 338 340 344 344 346 344 340 338 338 339 338 336 333 331 330 328 327 324 324 327 326
329 326 327 322 321 322 322 322 323 323 323 323 324 325 326 329 330 335 335 332 334 336 335 334 333 338 342 341 338 336 333 331 330 335 332 329 330 331 328 325 323 325 325 327
322 321 321 320 319 319 320 320 320 321 320 320 321 322 323 325 325 326 328 334 337 335 334 336 338 340 340 339 337 335 331 328 327 327 328 327 327 327 325 324 326 326 327 325
319 320 318 319 317 318 319 318 319 319 319 319 319 320 320 321 323 324 325 327 328 338 338 338 337 336 337 336 332 329 326 323 325 325 326 325 325 322 321 328 327 324 322 322
319 319 319 318 318 317 316 316 315 316 316 316 318 318 319 318 319 320 322 323 324 332 339 338 336 334 331 329 325 327 327 326 323 325 329 330 329 328 326 327 325 323 322 321
317 317 317 317 317 317 316 316 316 317 317 317 318 317 316 315 315 316 321 321 322 324 336 337 334 331 327 325 325 326 329 326 328 328 327 327 326 325 324 323 323 323 321 320
316 317 318 318 318 318 318 319 319 319 318 318 319 318 317 317 317 315 319 320 321 330 336 336 333 327 326 328 328 325 327 325 322 321 322 322 322 322 323 321 321 320 319 317
319 319 319 318 319 318 318 318 318 318 318 319 319 318 320 322 321 321 320 322 325 332 334 330 326 328 327 327 327 326 322 321 323 324 325 325 323 322 322 321 320 320 319 316
317 317 317 319 319 318 317 317 317 317 319 319 319 318 320 322 324 323 323 326 330 332 330 328 328 327 327 326 324 324 324 323 322 323 322 322 323 323 322 321 320 319 318 317
317 317 317 316 316 316 316 317 318 319 319 318 318 318 320 321 323 324 328 330 327 327 327 327 326 325 325 324 324 321 320 320 320 320 321 322 321 321 320 318 317 318 318 318
316 316 316 315 315 316 317 317 318 317 317 318 318 318 320 322 322 323 323 323 323 323 324 323 324 324 322 321 320 320 320 319 318 317 316 315 315 317 316 316 316 317 315 315
314 314 314 314 314 315 317 318 318 317 319 320 320 321 321 321 322 321 322 321 321 321 321 320 319 319 319 318 318 316 313 312 313 312 312 312 310 310 311 311 311 310 310 311
315 315 314 314 314 315 316 318 319 318 319 320 321 321 321 320 321 320 320 321 321 319 318 316 315 314 315 316 315 313 312 312 311 311 311 311 310 310 309 308 308 308 307 307
315 315 314 314 314 315 315 315 317 319 319 319 320 320 318 317 318 319 321 321 320 320 318 315 314 314 315 314 313 312 312 311 311 310 307 307 309 310 311 310 308 307 306 306
315 315 314 314 314 315 314 314 314 316 317 317 316 317 316 316 317 317 318 317 318 319 317 317 316 315 315 315 314 313 313 312 311 310 308 306 306 306 306 306 305 305 306 305
316 315 315 315 314 314 313 313 312 313 315 315 314 313 314 314 314 315 316 315 313 314 316 316 315 315 314 314 314 313 312 312 311 310 309 308 305 305 305 305 305 304 304 305
315 315 314 313 312 312 312 313 313 312 313 313 313 313 313 312 312 313 314 313 315 317 316 313 313 315 314 313 313 313 312 311 310 310 309 308 307 307 306 305 304 304 303 303

GFSNGP_850_thetae_003.txt.gz
Theta_e
331 329 326 325 324 327 329 331 332 330 333 334 340 342 340 338 342 339 340 342 341 339 338 339 341 342 343 344 346 347 348 348 349 347 346 346 348 344 330 328 328 328 324 321
327 328 327 326 325 326 328 328 330 331 333 333 335 336 338 338 341 340 338 337 337 337 338 338 339 340 341 343 344 345 346 348 349 349 349 347 348 346 341 334 330 329 326 331
331 326 325 327 327 327 329 330 330 332 333 336 333 335 337 338 340 341 338 337 337 338 338 339 339 340 340 340 341 342 343 345 347 347 347 348 347 346 338 337 333 332 329 335
334 329 330 326 327 327 327 328 329 330 332 333 335 335 334 333 336 340 341 340 338 337 337 337 337 338 338 338 339 339 341 343 345 346 347 347 346 343 340 338 335 331 331 332
332 331 331 330 332 328 326 328 335 335 336 334 331 333 335 330 332 332 333 335 337 338 337 334 330 329 330 331 332 336 340 343 344 345 346 347 346 343 337 338 334 332 329 332
335 335 334 337 335 333 335 333 334 335 336 336 333 336 339 331 332 332 333 335 336 330 327 327 328 328 329 328 330 333 338 342 346 347 347 346 346 343 341 335 334 334 335 333
339 338 334 336 334 333 336 337 333 333 334 334 338 337 334 335 336 333 336 333 329 329 329 331 332 332 331 331 332 335 338 342 349 348 346 345 344 341 337 332 333 335 334 335
340 341 338 331 335 338 336 332 333 333 334 334 334 335 336 335 331 331 331 331 331 333 332 331 329 330 330 330 333 336 341 344 347 347 345 344 343 340 336 335 335 336 335 334
337 339 331 328 331 333 333 332 333 334 334 334 335 336 336 335 332 332 331 332 333 333 332 332 330 329 329 332 337 340 340 344 344 343 342 341 341 340 336 336 336 336 334 329
336 335 329 328 329 330 332 332 334 335 332 330 334 333 336 333 331 330 331 331 333 331 331 333 334 333 335 340 341 342 344 343 339 338 338 338 339 337 334 330 329 328 327 325
336 332 327 326 327 327 328 328 328 329 331 331 330 331 332 336 337 334 332 331 331 331 330 336 337 342 344 344 344 342 336 336 335 336 336 337 336 333 329 328 329 329 327 325
334 329 329 327 325 325 323 323 324 325 325 326 327 328 327 328 329 331 335 337 335 335 333 334 336 340 343 343 341 339 339 337 335 334 334 335 333 329 327 328 326 325 325 325
326 325 322 321 320 320 320 320 320 321 321 321 322 324 324 325 326 326 326 328 333 337 334 334 336 339 341 340 338 338 334 332 333 333 334 333 332 331 329 327 324 325 326 325
319 318 319 318 318 318 318 318 319 319 319 319 319 320 321 321 322 324 325 326 327 332 340 336 336 337 338 338 337 335 331 327 327 328 325 326 326 327 327 325 325 326 325 325
319 318 318 317 316 315 316 316 316 317 317 317 317 317 315 314 315 318 320 321 322 323 327 339 337 336 336 336 333 326 321 322 323 324 325 325 326 325 325 322 327 325 322 321
319 320 324 319 317 317 318 320 319 319 320 320 320 318 317 317 316 314 314 320 320 322 328 333 339 336 334 330 325 325 325 327 328 327 327 327 326 325 326 326 325 323 322 320
318 319 318 319 319 319 320 320 320 319 320 320 318 318 319 321 320 317 317 320 321 322 327 336 338 334 331 327 325 325 328 327 325 323 322 321 322 322 322 322 322 322 322 319
320 320 320 320 320 320 319 320 319 319 319 319 319 319 319 321 323 323 322 321 324 327 332 335 336 333 328 327 328 327 325 322 321 323 324 325 324 323 323 322 322 321 320 319
320 318 317 317 318 318 318 318 318 319 318 318 317 317 319 320 322 323 325 327 329 332 332 331 329 327 327 326 326 325 323 323 324 323 322 322 323 322 322 323 322 321 320 319
316 316 315 315 315 316 317 317 317 317 317 317 317 318 320 322 323 323 326 327 327 327 327 327 326 325 325 324 324 324 324 321 319 319 319 320 322 322 322 322 322 321 319 318
314 314 314 315 315 315 317 318 317 316 317 319 320 320 320 321 320 322 322 324 323 323 324 324 323 324 323 322 320 319 319 318 318 318 318 320 321 321 320 319 318 318 318 317
314 314 314 314 315 315 316 318 318 318 319 320 321 321 320 320 321 321 321 321 321 323 322 322 322 320 319 318 317 316 314 313 314 315 315 315 314 314 314 314 313 313 312 311
315 314 314 314 315 315 315 317 319 318 319 319 320 320 318 318 319 321 322 320 321 319 319 317 316 315 314 314 315 313 313 312 312 312 311 311 312 312 312 311 310 309 309 309
315 314 314 314 314 315 314 314 315 317 319 319 317 316 315 314 318 318 319 321 320 319 318 316 315 314 313 312 312 312 312 312 311 310 309 308 308 309 311 311 310 310 309 306
316 315 315 315 314 313 314 313 313 313 315 317 314 315 314 313 314 317 317 316 318 320 320 318 316 314 315 315 314 313 313 312 311 311 310 309 308 307 308 309 308 307 307 307
315 315 315 315 312 313 313 313 312 313 313 316 315 314 314 314 314 314 313 314 315 314 314 319 316 316 316 317 316 314 314 314 312 312 311 310 308 308 306 306 306 306 306 305
313 312 310 310 311 311 312 313 312 311 311 312 312 312 312 312 313 312 313 313 313 313 315 315 315 314 314 316 315 314 314 313 313 311 311 310 309 308 306 306 306 306 305 304

GFSNGP_850_thetae_006.txt.gz
Theta_e
330 329 329 328 327 326 327 329 334 334 334 335 335 335 334 333 334 340 346 346 348 349 351 352 352 353 355 355 354 354 356 356 358 358 358 354 347 337 341 339 328 324 325 326
333 331 330 329 329 327 327 327 328 330 332 333 333 332 332 332 333 339 345 346 348 351 352 355 355 356 356 356 355 356 357 357 357 359 357 353 349 346 345 346 339 332 328 327
336 333 332 332 331 330 328 327 328 329 330 331 331 333 334 334 337 339 344 345 347 349 351 354 355 356 356 355 355 355 356 357 357 357 352 350 349 348 347 347 342 336 330 332
337 336 336 331 331 331 329 327 328 330 331 331 332 333 335 337 335 339 344 345 346 347 350 352 352 352 352 348 341 349 349 352 354 350 348 346 347 346 347 346 344 336 333 335
336 336 335 334 333 330 329 329 328 330 332 332 332 335 340 339 338 341 345 347 347 347 349 348 348 346 340 340 339 342 344 347 344 345 346 345 346 346 345 345 342 339 337 337
336 336 337 338 338 336 338 337 330 330 331 331 334 338 334 340 337 338 343 344 345 344 345 345 342 335 333 341 336 334 333 336 337 341 345 346 347 346 345 342 340 340 339 337
335 337 335 339 336 337 341 335 331 331 333 334 338 340 341 339 339 341 343 345 345 344 342 334 332 338 344 342 336 332 333 335 336 341 347 348 347 345 344 342 339 338 338 338
337 339 338 334 337 341 341 339 339 338 338 338 340 341 343 343 344 345 344 342 341 342 341 343 340 336 331 332 330 332 336 340 341 346 346 345 345 345 345 342 340 338 336 338
336 335 336 333 334 336 337 339 339 339 339 340 340 341 342 342 341 341 340 340 341 344 346 344 338 341 335 331 331 333 335 340 345 347 346 344 344 345 343 344 340 339 338 338
338 336 334 333 333 334 336 337 337 337 337 338 338 338 339 340 341 343 344 343 343 344 340 331 330 330 329 331 334 336 337 341 343 342 344 344 344 342 341 340 339 338 339 337
336 335 332 331 332 332 332 335 335 336 336 338 341 342 343 344 343 343 344 343 342 342 344 332 332 332 334 337 341 342 344 344 346 346 343 341 343 340 340 337 337 335 334 328
335 333 332 326 326 327 328 329 331 331 331 333 334 336 341 344 344 346 345 345 346 346 343 341 340 342 343 344 345 349 347 344 342 342 341 341 338 338 335 334 329 328 328 328
333 330 324 323 322 323 323 324 325 326 326 327 327 328 330 331 333 335 333 338 347 346 347 343 344 346 344 344 345 343 343 338 339 339 337 338 337 334 331 328 328 328 325 326
324 321 322 321 320 321 322 321 320 321 321 321 321 322 324 325 326 325 325 334 339 346 345 344 344 344 341 340 341 341 341 336 337 337 336 335 333 333 333 332 329 324 326 325
320 321 320 319 319 321 321 321 320 320 321 321 322 322 322 322 322 323 323 328 332 336 343 345 344 341 340 340 339 337 333 333 334 333 332 331 330 330 331 330 329 328 326 325
320 321 319 321 321 319 318 321 321 322 322 322 323 323 325 326 325 324 324 327 327 331 337 340 343 340 339 336 333 332 331 330 330 331 332 331 332 331 330 329 329 328 324 323
318 317 316 320 320 320 316 319 322 322 322 322 323 323 324 326 327 328 329 329 330 331 334 338 342 337 334 332 332 332 331 330 331 331 330 329 328 327 327 327 326 325 325 324
320 316 315 321 321 321 321 322 322 323 322 322 322 323 324 326 328 329 330 331 332 331 334 338 339 336 334 332 331 331 331 329 328 327 328 327 327 327 327 326 325 324 324 323
319 319 319 320 320 320 320 321 321 322 322 322 322 323 325 326 328 330 330 330 331 334 333 334 335 332 329 328 328 329 328 328 328 329 329 328 327 326 326 325 325 324 324 323
318 318 318 318 319 320 321 321 321 321 322 323 323 324 325 326 328 329 331 330 331 332 330 328 330 328 326 325 326 328 328 328 327 326 325 324 324 325 325 325 324 324 323 322
317 317 317 318 318 320 321 321 321 322 323 324 324 324 325 325 326 327 327 327 326 327 328 327 329 329 327 325 325 325 325 324 324 324 324 323 323 322 322 322 322 321 320 320
318 318 318 318 318 318 321 322 322 323 323 324 323 324 323 323 325 325 325 325 325 325 327 326 325 324 323 322 322 321 320 319 319 318 318 318 318 318 318 318 317 317 317 317
318 318 317 317 318 319 319 319 320 322 323 323 323 322 321 321 321 323 325 323 325 322 324 324 319 316 314 319 318 317 316 315 315 314 314 314 314 314 315 315 315 314 313 313
319 319 320 319 317 317 318 318 317 318 320 321 320 320 318 316 319 319 321 321 320 321 323 321 316 315 315 317 316 316 315 315 314 313 312 311 310 311 312 313 313 312 312 311
320 319 319 319 315 315 316 316 316 315 316 319 318 317 317 317 316 316 318 319 317 320 322 320 317 316 316 317 318 317 316 316 315 313 313 312 312 310 310 310 312 312 312 311
314 315 316 316 315 315 314 315 315 315 314 315 315 316 316 316 316 316 316 316 316 316 316 319 320 319 319 318 317 317 316 316 315 314 312 312 312 311 310 309 309 309 308 308
311 311 312 312 312 312 312 313 314 314 314 314 314 315 315 314 314 314 314 315 315 316 316 316 316 317 317 316 316 316 315 315 314 314 313 312 312 311 311 309 308 308 308 308

GFSNGP_850_thetae_009.txt.gz
Theta_e
332 332 332 331 328 327 328 330 333 333 335 337 340 338 337 335 334 334 335 344 346 348 349 350 350 350 349 347 347 350 352 354 354 356 356 355 354 354 355 353 346 332 328 322
332 331 330 330 331 329 328 328 329 330 332 334 335 336 336 334 334 334 334 336 347 349 350 353 353 354 353 351 351 352 354 355 357 359 359 358 356 357 356 354 351 344 338 325
337 334 334 333 331 331 331 330 329 329 330 331 334 337 338 335 334 334 334 334 345 348 351 353 355 356 356 355 354 355 355 358 358 360 359 360 359 358 356 353 349 346 343 329
335 337 337 334 333 332 331 331 331 330 330 330 335 333 333 333 333 333 334 334 340 347 351 355 355 355 357 359 357 358 358 358 359 359 361 361 359 357 354 351 349 347 344 330
338 339 339 337 338 339 339 335 332 333 331 330 329 330 333 331 331 333 334 335 342 348 351 355 356 356 358 359 360 360 361 360 360 361 363 360 356 353 349 349 348 345 341 336
338 338 339 335 339 338 337 337 333 332 331 330 330 333 336 332 336 339 339 336 346 349 351 356 356 358 358 358 358 358 359 359 359 359 357 357 353 349 349 348 347 344 341 340
335 338 336 339 338 337 338 338 344 341 339 336 331 334 335 337 336 340 339 346 350 350 355 354 353 354 355 354 354 353 353 352 353 355 353 353 350 350 350 348 346 343 342 341
334 335 336 338 338 339 344 341 341 342 340 340 330 331 342 343 342 342 344 347 349 350 352 352 351 351 350 350 348 350 351 355 354 353 353 353 353 349 348 346 343 343 342 342
333 336 342 339 338 338 338 340 341 341 340 339 339 343 345 345 348 348 349 349 349 350 348 347 348 350 351 352 352 354 355 356 353 349 353 351 350 347 346 343 342 342 341 342
340 341 340 338 337 338 339 340 340 341 342 342 343 345 346 346 345 344 344 346 347 348 350 352 352 353 359 356 356 356 350 343 345 351 352 347 348 345 343 342 341 343 342 339
342 340 338 336 336 337 339 339 340 341 344 343 344 345 345 346 345 345 345 345 346 349 350 351 353 354 352 353 354 351 350 352 354 351 347 345 344 342 341 343 341 341 340 339
342 338 336 333 332 334 334 334 336 338 338 343 345 345 346 345 345 345 345 346 347 348 349 351 352 351 350 349 351 350 350 349 344 343 343 343 341 340 340 339 338 337 332 331
336 333 327 325 325 326 327 329 330 331 331 332 332 332 334 336 339 342 344 345 345 346 348 350 351 350 346 353 351 348 347 346 343 344 343 343 340 340 337 335 330 328 328 327
329 328 326 324 323 323 323 322 322 323 324 325 326 326 326 327 328 332 336 342 346 347 348 348 348 348 349 347 347 347 345 343 341 340 339 339 338 336 334 333 330 329 328 326
324 326 325 324 323 321 321 322 322 322 323 324 324 325 325 325 324 325 328 331 337 344 344 345 345 346 345 346 347 346 343 339 339 338 337 336 334 333 333 333 331 330 326 326
322 321 321 320 318 320 320 319 323 323 323 323 324 326 328 328 328 326 326 327 329 334 340 342 344 343 343 342 342 339 336 336 337 335 334 332 332 331 331 331 329 330 327 324
320 321 320 319 317 321 318 316 320 322 323 324 324 325 327 329 329 331 330 330 330 331 334 338 342 342 341 338 336 334 333 332 333 333 333 331 331 331 330 329 328 328 327 326
316 317 317 317 318 315 318 323 318 324 324 324 324 325 327 329 330 331 331 331 332 333 334 339 338 338 339 337 335 333 333 333 331 331 331 330 329 328 328 327 326 326 325 325
319 321 321 321 321 322 322 322 323 323 323 323 325 326 327 328 329 330 330 330 332 332 334 335 336 338 337 337 334 332 332 330 329 329 330 329 329 328 328 327 327 325 325 324
318 319 319 320 321 322 322 322 322 323 324 325 325 326 326 327 328 329 331 332 334 333 333 334 335 335 335 330 330 330 330 329 330 329 329 329 327 326 326 326 326 326 325 324
318 318 318 319 321 323 323 323 323 324 324 325 325 325 325 326 326 328 328 330 330 331 331 331 332 331 329 327 327 329 327 328 327 327 326 325 324 324 325 325 324 324 323 322
318 318 318 318 319 320 322 323 323 324 325 325 324 324 324 325 325 326 327 327 327 326 328 328 328 327 326 325 326 325 324 324 323 323 322 322 322 322 322 322 323 322 322 321
318 317 318 318 319 319 318 319 320 321 323 322 322 321 321 322 322 323 325 324 325 325 325 325 324 322 320 322 322 321 320 319 319 318 318 317 317 317 317 318 318 318 317 317
319 319 320 318 318 318 318 317 318 318 319 320 319 319 318 319 319 320 321 321 319 321 324 323 318 316 316 320 319 319 318 318 317 317 316 314 313 313 313 314 315 315 315 315
319 319 319 318 316 316 316 317 317 316 318 320 319 319 319 318 317 317 317 320 318 319 323 321 318 317 317 317 319 319 318 318 317 317 316 315 314 314 313 312 312 314 314 314
316 316 316 316 315 315 315 315 315 316 315 316 316 316 316 316 316 317 317 317 317 317 316 321 321 319 319 317 317 318 318 318 318 317 316 314 313 314 314 313 312 311 311 312
313 312 313 313 312 311 311 312 313 313 313 314 313 314 315 315 316 315 316 316 316 316 316 317 317 318 318 318 318 317 317 317 317 316 316 315 315 315 314 313 312 311 310 310

GFSNGP_850_thetae_012.txt.gz
Theta_e
330 330 332 333 331 331 331 332 333 333 334 338 340 343 340 339 337 336 338 342 341 344 345 348 348 349 349 350 352 353 356 358 358 354 350 350 350 349 345 349 350 349 352 349
332 332 331 332 333 331 330 331 331 332 332 334 335 336 339 338 336 338 336 337 344 341 346 349 349 349 349 348 350 350 351 355 355 357 356 356 356 355 358 356 357 356 355 354
334 331 332 333 333 333 332 329 330 330 333 334 335 337 341 341 338 340 338 335 340 347 346 351 353 350 350 348 349 348 349 353 352 354 356 357 357 358 357 358 357 357 356 355
334 335 336 333 332 332 331 332 332 333 333 334 334 332 332 332 335 336 337 335 334 339 348 349 355 355 353 352 349 349 349 352 353 354 357 357 358 358 358 358 358 358 357 354
337 335 335 334 335 336 334 333 334 334 335 333 332 331 332 330 331 332 331 339 335 333 346 348 353 355 357 356 352 352 353 356 357 360 361 362 361 362 361 360 359 357 353 349
336 337 340 339 336 338 337 339 339 341 338 336 336 334 334 330 331 331 331 333 334 335 345 349 353 355 357 358 358 354 357 357 362 363 366 365 363 362 362 359 356 351 349 347
335 334 334 337 338 335 338 340 343 342 342 341 341 342 340 336 335 337 331 331 336 347 350 350 354 358 358 360 362 360 361 363 362 363 363 363 362 360 355 352 351 348 346 343
338 340 342 338 337 339 344 341 340 339 339 339 340 339 338 340 337 342 341 341 342 349 352 356 357 360 361 361 362 363 363 362 361 361 360 360 358 354 354 349 348 347 344 343
332 334 339 341 343 341 340 340 340 339 338 338 337 338 338 342 342 334 343 349 353 358 359 359 359 360 360 360 359 359 358 358 359 357 355 355 353 350 349 348 345 344 343 342
331 336 341 339 338 339 339 341 341 346 348 344 340 341 345 348 349 350 351 351 353 355 356 356 357 357 356 355 356 355 357 356 353 352 351 351 350 350 348 345 344 342 343 342
335 344 341 341 341 341 340 344 346 345 345 348 349 349 350 350 350 351 351 351 352 352 355 356 358 358 356 356 355 354 354 353 353 351 348 350 348 346 344 343 343 343 341 340
345 334 342 338 338 338 338 339 339 339 338 339 342 342 345 347 348 350 351 352 354 355 356 358 358 354 354 353 350 345 348 346 350 347 346 347 345 343 343 342 342 340 340 338
329 327 328 328 328 333 333 332 333 333 334 333 332 333 337 341 346 346 347 349 348 352 352 351 351 351 351 352 351 350 349 349 348 345 344 343 342 340 339 339 338 337 337 330
326 326 325 324 326 325 325 326 326 327 327 328 328 329 329 331 335 343 346 347 349 351 352 352 348 349 347 349 347 349 348 346 345 345 342 341 342 340 338 337 337 330 328 329
327 325 325 324 324 323 324 325 325 325 325 326 328 328 327 326 327 330 334 345 346 347 348 349 348 347 348 349 349 347 346 343 343 342 343 342 340 339 337 335 332 330 328 327
324 323 323 321 321 321 321 323 324 323 324 323 326 329 330 330 330 329 329 332 339 344 344 344 345 346 345 346 345 345 343 341 341 339 339 337 336 335 334 334 334 332 329 327
320 319 319 319 321 320 318 320 320 321 323 324 325 325 329 332 332 332 331 331 332 336 339 341 342 342 342 344 342 339 337 337 338 337 335 334 333 332 332 331 332 330 329 327
320 321 319 319 319 319 319 318 321 324 321 319 325 328 329 327 331 331 331 333 333 335 337 340 340 340 340 337 338 334 333 332 334 334 334 332 332 331 330 329 329 329 330 328
321 321 322 323 321 319 318 319 322 324 324 319 322 326 328 329 330 331 330 332 332 333 329 333 335 336 337 338 336 334 333 332 329 332 332 331 330 330 329 328 327 327 326 325
319 320 321 322 322 323 323 322 323 324 324 326 326 327 327 327 328 329 331 332 331 331 331 333 333 335 334 336 334 332 331 330 330 330 330 330 329 329 328 327 328 326 325 325
319 320 321 323 323 323 323 324 324 325 324 325 325 324 325 326 326 328 328 329 328 331 331 331 330 333 332 331 330 330 330 329 329 329 328 327 327 326 326 326 326 325 325 326
318 319 319 320 319 322 322 322 323 323 323 324 323 323 323 324 326 327 327 327 326 329 328 330 329 329 328 328 328 327 325 325 326 325 325 325 324 324 324 324 324 324 323 323
319 319 319 319 319 318 318 319 320 322 322 322 322 322 321 323 323 323 322 324 325 325 326 326 325 323 324 324 323 323 323 323 321 321 320 320 319 319 319 319 320 320 321 321
320 319 319 319 319 318 319 318 319 321 322 321 320 320 320 319 321 323 321 319 318 324 324 324 321 318 319 321 321 321 320 320 319 318 318 317 316 315 314 314 315 316 317 317
317 318 317 316 316 315 316 316 317 317 318 318 319 319 319 318 319 318 318 320 317 321 320 320 318 316 315 318 318 320 319 319 318 318 318 317 316 316 315 315 314 313 314 315
315 316 315 314 313 313 313 314 314 314 315 316 316 315 316 317 317 317 317 317 317 318 318 320 319 319 319 319 318 318 319 319 318 318 318 317 316 315 314 315 314 313 313 313
313 312 312 311 310 310 310 310 311 311 312 312 313 313 313 315 316 316 316 316 316 317 317 317 319 321 319 318 318 318 318 319 318 318 317 316 316 316 316 315 315 314 313 312

GFSNGP_850_thetae_015.txt.gz
Theta_e
327 328 328 327 329 328 326 324 324 324 324 324 327 338 336 338 338 338 337 338 338 348 348 350 350 350 352 353 353 351 352 353 352 350 350 342 340 339 336 343 346 352 354 353
328 329 327 327 329 330 327 327 326 326 327 326 328 334 341 339 338 337 336 336 340 345 348 347 348 349 351 353 353 351 351 351 352 353 353 349 346 343 344 344 346 349 353 355
327 329 330 329 327 328 330 329 328 327 327 326 327 328 332 338 339 336 336 340 343 344 347 347 347 347 349 349 351 351 349 351 350 352 353 352 352 353 353 352 354 356 355 355
327 330 332 331 330 331 331 332 330 328 328 329 328 330 331 332 331 331 336 337 337 337 342 349 347 347 346 348 351 351 350 349 349 351 350 354 355 356 357 357 357 358 356 355
328 328 329 331 330 332 331 331 330 337 335 331 330 330 330 330 330 330 332 336 334 341 339 346 349 349 348 349 350 350 350 348 349 348 350 353 356 357 358 359 359 358 357 356
326 328 329 330 332 337 337 338 343 341 341 340 337 332 327 336 336 331 330 332 331 335 337 338 345 350 351 349 350 349 350 348 348 349 350 353 356 357 359 360 358 357 358 357
329 326 328 331 335 334 336 342 343 341 341 341 340 340 339 336 335 339 334 334 331 331 336 341 345 351 355 353 350 349 350 349 349 350 352 354 357 359 360 359 356 359 356 352
333 333 335 339 337 338 339 343 340 339 338 339 338 337 337 336 333 338 337 340 333 332 333 334 345 350 356 355 354 352 354 353 355 358 361 363 363 360 359 358 358 353 349 346
330 337 340 332 330 337 335 340 342 347 348 343 344 345 340 342 339 337 337 339 345 339 338 341 350 353 356 360 360 357 355 362 364 366 367 367 363 357 358 356 350 348 346 344
337 330 336 335 330 340 347 344 347 348 347 345 345 347 351 349 350 349 346 346 354 359 360 359 357 358 358 360 363 362 362 364 364 364 364 361 359 357 354 348 347 345 343 343
335 331 333 340 341 343 343 338 341 342 344 345 347 349 351 355 355 356 358 359 357 359 360 362 362 362 362 362 362 363 363 362 361 360 359 355 350 347 348 346 344 342 342 342
336 327 329 327 333 337 336 337 335 337 338 339 343 344 348 348 348 346 348 358 357 358 358 359 359 359 359 359 359 358 357 357 357 355 352 349 347 348 346 344 342 342 341 340
330 327 325 324 325 328 329 330 331 329 327 329 336 340 339 339 338 335 335 345 359 359 359 358 357 357 355 353 352 352 350 351 349 348 344 346 346 346 343 341 341 342 340 338
326 326 326 324 324 325 326 325 326 328 330 330 327 328 332 330 331 333 334 336 350 352 352 351 349 350 353 350 346 346 345 344 343 344 344 345 341 338 338 340 341 338 337 336
325 324 324 325 326 325 325 324 325 326 326 329 331 329 328 328 333 336 336 343 344 346 346 345 345 348 351 349 347 346 345 344 342 340 338 337 339 339 336 332 336 334 331 330
322 322 322 322 322 322 323 324 324 324 325 326 329 332 332 332 331 331 334 342 343 345 347 343 347 348 348 347 349 348 346 345 345 345 344 340 340 340 339 336 334 330 328 327
320 320 321 320 320 322 323 323 323 322 325 327 328 330 327 331 331 332 331 333 338 342 342 343 345 343 346 346 341 344 343 342 341 339 340 341 341 339 337 335 334 332 330 328
318 319 319 320 320 319 319 320 319 320 321 325 326 329 329 321 327 331 332 333 331 335 338 340 338 338 338 340 340 339 335 335 338 337 337 335 334 332 332 333 334 334 331 328
321 322 321 320 321 320 321 322 322 323 320 319 318 320 325 329 330 327 324 325 323 323 327 333 334 336 336 336 338 336 335 332 336 334 334 333 332 331 330 329 330 330 329 328
321 322 322 323 324 324 323 323 324 326 325 326 326 320 319 319 327 329 329 328 324 326 322 324 328 330 334 330 331 332 332 332 330 331 332 331 330 330 329 328 328 327 327 326
322 321 322 322 320 322 324 324 324 325 324 324 324 324 326 326 327 328 327 326 330 331 331 330 330 324 330 326 329 330 330 329 330 330 330 329 329 328 327 325 327 327 326 325
320 319 320 321 320 319 321 323 322 322 322 322 322 322 323 323 325 326 327 326 327 328 329 328 329 329 328 327 325 328 327 328 326 326 327 325 324 325 325 325 326 326 325 325
319 319 318 318 318 319 320 320 321 322 320 320 320 322 320 323 322 320 318 317 323 324 326 327 325 327 324 326 322 325 326 323 322 321 321 322 321 321 320 320 320 322 323 323
316 319 315 315 317 315 316 317 319 320 321 320 320 320 318 321 322 320 321 318 316 324 320 321 320 320 319 322 321 320 321 321 320 319 319 318 318 317 317 316 315 316 316 317
314 313 313 313 311 311 312 313 313 315 317 317 317 316 317 317 317 318 318 319 319 318 317 317 317 317 317 316 319 319 318 319 319 318 318 318 317 316 315 315 315 314 313 314
311 311 310 309 309 309 309 310 310 311 311 312 313 312 313 316 315 316 316 316 317 317 317 319 320 319 319 318 319 318 318 319 319 318 318 318 317 316 316 315 315 314 314 313
310 309 309 308 308 308 308 308 309 310 310 311 312 313 313 314 314 315 314 314 313 315 316 317 316 317 318 318 317 318 318 319 318 318 317 317 317 317 316 316 315 314 314 313

GFSNGP_850_thetae_018.txt.gz
Theta_e
320 323 324 324 324 324 323 324 323 324 319 319 319 320 324 328 336 341 338 338 338 341 344 345 346 348 348 347 348 347 349 350 351 350 350 350 349 344 339 341 343 345 347 349
323 324 325 325 325 326 325 325 323 321 321 319 321 323 327 332 330 336 338 339 339 340 342 346 346 347 348 349 348 349 350 349 350 350 350 350 349 348 342 339 344 344 346 345
321 323 325 325 326 325 325 325 324 322 321 320 322 324 325 329 333 337 337 336 338 341 345 346 347 347 348 349 349 349 350 350 350 350 350 348 348 349 348 342 342 345 348 350
320 322 327 326 326 326 324 326 325 323 323 322 324 326 327 328 329 331 338 335 338 339 343 345 347 348 346 348 349 350 350 351 350 349 349 348 347 348 350 348 346 347 350 350
321 323 324 329 328 326 325 326 327 325 325 324 326 326 326 327 330 330 331 334 336 341 344 344 347 347 348 349 350 352 352 351 350 350 350 350 348 346 349 351 351 351 351 354
321 324 326 325 329 332 330 333 339 335 335 333 326 325 323 331 332 330 328 328 331 335 336 344 346 347 348 349 350 350 349 348 349 349 350 350 349 349 350 353 352 353 356 357
322 326 321 326 331 332 333 331 340 337 337 334 335 330 337 335 335 333 330 329 329 331 335 339 344 346 343 346 348 346 346 349 352 351 349 349 351 352 352 353 355 358 359 359
331 326 331 332 333 329 329 341 339 338 337 337 337 336 336 337 335 334 338 333 331 329 335 335 335 344 346 346 344 345 349 351 353 352 351 351 353 354 354 355 357 358 355 351
332 331 330 333 331 341 346 346 346 346 345 342 343 350 351 349 343 339 338 339 336 335 331 332 332 334 337 340 346 349 350 352 353 353 352 352 354 355 356 357 358 355 351 352
329 331 331 329 337 341 341 341 342 345 345 346 348 352 352 351 350 350 354 359 357 350 335 334 332 341 336 339 350 350 350 351 351 352 353 355 356 356 356 357 356 355 353 347
332 329 329 328 332 335 337 337 340 342 343 344 346 350 351 350 351 352 355 358 360 362 362 356 340 345 353 353 351 353 353 354 356 359 359 361 362 361 356 355 352 350 343 343
332 326 326 326 330 329 329 330 330 334 338 339 339 338 341 341 337 336 340 345 347 342 355 356 358 360 357 358 355 354 355 356 357 361 363 362 357 352 350 347 343 342 341 339
327 326 325 324 324 326 328 329 329 328 327 331 331 331 333 333 333 334 335 331 332 333 335 340 339 332 363 362 361 358 357 359 358 356 352 349 344 345 345 342 342 340 340 339
326 326 325 324 323 324 326 328 329 330 331 329 329 331 334 334 333 332 332 339 338 335 331 329 333 324 359 359 356 357 354 354 354 351 342 335 339 345 341 342 338 341 341 339
325 326 324 324 325 325 325 326 328 330 332 332 332 332 331 333 337 338 335 338 338 336 340 343 349 351 352 348 343 342 347 349 349 347 346 345 344 345 342 339 339 339 339 337
322 323 324 324 324 325 325 323 326 328 329 327 330 331 332 334 334 341 341 341 338 340 340 341 342 345 345 343 342 342 341 344 344 344 343 344 339 336 336 337 337 338 336 335
321 320 321 322 323 324 323 323 322 325 327 328 325 324 330 333 333 333 336 340 341 343 341 341 345 345 342 339 344 344 343 343 342 339 338 337 338 337 334 333 332 331 329 327
319 319 320 320 321 319 319 320 321 319 320 325 328 330 328 327 327 326 325 326 334 336 337 336 334 337 337 338 340 340 341 339 340 342 342 339 336 334 336 334 334 332 329 328
320 320 322 322 320 322 323 325 324 321 323 321 319 321 328 328 328 327 325 324 323 328 334 334 335 334 331 328 329 333 334 336 337 338 339 339 337 335 335 334 334 332 331 329
322 323 323 323 324 324 325 324 325 325 324 324 322 321 319 320 325 327 327 329 328 326 324 327 331 333 332 333 332 332 333 335 335 335 334 334 334 331 330 331 331 331 329 329
320 319 322 323 323 323 323 323 323 322 323 324 325 325 325 327 325 325 327 328 328 330 330 329 325 327 324 325 329 322 322 326 331 330 332 331 331 330 329 327 327 327 327 327
320 320 319 320 320 320 321 321 320 321 321 321 322 322 322 323 323 321 323 325 327 327 326 327 328 328 328 325 325 326 328 329 329 329 329 328 327 326 326 326 326 326 326 325
316 315 313 313 314 316 319 321 321 318 318 317 319 322 322 320 319 318 318 321 323 322 324 322 318 322 325 321 326 326 326 325 324 325 327 325 325 324 323 324 325 325 325 325
311 311 311 311 312 313 312 315 315 314 315 316 317 317 318 317 321 320 317 318 320 319 319 319 316 316 319 320 321 322 320 320 320 320 320 321 320 320 319 319 318 317 319 319
310 309 309 309 308 309 309 310 311 310 311 312 313 315 316 316 316 315 316 317 317 317 319 321 318 318 319 318 319 318 319 319 319 318 318 318 318 317 316 316 315 315 314 314
309 308 307 308 307 307 308 310 309 310 312 313 312 313 313 313 313 313 314 314 316 316 317 316 317 318 319 318 318 318 319 319 318 318 318 317 317 316 315 315 315 314 314 314
307 307 307 306 307 307 307 308 308 308 310 311 311 310 310 310 310 310 310 311 314 312 311 311 312 313 314 315 316 317 317 318 318 317 317 317 317 316 315 315 314 314 314 314

GFSNGP_850_thetae_021.txt.gz
Theta_e
316 317 319 319 320 322 320 322 323 324 318 319 319 319 320 326 333 337 340 342 342 342 342 342 342 342 344 345 346 345 345 346 346 347 347 348 349 350 349 342 341 340 343 346
317 319 320 321 321 322 322 322 321 321 318 317 319 321 320 323 325 327 331 340 343 343 344 342 341 341 342 344 346 346 347 346 346 347 347 348 349 350 350 350 343 342 342 341
317 317 318 321 322 322 323 322 322 323 321 318 319 318 318 322 324 327 330 337 339 341 342 342 340 340 341 341 344 346 347 347 347 347 347 348 350 350 350 350 349 345 342 343
315 316 324 322 323 323 323 322 321 321 321 320 321 324 324 326 328 328 330 331 337 337 339 339 340 339 339 342 344 346 347 348 350 348 346 348 350 350 350 350 348 348 343 340
317 318 320 323 325 323 322 322 322 322 321 321 322 323 323 325 327 327 328 328 329 335 337 338 338 338 340 345 345 347 348 348 347 348 348 349 349 349 351 352 350 347 347 341
315 320 323 323 333 333 322 325 330 323 323 323 321 321 323 326 326 327 327 329 330 334 335 336 337 338 342 345 347 346 346 347 347 348 349 349 348 349 351 353 351 350 348 345
318 319 320 330 333 333 328 326 335 329 326 324 323 324 329 327 331 330 330 329 329 333 331 336 341 342 344 346 347 346 346 346 350 350 350 350 350 351 350 352 353 352 351 348
318 322 324 332 335 339 334 337 336 336 335 335 336 337 337 336 335 335 339 338 333 329 331 339 341 340 343 346 343 345 347 348 349 350 351 353 353 355 354 356 354 352 355 354
324 324 331 331 331 335 337 337 339 342 341 343 348 350 349 345 341 339 338 339 340 339 338 335 332 343 344 340 341 346 349 349 350 351 352 356 354 355 356 355 355 356 355 357
328 330 332 332 331 333 333 335 340 341 345 347 347 346 348 351 351 348 344 341 340 337 335 337 342 339 338 343 346 346 346 345 347 351 354 352 354 356 356 355 356 355 355 356
329 329 332 331 329 330 330 334 335 339 341 340 340 336 336 338 341 348 350 350 350 349 349 350 355 355 354 347 346 347 347 347 350 352 354 355 357 359 359 355 352 351 352 351
330 327 328 327 325 325 328 330 331 331 332 333 335 335 336 337 335 334 335 336 335 335 337 337 347 353 352 355 355 352 348 348 351 352 354 355 357 359 356 353 350 349 348 345
327 326 325 324 324 324 327 328 329 331 332 333 334 333 333 333 332 332 334 335 335 333 333 333 333 334 336 337 351 356 353 355 355 354 356 357 357 352 346 342 343 334 332 336
325 325 324 327 324 327 328 329 331 331 331 331 333 336 337 337 335 337 336 335 334 334 333 334 337 335 338 339 346 359 357 355 354 352 350 354 348 343 336 332 329 335 340 340
325 325 324 324 324 326 326 328 329 330 332 333 333 337 340 340 340 340 339 338 338 339 339 334 338 337 333 334 338 343 345 345 346 342 342 342 339 339 334 334 335 342 341 340
323 323 324 324 324 324 326 327 325 326 326 332 333 333 331 334 337 340 340 340 339 340 341 340 337 340 337 340 332 335 328 337 338 336 333 334 338 337 339 342 341 339 340 336
322 322 323 323 322 321 320 321 325 327 327 327 328 329 328 328 326 332 336 337 336 333 332 337 338 340 339 339 338 329 329 341 341 341 340 344 343 343 340 338 340 339 337 334
320 321 321 321 321 321 321 320 322 321 326 329 328 327 326 325 325 323 325 334 334 335 335 333 331 336 337 337 338 340 340 341 339 340 339 340 338 338 337 335 335 333 332 329
322 322 323 324 325 325 324 323 323 321 321 320 322 324 325 326 326 328 327 324 326 330 331 332 332 330 329 331 334 337 338 339 340 339 338 336 334 333 331 331 330 330 329 329
322 322 324 324 324 323 323 323 323 325 325 324 324 324 321 326 327 328 328 328 328 328 326 325 327 330 330 329 331 334 335 335 333 334 337 337 336 334 335 334 333 334 332 329
321 322 322 322 321 321 320 320 322 323 324 324 324 325 324 323 325 326 326 325 322 323 327 328 325 325 325 325 325 324 326 330 331 333 334 334 335 334 332 332 331 331 330 330
315 316 317 320 321 318 317 319 320 320 322 322 320 318 318 317 320 323 322 321 319 318 318 321 324 327 327 325 325 324 325 328 328 330 329 330 330 330 329 327 328 327 327 327
310 311 312 311 312 312 313 315 317 318 320 322 319 318 320 319 318 318 320 321 320 319 316 316 317 320 321 325 327 327 327 328 328 327 328 327 327 327 327 326 325 325 326 326
308 308 308 310 311 311 311 312 313 314 315 315 316 317 318 318 317 317 318 319 320 320 319 319 319 318 319 321 321 324 324 325 325 325 323 322 321 321 322 323 324 325 325 324
308 307 307 308 309 309 311 312 312 312 313 313 313 313 313 314 315 315 316 316 316 316 316 316 317 318 319 318 318 319 319 319 319 319 318 318 317 317 317 316 316 317 317 317
307 307 307 307 307 307 308 310 311 310 310 310 309 309 310 311 314 315 314 314 313 314 313 313 314 315 315 317 317 318 318 319 318 317 317 317 316 316 315 315 314 314 314 314
305 306 307 307 307 307 306 306 306 308 308 308 307 306 306 307 308 309 309 309 310 310 309 308 309 309 309 310 311 314 315 315 317 317 317 317 316 316 316 315 315 313 313 313

GFSNGP_850_thetae_024.txt.gz
Theta_e
315 316 317 318 318 318 318 320 321 323 322 321 319 319 321 325 325 329 330 334 336 339 340 339 340 341 341 342 343 343 343 344 344 344 344 344 345 346 347 347 348 348 341 342
315 317 317 318 318 319 320 318 319 321 319 317 319 321 320 322 324 325 329 330 328 335 340 340 340 340 341 341 342 342 342 343 344 345 345 344 345 346 347 347 348 349 347 341
316 315 317 319 319 320 319 318 319 320 320 320 317 317 319 322 324 325 326 327 326 327 335 341 341 341 341 342 342 343 342 343 344 345 345 344 345 346 346 347 347 348 349 345
315 315 319 318 317 319 320 320 319 320 319 320 321 323 325 325 325 326 326 326 326 326 329 337 341 342 341 342 342 341 342 344 344 345 345 346 347 346 346 347 347 347 347 347
314 316 317 316 327 334 333 328 320 320 320 319 322 322 321 324 324 325 327 327 328 328 329 331 338 341 342 342 341 342 342 344 346 346 346 347 347 346 346 347 347 347 347 348
312 317 320 319 331 332 332 331 322 321 321 321 318 320 321 328 326 326 327 326 326 326 327 331 336 338 341 342 342 341 341 341 342 345 346 347 347 347 347 348 348 348 348 347
313 317 317 317 331 334 328 332 336 337 335 322 321 324 326 325 326 325 326 326 327 327 328 330 335 336 337 338 339 339 340 343 345 346 346 346 348 350 351 351 350 349 349 349
312 316 318 328 334 342 334 335 335 337 338 322 325 326 329 332 335 339 338 338 333 330 329 331 336 339 339 338 337 340 343 344 345 347 348 349 350 352 349 352 352 351 352 351
313 314 317 332 332 334 333 332 334 336 341 337 340 343 341 342 343 345 347 347 346 343 341 333 329 339 343 345 345 346 346 347 348 351 353 353 353 351 352 351 355 355 354 360
317 320 320 331 331 331 335 330 332 336 341 342 344 343 343 342 342 343 343 343 343 345 346 347 349 347 340 339 343 344 346 348 349 350 352 355 356 357 356 352 354 345 347 357
316 317 327 329 328 330 335 331 332 334 335 335 338 336 337 337 337 336 336 335 337 339 337 337 337 339 341 344 346 348 347 345 345 349 352 354 357 357 357 356 356 354 357 356
320 319 326 327 326 329 334 331 331 332 335 336 336 335 335 335 335 336 336 337 338 337 337 336 335 335 335 335 335 337 340 345 350 347 350 353 355 356 358 358 358 358 355 354
319 319 324 327 325 327 330 330 331 333 334 335 335 335 335 336 335 335 334 334 334 333 333 333 332 332 332 332 332 332 332 332 345 350 348 350 355 355 356 355 359 357 346 344
316 321 324 326 326 328 330 330 331 334 337 337 337 335 335 335 335 335 336 337 337 336 335 335 337 336 334 334 333 332 333 337 338 347 349 352 353 354 351 352 345 333 333 333
322 325 326 325 327 329 329 330 332 335 334 338 339 339 339 339 339 338 338 338 339 339 337 336 336 336 336 336 338 335 340 346 348 351 350 351 350 344 338 332 330 332 331 331
323 324 323 323 325 326 328 330 331 330 326 326 330 336 338 338 337 335 335 337 337 337 337 338 338 337 337 337 334 337 341 338 333 336 336 341 339 337 332 331 333 335 331 336
322 322 322 322 323 324 325 326 327 327 327 326 324 323 330 334 335 335 334 334 332 332 331 332 336 338 337 338 336 334 332 333 331 330 333 331 333 330 329 329 331 333 332 339
322 322 323 322 321 322 322 324 325 326 326 326 326 327 327 325 326 328 329 332 331 331 330 329 330 334 337 337 337 335 333 333 333 332 330 332 333 330 327 328 332 335 338 338
323 324 325 324 324 324 323 322 322 322 321 322 326 327 328 327 326 327 327 326 326 327 327 327 328 331 334 334 336 337 336 336 337 337 337 338 338 337 337 336 337 337 337 335
323 322 321 320 322 324 325 325 325 326 325 325 325 325 325 323 322 322 322 323 324 325 326 325 324 325 327 330 333 334 334 335 336 335 332 333 335 334 333 333 333 332 332 330
318 316 316 318 318 322 323 323 321 319 317 318 321 323 322 321 320 319 318 317 317 319 321 322 324 324 324 324 326 325 328 330 331 332 332 333 333 332 331 330 330 329 329 330
312 312 317 318 317 318 320 321 318 318 319 319 318 318 320 320 320 320 318 317 318 318 318 318 319 325 327 327 327 326 326 326 329 330 331 331 330 331 331 332 330 330 330 330
314 314 313 314 314 315 316 316 317 317 317 318 318 318 318 318 318 319 318 318 318 318 318 318 318 319 321 325 326 328 328 328 328 326 325 327 328 327 328 328 327 327 327 328
309 310 311 312 312 312 313 312 312 313 313 314 315 316 317 318 317 316 316 316 317 317 317 317 318 318 318 318 319 322 324 324 324 324 324 324 323 324 325 325 326 325 325 325
307 307 308 309 311 310 310 310 311 310 311 311 313 314 314 314 314 313 314 314 314 314 315 315 316 316 317 318 318 319 318 318 317 317 317 317 318 319 319 319 319 320 322 323
306 306 306 306 307 307 307 307 307 308 308 307 308 308 308 309 309 309 309 309 309 310 310 309 310 311 313 314 314 315 317 317 318 318 318 317 316 314 313 314 315 316 316 315
304 305 306 306 306 306 306 306 306 306 306 306 305 305 305 304 304 304 304 304 304 304 304 305 306 306 307 307 308 308 308 310 312 315 316 315 315 315 314 315 312 311 311 311

GFSNGP_850_thetae_030.txt.gz
Theta_e
329 325 324 329 329 329 330 330 331 331 331 331 330 330 330 330 330 331 332 333 336 341 342 344 345 347 350 350 350 351 352 355 353 344 343 342 341 342 342 343 344 345 346 346
324 323 323 324 326 327 328 330 331 330 331 331 330 329 330 329 329 329 329 329 330 335 340 343 345 347 348 346 348 350 351 350 352 349 345 343 343 342 343 343 344 344 345 346
325 324 323 325 326 326 327 327 328 330 330 330 329 329 329 328 328 328 329 330 332 333 336 341 343 340 344 339 349 350 347 350 350 350 345 343 345 346 344 344 345 344 344 345
321 323 324 325 326 326 326 327 327 328 328 329 328 327 327 327 328 328 328 329 331 331 332 337 340 338 345 347 345 346 346 345 346 348 347 349 349 346 344 345 346 346 344 345
320 321 323 323 323 323 326 327 327 327 328 328 327 327 327 326 327 328 329 330 331 331 332 333 335 338 340 347 349 350 344 342 341 343 352 356 349 343 346 350 351 355 356 353
316 320 322 323 323 322 326 329 329 331 333 334 336 332 330 327 328 328 330 330 330 330 331 332 330 332 341 345 348 346 341 341 343 341 344 346 344 349 351 356 356 357 356 355
314 316 318 320 323 329 328 339 336 335 336 338 342 340 337 336 336 335 334 333 333 333 329 330 328 332 333 343 343 340 352 352 346 342 341 343 343 344 346 349 356 355 355 351
313 314 314 315 317 320 328 330 332 334 334 335 337 338 341 342 342 338 337 342 345 338 330 332 331 326 327 328 334 346 348 349 349 348 347 355 348 347 348 349 349 349 349 351
313 313 314 314 314 317 319 320 323 331 335 336 337 338 341 344 344 336 340 345 348 336 338 344 332 330 331 330 333 344 347 346 347 347 346 347 351 354 358 357 356 356 355 358
313 313 314 314 315 315 315 317 320 321 329 335 337 340 344 345 344 346 349 353 352 348 347 349 339 343 342 338 339 339 340 341 344 356 357 359 358 360 358 358 358 356 355 356
315 315 313 311 311 312 314 315 315 317 326 333 337 341 345 344 345 348 350 348 349 351 351 350 348 348 348 349 354 350 354 357 358 358 358 360 359 359 359 358 359 359 358 358
314 313 314 314 313 313 313 316 317 322 325 331 338 340 341 344 345 345 346 345 345 345 345 345 344 338 336 337 338 345 353 353 353 353 355 357 358 359 358 358 359 356 357 356
314 311 312 313 314 314 317 319 321 325 327 335 337 337 339 341 341 341 343 344 346 347 347 347 346 338 333 332 332 333 337 339 346 347 348 349 352 356 357 360 353 353 352 352
311 311 311 313 312 315 316 320 324 328 332 335 336 335 336 337 338 340 342 342 343 344 345 345 340 336 336 336 337 339 337 336 343 342 347 350 353 354 356 353 355 351 354 355
308 309 310 311 315 317 320 322 327 331 333 335 336 335 336 337 338 337 337 339 341 342 343 343 340 339 341 343 341 337 339 341 341 340 337 339 343 345 347 348 348 350 351 351
308 308 310 312 313 316 323 326 327 328 334 335 336 337 335 334 333 332 332 333 334 334 334 338 341 341 339 339 340 339 337 334 337 339 336 337 337 338 340 342 342 337 334 331
314 314 314 315 317 322 323 325 327 330 332 333 333 333 332 330 329 329 329 329 328 329 329 333 336 339 342 343 341 340 339 340 336 338 338 336 334 334 336 336 334 332 331 331
321 319 319 317 323 324 323 328 327 329 329 329 328 326 326 326 326 325 325 326 327 326 326 326 330 335 335 338 341 340 340 338 338 337 337 335 336 335 335 334 333 329 327 329
314 318 321 323 324 322 324 323 322 321 321 322 323 324 324 323 322 323 323 323 324 324 324 324 325 328 333 336 339 339 337 336 336 337 338 335 334 333 333 332 332 331 331 330
315 315 315 317 319 319 318 318 318 318 318 318 318 318 318 318 320 319 319 320 319 321 323 327 327 326 328 330 333 335 338 339 337 335 334 334 334 334 334 334 332 331 332 331
316 317 316 316 317 317 317 316 316 317 317 318 318 317 317 317 318 317 316 317 316 318 319 323 326 325 325 328 329 329 330 331 333 336 336 333 331 330 330 331 335 333 333 333
311 312 313 316 315 316 316 317 318 317 316 316 317 315 314 315 314 315 316 315 317 317 317 318 319 323 323 322 321 322 322 323 324 326 328 329 330 330 330 330 330 331 331 331
310 310 310 310 311 311 315 315 314 313 313 313 312 310 310 309 309 310 309 310 312 314 315 316 318 318 318 319 318 317 316 317 319 323 324 325 327 327 327 327 327 328 329 329
309 309 309 309 309 310 310 309 312 312 310 310 308 308 308 308 307 307 306 307 307 308 309 310 311 312 314 316 317 318 317 316 314 314 316 318 319 319 320 325 325 325 324 321
308 308 308 307 307 307 308 308 307 306 305 304 303 303 302 303 303 303 303 304 305 305 305 306 307 308 309 310 309 313 316 316 315 315 314 313 314 314 313 313 313 317 321 323
302 305 306 306 305 305 306 305 304 304 303 302 302 301 301 300 301 301 301 300 300 301 301 302 303 305 306 306 307 307 307 308 311 312 312 313 314 312 312 312 312 312 312 311
300 299 302 303 303 302 302 302 302 301 301 301 300 300 299 299 298 299 298 298 298 298 299 299 299 299 302 303 304 304 305 305 304 305 307 308 309 310 312 311 311 310 309 309

GFSNGP_850_thetae_033.txt.gz
Theta_e
332 333 332 331 330 330 331 332 333 333 334 334 334 333 333 332 334 334 335 336 337 340 342 343 346 349 352 352 354 355 356 357 358 357 356 353 348 341 337 340 340 341 343 346
332 332 331 330 332 331 331 331 332 332 333 334 333 331 332 332 332 332 332 332 333 333 339 343 343 348 350 353 352 354 355 356 358 359 359 359 356 348 342 339 339 338 340 343
332 331 330 331 331 332 332 332 332 333 333 334 333 333 333 332 332 331 331 331 331 332 334 340 343 346 349 352 354 352 353 356 356 358 360 360 359 357 348 342 343 341 341 343
327 330 333 331 330 330 331 331 332 332 333 333 333 331 331 330 331 331 331 331 331 331 333 335 337 340 348 349 353 353 353 354 356 357 359 360 359 359 358 355 352 349 346 346
325 329 329 329 328 330 330 330 330 331 331 330 329 329 330 329 329 330 330 330 331 331 332 333 335 337 341 348 349 350 351 353 353 358 359 360 352 351 355 358 357 352 352 351
323 326 330 328 328 325 329 330 330 330 330 330 331 334 335 337 338 334 331 331 331 332 333 333 334 335 336 339 346 350 342 350 354 357 359 359 352 351 355 357 351 357 356 353
319 322 324 326 327 327 329 340 333 331 332 334 337 340 340 339 339 342 343 342 340 338 337 336 336 336 338 339 341 343 354 354 356 355 358 357 355 350 351 356 360 358 357 355
318 319 322 321 321 326 329 330 330 333 335 337 338 338 338 338 340 342 344 343 341 341 345 347 339 340 343 343 334 347 350 354 356 358 359 360 356 356 360 361 361 358 359 356
316 317 318 318 319 319 319 321 322 323 325 327 329 335 337 338 342 345 345 343 337 339 348 342 343 344 345 346 350 351 351 353 356 358 358 357 360 360 362 361 362 361 361 362
315 316 316 315 315 316 317 318 318 319 320 320 322 329 335 339 344 346 346 348 351 351 349 345 353 355 353 352 355 354 355 355 357 360 360 361 360 363 362 362 362 360 361 361
315 315 315 314 314 314 315 315 315 316 318 319 321 324 333 340 347 346 349 354 352 354 356 357 359 361 361 361 359 359 359 360 360 360 360 362 362 360 362 361 361 361 361 360
315 315 315 315 315 315 315 314 314 315 317 322 324 328 337 338 345 349 349 350 351 352 352 352 351 352 352 352 362 362 361 361 359 358 360 361 361 363 360 360 361 360 358 360
314 312 313 313 314 315 315 314 315 317 319 322 325 329 339 338 345 346 347 348 351 352 351 351 351 346 337 346 352 352 355 354 354 352 352 353 356 358 357 358 359 357 357 359
308 310 312 313 313 314 315 315 316 316 317 320 326 333 337 337 339 343 345 347 347 349 348 346 346 348 349 351 351 343 339 338 348 349 350 352 353 354 355 355 356 359 359 357
308 308 310 312 313 314 314 315 315 318 319 322 326 336 334 337 338 341 343 345 345 344 344 345 345 345 345 343 339 343 346 345 344 344 342 342 340 339 341 344 345 346 346 347
314 309 309 310 312 313 313 314 318 321 320 326 332 335 334 338 340 340 340 339 339 341 342 341 342 343 343 344 344 343 339 339 343 342 340 340 340 342 341 339 338 337 336 334
311 311 310 310 311 312 314 316 317 323 326 328 331 334 337 335 333 334 335 335 335 336 338 340 341 343 344 344 343 342 342 342 340 340 339 339 339 339 338 338 338 336 334 330
316 317 316 317 317 317 317 320 323 325 327 330 332 332 330 329 330 331 331 330 330 332 332 333 337 339 340 342 341 340 340 340 340 340 338 337 338 337 338 337 336 334 334 332
314 314 315 316 317 317 317 318 318 320 320 322 322 322 323 323 323 324 325 326 326 326 328 330 332 334 336 338 340 339 338 339 340 340 339 337 337 337 334 333 332 331 332 331
315 315 314 314 313 316 315 316 316 316 315 317 317 317 317 318 319 318 319 320 321 322 324 327 328 329 331 332 333 335 338 338 337 337 336 337 337 336 331 333 332 333 332 333
312 313 312 312 313 313 314 315 316 315 315 315 313 313 313 313 315 314 314 315 317 319 320 324 325 323 324 326 327 328 330 333 333 334 335 331 329 330 329 331 333 333 332 333
311 311 312 312 311 310 311 310 311 311 311 311 311 311 311 311 310 309 309 310 312 314 316 317 319 321 321 321 321 323 325 325 327 328 328 328 328 328 328 329 329 330 330 329
310 310 310 310 312 310 309 309 308 307 308 309 309 308 308 308 308 308 307 307 308 310 311 311 312 316 318 317 316 316 317 319 321 322 322 322 323 324 325 325 325 323 323 325
309 309 309 309 309 309 309 308 306 305 305 304 304 304 305 306 304 305 304 305 306 306 307 309 310 311 312 313 316 316 316 315 315 317 318 318 319 319 318 321 322 322 322 322
304 307 307 307 308 308 307 307 307 306 304 304 304 303 303 303 303 302 302 303 303 303 303 304 306 307 309 310 310 309 310 312 314 314 314 315 316 316 316 315 314 314 313 314
303 304 306 305 305 305 306 306 305 304 305 304 304 303 303 302 301 301 302 301 301 301 302 301 301 304 306 306 307 308 308 307 309 310 310 311 311 312 312 312 312 312 312 311
303 303 304 304 304 304 303 303 303 302 301 302 302 301 300 300 299 299 299 299 299 299 300 300 299 299 301 302 303 305 305 306 305 306 307 308 308 307 306 307 308 309 308 309

GFSNGP_850_thetae_036.txt.gz
Theta_e
332 334 334 331 330 331 332 334 335 333 334 336 338 336 337 336 337 338 340 342 344 346 351 350 351 353 355 356 357 357 357 359 359 357 355 352 352 347 345 342 340 341 343 347
333 333 333 334 331 331 331 331 332 333 334 335 336 335 336 336 335 337 336 338 339 340 341 346 351 352 352 355 356 357 357 357 359 358 358 359 357 356 354 351 347 346 345 343
331 332 334 335 334 332 331 331 332 334 336 336 337 337 336 334 333 333 333 333 334 333 334 337 341 352 355 354 355 357 356 357 358 359 358 359 359 359 359 355 353 350 347 342
329 331 336 334 333 332 333 332 332 333 335 337 339 335 334 333 333 333 333 332 332 332 333 334 336 343 350 354 355 354 356 357 358 359 359 359 359 359 359 359 356 353 353 347
328 331 333 333 332 333 332 333 333 334 335 334 332 332 332 332 332 332 332 332 332 332 332 333 339 341 343 345 350 354 354 354 355 358 359 360 360 359 361 361 360 357 354 353
324 328 332 332 331 331 331 332 333 332 332 332 332 332 343 342 342 343 344 345 343 341 338 332 335 335 345 344 348 347 344 344 352 356 356 359 360 362 362 361 360 361 358 355
321 324 328 326 326 328 332 340 336 335 336 335 336 342 341 340 340 342 343 344 344 342 341 340 337 337 337 344 347 345 343 347 347 348 351 357 360 364 365 364 365 364 363 362
319 322 325 324 324 330 333 328 327 328 328 331 331 334 337 338 340 341 344 346 345 343 341 343 346 336 336 338 336 339 344 349 351 351 354 357 362 363 366 365 365 363 363 362
318 320 324 320 320 320 320 321 322 322 323 324 324 324 326 330 338 344 347 347 347 343 338 337 349 346 338 340 342 343 344 348 351 354 357 359 362 364 365 364 363 363 363 363
316 317 318 317 317 317 317 318 319 319 319 319 322 322 323 326 334 343 349 349 356 355 353 351 346 349 351 343 345 353 352 355 354 356 358 360 358 364 363 364 363 364 366 366
315 316 317 315 315 316 316 316 316 316 317 318 319 320 325 327 334 339 342 352 352 355 358 358 360 362 362 361 359 353 350 358 360 360 362 363 363 361 366 363 364 365 365 363
317 315 317 318 316 316 316 316 317 317 317 317 319 320 324 327 335 338 344 351 351 352 355 356 355 356 359 361 361 362 360 361 361 362 362 362 365 362 360 363 364 362 362 362
311 311 312 313 314 315 316 316 317 318 318 317 319 321 322 325 338 338 341 349 349 350 351 351 352 351 345 349 360 363 362 362 361 360 361 361 360 364 364 361 359 360 361 361
306 307 309 310 312 314 315 315 316 317 316 317 318 318 319 322 339 338 339 346 347 349 350 349 349 351 353 354 350 358 356 355 351 352 352 354 357 358 357 358 359 360 359 359
316 313 310 312 311 313 315 316 316 316 317 317 317 319 320 324 337 339 341 346 347 347 346 347 347 347 346 347 347 347 347 347 347 346 349 350 350 352 351 351 350 349 348 346
313 313 316 312 312 312 314 315 316 316 316 316 318 321 322 336 333 338 342 343 345 343 343 343 344 345 347 347 343 339 343 345 344 342 342 342 342 343 343 341 341 340 337 333
316 313 310 311 311 313 314 314 315 315 315 316 320 323 330 334 332 338 338 339 339 340 341 340 342 344 346 345 345 345 341 342 342 340 341 341 341 341 340 340 339 338 337 335
314 314 314 314 313 313 314 314 314 317 318 319 322 327 329 333 335 333 334 334 333 333 334 337 341 340 342 342 342 342 343 342 342 339 338 339 339 338 338 337 335 334 335 333
311 312 312 313 313 315 317 317 316 317 319 322 324 322 322 322 323 323 324 328 329 329 330 331 333 333 339 340 340 340 340 341 341 340 338 338 336 333 332 332 333 335 334 334
311 309 310 311 311 312 312 313 313 313 312 313 316 317 317 314 316 316 318 317 317 319 325 326 325 327 330 335 337 338 337 337 337 336 336 335 335 331 332 332 332 331 332 332
310 311 310 309 310 311 311 311 312 311 310 311 311 310 310 312 312 314 314 314 316 319 321 322 322 323 325 328 329 330 331 332 332 331 331 329 329 329 329 329 330 330 330 331
310 310 311 309 307 309 310 310 310 310 309 311 310 309 309 310 310 310 311 311 313 315 316 316 318 320 321 322 323 323 325 326 326 326 327 324 325 326 325 325 325 326 327 328
309 309 310 309 308 306 306 305 305 307 306 306 306 306 305 305 306 307 307 307 309 310 311 312 313 314 317 319 319 319 319 320 321 322 322 321 319 321 322 321 321 322 321 320
305 308 308 308 309 307 306 306 305 304 304 303 304 304 304 303 303 303 304 304 304 307 309 310 310 311 311 311 314 315 316 317 317 317 317 317 317 316 315 314 313 313 317 320
304 307 307 307 307 307 306 306 306 305 304 304 303 302 302 301 302 302 302 302 302 302 303 306 307 308 309 309 309 309 309 310 312 315 316 315 314 313 312 312 312 312 310 310
305 306 306 306 305 305 304 304 303 302 303 303 302 301 301 300 300 300 301 300 300 301 301 300 302 303 305 306 307 308 307 308 309 309 309 310 310 311 311 311 311 310 309 307
305 304 305 305 304 304 303 302 302 301 300 301 301 300 300 300 300 300 300 300 300 300 300 300 300 301 301 302 302 303 304 305 305 307 307 307 307 307 306 305 305 304 303 302

GFSNGP_850_thetae_039.txt.gz
Theta_e
328 329 330 332 328 328 327 327 328 327 331 333 335 336 337 336 338 338 338 345 350 352 353 354 353 352 352 351 351 351 351 351 350 349 346 342 339 334 332 333 336 338 340 344
329 330 332 333 333 329 328 328 327 328 328 332 333 337 336 337 336 335 338 343 347 351 352 354 354 354 354 353 353 353 353 353 353 354 353 352 343 339 335 333 336 339 340 341
329 330 331 333 333 332 329 328 328 329 329 332 334 336 333 335 333 333 333 333 334 338 347 353 354 355 354 354 354 355 354 354 354 355 355 355 354 353 345 339 339 339 342 342
325 328 334 331 331 332 330 330 328 327 334 333 335 339 340 335 332 334 334 333 332 332 334 335 340 353 353 354 355 355 356 356 356 356 356 356 356 356 356 354 350 348 347 345
325 331 331 333 330 330 332 338 334 337 335 333 339 341 342 342 342 343 343 339 336 336 335 333 335 335 349 354 354 355 355 357 356 357 357 357 357 357 357 358 357 356 355 353
322 330 335 328 325 324 329 337 330 333 338 334 340 345 342 340 342 343 343 343 337 332 336 338 340 340 339 348 354 354 354 353 356 357 357 357 358 358 358 358 358 358 358 357
319 323 327 321 323 329 336 334 325 325 326 327 328 330 332 339 342 346 346 346 343 339 338 340 342 340 343 345 347 345 349 353 355 354 355 356 358 359 360 359 360 360 359 359
318 322 328 318 321 324 329 323 322 321 321 324 323 323 325 328 338 345 350 349 350 346 343 339 342 346 343 344 350 345 344 346 343 343 345 351 355 358 360 362 362 362 362 362
316 318 316 316 316 318 318 318 318 318 318 318 319 320 324 328 334 337 345 352 354 354 354 343 338 342 344 345 339 340 347 349 349 349 349 350 350 354 360 363 365 365 365 365
313 314 314 315 316 317 317 318 316 316 317 317 317 319 321 325 327 337 336 345 352 351 355 359 352 346 346 345 343 340 346 343 341 346 353 355 356 358 360 363 364 366 366 364
313 313 313 316 313 315 315 315 316 317 317 317 317 319 322 323 325 337 336 331 346 351 352 354 358 360 353 348 344 342 342 348 352 354 353 354 356 359 361 363 363 362 361 361
311 310 310 311 311 311 311 313 315 316 318 318 318 318 320 322 323 328 336 333 333 348 348 350 354 353 356 359 361 360 359 354 354 356 357 357 359 361 362 363 365 363 362 363
308 308 308 309 310 311 310 312 314 316 316 317 317 318 318 318 319 320 331 333 331 344 348 348 350 350 350 345 349 361 361 360 362 362 361 357 360 361 362 361 361 362 365 365
317 312 308 310 311 313 311 312 313 315 316 317 317 318 317 319 318 320 329 331 337 342 346 345 347 347 350 353 351 357 359 360 362 361 360 361 363 364 366 365 362 359 360 360
315 317 315 313 312 313 313 313 312 315 316 316 317 317 316 319 322 328 333 332 340 343 346 347 344 345 346 347 348 350 350 350 352 355 355 360 360 359 359 360 358 356 355 353
315 315 313 311 315 314 313 313 313 314 316 316 316 316 316 317 322 332 334 333 340 344 346 345 344 344 345 346 342 347 345 345 344 343 345 343 342 343 341 340 340 339 337 334
309 312 314 312 312 313 313 313 314 316 315 316 316 315 317 319 321 329 332 340 341 342 342 342 342 343 344 346 346 343 344 343 342 341 341 340 340 340 340 340 339 337 335 333
308 309 310 310 313 314 313 314 314 314 315 315 316 317 318 322 325 332 335 335 335 337 340 340 339 342 343 343 344 344 341 341 340 340 339 340 339 339 339 338 335 334 333 333
307 308 308 308 309 311 315 316 316 315 315 315 317 318 320 321 322 322 325 328 331 331 329 331 335 340 341 341 342 342 341 339 338 338 338 338 337 336 334 332 333 333 332 332
307 307 307 307 307 308 310 310 310 311 310 311 314 318 315 313 315 315 318 319 319 320 326 327 334 337 337 338 339 339 340 339 338 337 337 335 331 332 330 330 329 329 330 331
311 307 306 306 306 305 306 307 308 309 308 307 307 309 311 311 312 312 312 314 314 317 320 319 326 329 330 330 331 330 332 333 332 332 332 329 328 327 327 327 327 328 328 329
310 309 307 306 305 304 304 306 306 305 305 306 306 305 308 309 309 310 310 310 311 313 316 316 318 319 323 326 326 325 326 325 324 323 325 324 323 323 322 323 323 323 324 326
308 309 307 306 305 305 304 304 303 303 303 302 303 304 305 306 306 305 306 308 309 310 311 311 313 316 318 319 321 322 322 322 320 318 317 318 319 320 319 320 320 320 319 319
307 306 309 308 306 305 305 304 304 303 303 302 302 302 302 302 303 303 303 304 307 309 309 309 309 310 312 317 318 317 317 317 317 317 317 315 314 314 313 312 312 313 317 318
307 305 305 305 305 304 303 303 303 303 302 302 301 300 300 301 300 301 300 300 301 304 306 306 308 308 308 308 311 312 313 314 315 315 314 314 313 313 312 312 312 311 310 311
305 305 305 304 303 303 302 301 300 301 301 300 300 300 300 300 300 300 300 300 300 300 301 301 303 305 306 306 306 306 306 308 308 308 307 307 307 307 308 308 309 308 307 306
304 303 303 302 302 302 301 300 300 300 300 300 300 300 300 300 300 300 300 300 300 300 300 301 301 301 302 302 302 304 304 304 305 306 306 306 305 305 305 305 304 304 303 302

GFSNGP_850_thetae_042.txt.gz
Theta_e
310 313 318 323 326 325 322 324 324 324 325 324 324 330 328 330 331 334 344 347 350 350 349 349 349 348 349 349 348 348 348 348 347 345 344 344 340 339 337 335 334 335 336 339
312 321 325 328 330 330 324 324 324 322 324 323 327 333 332 335 337 338 340 347 350 351 350 350 350 349 349 349 349 349 349 349 349 348 346 345 343 338 336 336 334 334 334 333
315 322 329 330 327 331 327 324 324 324 323 327 335 340 338 330 334 336 343 348 351 351 351 350 350 350 350 350 350 350 350 350 350 350 349 349 348 348 345 339 335 333 332 332
314 320 332 326 323 324 329 328 327 333 329 339 341 341 342 344 343 340 337 344 349 351 352 352 352 351 351 350 350 350 350 351 351 351 352 352 353 353 351 351 347 339 335 333
316 326 328 325 322 321 323 325 323 327 338 340 340 340 341 347 347 346 343 340 340 343 348 352 353 353 353 352 352 352 351 351 352 352 352 353 354 355 355 355 355 354 354 351
313 324 331 319 319 323 325 324 320 322 323 330 336 340 336 343 349 351 349 346 340 340 340 339 338 344 350 352 354 353 353 352 353 353 353 353 353 354 354 355 355 356 356 356
316 323 324 318 318 324 327 325 320 319 319 320 324 324 328 339 345 352 353 352 347 339 340 342 343 340 340 347 352 352 353 353 353 353 354 355 355 356 356 356 356 357 357 357
316 323 324 316 317 319 316 317 317 317 317 317 320 322 325 336 338 342 351 350 352 347 340 341 341 344 344 346 354 355 355 354 353 353 353 356 357 357 357 358 358 358 359 359
314 317 314 314 317 316 314 315 315 316 317 317 318 321 323 326 338 337 335 349 352 355 356 349 339 338 345 346 343 342 353 357 356 354 355 356 356 356 357 358 360 360 360 360
308 311 310 312 315 314 312 312 312 315 318 318 318 319 319 323 326 334 333 334 348 351 353 356 356 352 349 348 347 345 342 341 349 351 352 353 353 351 352 354 357 361 362 363
308 308 309 311 312 310 310 311 312 314 316 317 317 319 318 318 320 320 330 331 337 347 348 349 351 354 356 356 356 354 347 340 339 338 340 341 349 354 354 355 355 357 359 360
310 308 309 309 311 311 309 310 311 311 314 316 317 318 318 317 317 318 321 328 328 338 344 345 347 348 347 347 349 352 357 357 351 343 347 354 355 358 359 359 360 361 360 361
312 312 313 312 313 312 311 313 311 311 311 314 317 317 317 317 317 318 323 325 328 333 343 343 346 346 346 345 344 344 348 358 359 356 358 357 358 359 358 359 361 363 363 361
310 314 314 316 314 313 312 312 313 314 312 313 316 317 317 317 317 319 333 335 331 332 339 343 344 344 345 345 348 348 351 356 358 361 364 364 360 357 359 361 361 361 359 360
309 310 313 313 313 312 312 313 312 314 313 313 315 316 316 316 316 317 325 331 330 335 340 343 345 345 344 343 343 343 349 350 351 355 360 360 361 362 365 363 362 359 357 356
308 309 309 310 312 313 315 314 312 313 314 313 316 316 316 316 315 313 318 327 330 335 339 339 344 345 343 340 341 344 345 347 348 350 355 357 359 362 363 361 354 348 342 338
308 308 308 308 310 313 313 313 313 313 313 315 316 316 316 315 314 314 318 331 334 335 338 340 344 343 339 338 342 344 343 342 342 343 344 343 345 344 343 340 338 336 334 332
306 307 308 307 308 310 312 314 314 315 316 316 316 315 315 314 314 316 318 323 330 333 336 339 339 340 337 340 339 344 342 341 341 340 340 340 340 339 338 337 336 333 332 332
306 306 306 307 307 307 307 308 310 312 314 315 316 315 315 316 318 321 324 325 327 329 330 333 338 340 340 341 340 341 343 340 340 340 339 338 338 337 335 334 333 333 332 332
306 305 305 305 306 306 306 305 306 307 308 309 309 311 313 314 314 318 320 322 323 324 324 330 333 335 337 340 342 344 341 340 340 338 338 336 334 332 331 330 329 330 330 331
307 305 304 304 304 304 304 305 305 305 305 305 306 307 307 309 313 314 314 315 315 317 319 326 330 335 337 337 337 338 338 337 336 335 333 331 329 328 328 328 328 328 327 327
309 307 305 305 304 304 303 302 303 303 304 304 304 304 305 305 308 309 310 311 311 313 316 318 321 326 331 328 330 328 332 332 330 329 331 329 327 326 325 325 325 325 324 325
308 308 306 305 304 304 304 303 302 301 301 301 301 301 300 301 304 307 308 309 308 309 310 313 316 318 321 322 322 322 323 324 323 322 322 322 322 321 321 320 319 319 319 319
305 307 307 306 305 303 303 304 302 302 301 300 300 300 300 300 300 301 305 306 306 306 308 308 309 312 315 316 316 316 316 315 316 315 314 314 313 314 315 315 316 316 316 315
305 304 303 304 301 300 300 302 301 301 301 301 300 300 300 300 300 300 300 302 301 303 305 305 306 307 309 311 311 313 314 314 314 313 313 312 311 311 310 310 309 308 307 306
304 303 302 302 302 301 300 300 300 300 300 300 300 300 300 300 300 300 300 300 301 301 301 302 303 305 305 307 309 308 307 307 307 306 306 306 306 306 305 305 304 303 303 302
303 302 301 301 301 301 300 300 300 300 299 299 300 300 300 299 299 300 300 300 300 300 301 301 302 302 302 303 303 305 306 306 305 305 305 305 304 303 304 304 303 303 301 298

GFSNGP_850_thetae_045.txt.gz
Theta_e
310 310 311 311 312 313 318 321 322 322 319 321 319 322 327 330 330 325 334 342 345 347 346 347 347 347 347 347 347 347 347 347 347 346 345 345 345 345 344 340 336 336 337 339
312 311 312 313 314 318 320 324 320 320 320 320 335 339 340 339 330 327 341 344 346 347 347 347 347 347 347 347 347 347 347 347 347 346 346 344 344 345 343 339 337 334 334 334
310 312 314 322 322 323 326 322 324 321 323 332 339 341 341 342 340 332 338 345 347 347 347 347 347 348 347 347 348 348 348 348 348 347 347 346 343 343 343 341 337 336 334 333
310 311 329 321 319 320 321 319 319 322 330 340 341 342 341 343 344 340 339 343 345 347 347 347 347 347 347 347 348 348 348 348 348 348 348 349 348 347 345 345 344 340 336 334
311 315 325 322 319 320 320 319 317 319 322 332 341 343 341 341 347 347 341 344 347 348 348 348 348 347 348 348 348 348 349 349 349 349 349 349 349 349 349 349 349 349 347 346
314 320 330 320 317 318 321 319 317 316 318 324 336 341 330 336 342 352 343 344 349 350 350 349 349 349 348 348 348 349 349 349 349 349 350 350 351 351 351 352 353 354 354 353
315 318 322 318 315 318 323 320 315 315 315 318 321 323 329 336 342 352 354 347 342 347 351 351 351 351 350 350 350 349 350 350 350 350 350 350 351 352 352 353 353 354 355 355
317 323 327 313 318 319 314 315 313 313 314 315 321 321 324 330 335 345 353 351 344 342 346 343 344 351 353 353 353 353 353 353 353 353 352 352 353 353 354 354 355 355 356 356
312 317 313 310 316 313 312 311 311 311 312 314 317 318 318 319 326 333 342 350 354 350 348 347 346 344 349 352 353 353 354 355 355 355 355 355 355 355 355 355 356 356 357 357
309 309 309 310 312 312 312 312 311 311 311 312 314 318 317 317 318 324 331 339 348 353 353 353 353 350 348 349 346 344 347 353 355 357 357 357 357 357 357 358 357 357 356 356
309 308 310 312 313 314 314 314 313 314 312 311 313 318 317 317 317 320 324 329 339 345 349 350 349 350 351 350 347 345 343 342 343 347 352 354 356 356 356 355 356 356 354 354
311 310 310 310 313 314 313 313 314 313 314 312 311 316 316 317 317 321 326 325 330 339 343 345 346 346 345 345 346 349 349 345 342 341 342 344 349 349 348 349 352 356 357 357
310 310 313 313 314 315 313 313 313 313 312 313 312 315 317 317 317 317 318 323 328 331 340 343 344 345 344 341 339 343 342 345 348 347 349 351 349 351 353 352 355 359 359 360
308 309 310 311 312 313 312 312 311 313 313 312 313 313 316 317 316 316 316 318 321 325 331 339 342 343 344 343 342 340 342 344 346 348 355 356 358 359 358 358 360 358 359 361
308 308 308 309 310 312 313 313 314 314 313 313 312 313 316 316 316 316 315 315 314 315 323 334 338 343 345 343 340 339 346 349 350 351 353 359 359 360 361 359 357 355 355 357
307 307 307 307 308 312 313 313 313 313 313 312 313 312 316 316 315 315 315 315 314 314 315 320 333 338 343 342 339 341 345 345 346 348 349 352 355 356 357 360 358 356 353 349
306 306 306 306 306 306 308 313 313 313 313 313 313 313 315 315 315 315 314 314 314 316 322 325 324 335 342 341 338 343 342 343 344 344 345 349 352 358 360 357 349 347 345 342
306 305 306 306 305 305 305 306 312 314 316 317 318 317 316 315 315 314 314 314 313 318 323 328 328 332 341 339 338 341 343 342 342 342 342 344 349 353 350 346 342 340 336 334
305 305 304 305 306 305 305 304 304 308 311 313 314 313 313 313 314 314 314 318 319 320 325 327 330 333 334 336 339 341 342 342 341 341 341 340 341 340 339 337 335 333 332 332
307 305 304 303 304 304 304 304 304 304 304 305 307 309 310 311 312 313 316 318 320 322 322 326 334 336 338 339 334 338 341 341 341 340 340 339 339 338 337 335 333 332 331 330
307 306 304 304 303 302 301 301 303 304 303 303 304 304 305 307 308 310 312 314 314 317 319 322 326 330 333 332 330 338 340 339 339 339 338 337 335 334 332 330 328 329 328 327
308 307 305 303 304 303 302 301 300 301 303 303 304 303 304 306 308 309 309 309 310 311 312 317 322 325 330 334 336 337 335 335 335 334 334 332 331 329 328 328 326 325 325 324
307 307 306 305 303 303 303 302 300 300 300 301 301 302 301 301 303 304 304 307 307 308 311 312 314 321 324 328 331 330 329 329 329 328 327 327 325 324 321 322 322 321 321 320
304 306 306 306 305 304 302 301 301 300 300 300 300 300 301 300 301 301 302 302 305 306 306 308 313 315 315 314 318 318 317 317 318 318 316 316 316 314 316 314 314 314 312 312
304 303 303 302 301 300 301 301 301 300 300 300 300 300 300 300 300 300 301 300 301 302 303 305 307 310 312 312 313 313 313 313 312 312 311 310 308 306 305 306 307 305 304 305
302 301 302 301 300 300 300 300 299 299 299 299 300 299 299 300 300 300 300 301 301 301 301 301 302 304 306 307 308 310 310 310 310 310 311 309 307 307 307 305 304 303 298 296
301 301 301 301 300 300 299 299 300 299 299 299 299 299 299 299 300 300 300 300 300 301 300 300 300 300 301 304 305 306 306 306 305 305 305 305 304 304 303 302 301 300 300 298

GFSNGP_850_thetae_048.txt.gz
Theta_e
309 310 311 311 312 313 313 313 318 323 320 319 321 320 322 330 332 331 330 329 329 336 342 343 345 345 345 346 347 347 347 347 347 347 346 346 346 346 346 345 345 344 338 335
310 310 311 313 313 314 314 315 316 318 319 321 331 337 341 342 342 341 337 330 328 331 338 343 345 345 344 345 347 347 347 347 347 347 347 346 346 346 345 345 345 345 342 336
310 309 311 317 316 319 319 318 321 321 322 325 339 340 336 336 339 342 339 330 325 333 338 343 345 345 345 345 347 347 347 347 347 347 347 346 346 346 344 344 344 344 342 339
308 311 321 320 319 319 318 318 317 318 321 338 340 338 335 334 335 338 345 336 336 340 341 342 345 345 345 346 346 347 347 347 347 347 347 347 346 346 344 344 343 342 341 338
312 313 315 322 318 318 319 317 316 316 316 323 331 335 338 337 340 339 347 340 342 343 344 345 345 346 346 346 346 347 347 346 347 347 347 347 347 346 346 345 343 342 341 341
314 316 329 320 315 315 318 319 315 313 314 317 334 341 332 326 338 345 348 344 343 344 345 345 346 346 346 346 346 347 347 346 347 348 348 348 348 348 348 348 348 348 347 347
310 315 318 314 311 316 324 319 313 311 312 316 322 322 320 326 340 347 348 346 346 346 346 346 346 346 346 346 347 347 347 347 347 348 348 348 349 349 349 349 350 351 351 352
312 317 325 310 315 318 313 312 311 311 311 312 315 318 318 323 332 344 350 347 346 348 348 348 348 347 347 347 347 347 347 348 348 348 349 349 349 350 350 351 352 353 353 354
312 313 309 309 311 311 313 312 312 312 312 312 314 317 319 323 326 334 343 350 353 352 347 349 349 349 349 348 348 348 349 349 350 351 351 351 351 351 352 352 353 353 354 354
309 309 310 311 311 313 312 312 313 314 313 311 313 316 317 318 328 328 333 342 348 349 349 351 352 352 352 353 353 353 352 353 353 353 354 354 354 354 354 354 354 355 355 355
308 310 311 312 312 312 313 313 313 315 315 313 312 316 317 317 317 321 327 332 341 346 347 347 347 349 351 352 350 347 349 351 353 355 355 356 356 356 356 356 356 356 356 356
311 310 311 311 312 314 313 313 313 314 317 315 313 313 316 317 316 316 317 322 329 339 345 346 345 344 343 342 344 348 348 347 344 343 342 347 352 354 356 355 355 356 358 356
309 308 309 310 311 312 312 313 313 312 314 317 314 313 313 316 316 316 315 315 315 320 336 343 345 344 343 342 338 336 338 341 345 348 349 348 343 343 347 350 351 355 359 359
308 308 308 308 309 310 312 313 313 314 314 315 314 313 312 313 316 316 315 315 314 314 315 325 340 345 344 343 339 337 338 338 337 338 344 350 351 350 350 350 354 355 356 359
306 307 307 307 308 309 310 312 313 313 313 314 315 314 313 313 316 316 315 314 314 313 313 314 315 333 343 343 340 338 342 347 347 350 350 352 357 361 361 360 359 359 359 359
305 306 306 306 306 306 308 309 310 314 314 313 313 314 313 313 316 316 316 315 314 313 313 312 313 318 332 341 341 339 339 343 344 347 349 351 357 359 357 355 354 355 350 350
304 304 304 305 305 306 304 305 308 309 312 314 314 313 314 313 316 316 315 314 315 314 315 314 314 313 317 336 341 338 338 341 342 341 344 348 352 357 355 350 353 351 349 348
304 303 303 304 304 305 305 304 305 307 309 311 313 316 316 315 315 314 314 314 313 314 315 316 319 317 321 326 339 339 337 339 342 342 341 342 346 352 355 353 352 351 349 343
304 303 302 302 302 303 304 304 303 304 306 308 311 311 311 312 312 313 313 313 314 314 316 319 320 324 321 320 322 327 335 336 342 342 341 341 344 348 350 349 346 343 340 337
304 303 303 302 301 300 301 302 304 304 304 305 306 308 308 308 310 311 311 311 312 313 315 317 320 322 326 330 333 337 339 339 340 341 340 340 341 343 342 340 339 337 334 332
306 305 303 302 303 301 300 300 301 302 303 305 304 304 305 306 307 308 310 309 309 310 312 315 317 320 325 329 335 336 334 335 339 340 339 339 339 338 335 334 332 331 331 330
308 306 305 304 303 302 302 301 300 300 300 302 304 305 305 304 304 305 306 306 307 309 309 312 314 316 321 324 326 328 331 334 336 338 337 336 334 331 330 330 329 328 327 326
305 306 306 305 303 303 302 301 301 300 300 300 301 302 301 301 301 302 303 304 305 307 308 308 311 313 317 320 322 324 327 331 333 332 332 328 330 328 326 323 322 320 319 320
304 303 303 305 301 300 301 300 301 300 300 299 300 300 300 300 300 300 300 301 303 305 307 307 308 311 315 313 315 318 321 322 322 321 321 318 317 317 316 315 314 312 311 309
303 302 302 301 300 299 299 299 299 299 299 299 299 299 300 300 300 300 301 301 300 301 303 305 306 307 309 308 307 309 310 311 311 310 308 308 308 306 308 307 304 306 305 305
301 301 301 300 300 300 299 299 299 299 299 299 299 299 299 300 300 300 300 301 300 300 300 302 301 303 303 304 304 304 305 305 305 304 304 303 302 302 302 302 302 300 299 298
302 301 301 300 300 300 299 299 299 298 298 299 299 298 299 300 300 300 300 300 300 299 300 299 299 300 300 301 300 300 301 300 300 300 300 300 300 300 300 299 299 298 297 294

GFSNGP_850_thetae_051.txt.gz
Theta_e
308 309 311 311 312 314 317 322 327 331 330 333 332 332 331 327 331 336 334 330 339 344 342 343 346 347 347 348 348 348 347 347 347 347 347 347 347 346 345 345 345 345 345 343
308 308 311 313 313 314 316 318 319 321 324 325 335 337 337 342 342 343 343 344 339 335 343 342 342 345 345 346 346 346 346 346 346 347 347 347 347 346 346 344 345 345 345 345
307 311 313 316 316 316 319 321 322 325 326 328 335 342 339 339 339 340 342 343 346 341 333 334 335 338 343 343 345 346 344 345 346 346 347 346 347 347 346 346 345 345 345 345
308 308 317 319 321 318 321 321 321 322 324 326 338 341 339 331 330 337 340 342 344 346 334 329 335 344 344 347 345 346 344 345 346 346 346 347 347 347 346 346 346 344 344 345
310 317 318 322 319 320 323 321 318 320 322 325 333 341 342 328 329 329 337 343 345 347 333 330 342 344 344 345 345 346 345 345 346 345 346 346 347 346 346 346 345 344 343 343
310 316 326 320 316 315 318 325 314 315 318 323 338 348 333 325 330 339 340 346 346 340 341 341 343 346 344 345 345 344 344 345 346 346 345 345 345 346 346 346 345 344 343 341
310 312 315 311 311 316 326 322 313 313 314 318 324 323 322 329 334 337 342 347 350 345 345 342 344 346 343 345 344 344 345 346 346 346 346 346 346 346 346 347 346 346 346 345
310 312 317 309 312 321 316 314 313 313 313 315 316 318 321 328 333 342 344 345 347 347 346 346 344 344 344 344 345 345 346 346 346 347 346 347 348 348 348 348 348 348 348 349
314 315 310 311 311 312 315 315 315 313 314 313 314 316 318 320 327 332 345 344 347 348 346 346 346 346 346 346 346 346 346 347 346 347 347 348 348 349 349 350 350 350 351 351
310 311 311 310 312 314 313 315 314 314 314 313 313 315 316 317 316 318 335 344 344 347 348 348 346 346 346 346 346 346 346 347 347 348 348 349 349 349 350 351 351 353 354 354
310 309 311 311 311 313 313 314 314 314 314 314 314 313 315 316 316 315 316 327 341 346 345 347 348 351 354 355 353 349 349 349 349 351 351 351 351 355 352 352 354 353 353 356
311 308 310 310 310 310 313 314 314 313 313 314 315 314 313 315 316 316 315 314 314 319 343 344 344 342 342 343 348 353 355 354 354 353 353 353 355 354 354 355 355 355 355 355
307 307 308 308 309 309 310 313 314 313 313 314 315 315 314 313 315 315 315 314 314 313 314 331 344 343 343 340 338 339 342 347 352 346 343 347 354 354 355 355 356 356 356 357
305 306 307 307 307 308 309 312 312 313 313 313 313 315 314 313 314 316 316 315 314 314 314 314 319 338 343 342 339 341 345 335 345 344 351 352 352 349 348 349 353 354 355 357
305 305 306 307 305 307 309 311 312 312 314 314 313 314 315 314 314 317 316 315 314 314 313 314 312 319 328 340 340 338 342 345 346 349 349 346 346 350 353 354 354 352 354 355
304 305 305 306 305 304 305 307 307 309 312 313 314 314 314 314 316 318 317 315 314 314 313 313 313 312 314 323 340 339 338 340 342 343 348 350 351 356 361 361 360 359 358 359
304 304 303 304 304 303 303 303 304 306 308 310 310 313 314 314 314 314 314 314 314 314 314 314 313 313 312 315 331 340 338 338 340 342 343 346 350 356 360 355 356 356 356 353
303 303 302 302 302 302 303 303 303 305 305 307 308 309 311 312 311 312 313 314 314 314 314 314 313 312 312 313 323 331 338 338 337 341 342 341 342 348 353 354 351 350 348 346
303 303 302 301 301 302 302 302 303 304 304 305 306 307 307 307 309 310 310 311 312 312 314 315 315 313 313 312 314 315 321 330 336 338 342 341 340 342 346 351 349 346 343 342
305 303 303 302 301 301 302 301 302 303 304 304 304 305 305 305 307 308 308 308 309 309 311 313 315 315 316 315 316 315 323 334 335 337 341 341 340 340 340 344 346 343 340 337
307 305 304 303 303 302 302 301 301 301 302 303 305 305 305 305 305 305 307 307 307 308 310 311 312 314 316 317 319 323 331 336 336 338 339 340 340 341 341 342 342 339 336 334
307 307 306 303 303 303 301 301 301 300 300 301 300 301 302 303 304 304 304 305 306 307 307 308 310 312 317 318 320 323 326 329 332 333 334 335 335 337 337 337 336 335 333 332
304 304 306 305 302 300 300 300 301 301 301 299 301 301 301 302 301 301 302 303 305 306 306 305 307 310 313 315 318 322 322 323 325 328 329 331 332 331 331 330 330 330 331 327
304 303 303 302 300 300 299 299 299 299 299 299 300 300 300 301 302 302 301 300 303 304 305 305 304 305 308 309 310 311 312 316 317 318 320 320 318 319 321 317 317 318 315 318
303 301 302 300 300 300 299 299 299 299 299 299 299 300 300 300 301 301 302 302 300 302 303 304 304 304 303 302 302 302 302 302 303 305 306 306 305 302 302 302 301 304 301 301
301 301 301 300 300 299 299 299 299 299 299 300 300 299 300 300 300 301 301 301 301 299 300 301 301 301 302 302 302 301 301 300 300 300 300 300 300 300 299 297 297 298 298 298
301 301 300 300 300 299 299 299 300 299 299 298 300 299 299 300 300 300 301 301 301 300 299 298 299 301 301 300 300 300 300 299 299 299 299 298 298 298 299 298 297 294 293 294

GFSNGP_850_thetae_054.txt.gz
Theta_e
311 311 310 312 314 317 319 324 328 330 332 334 331 330 331 331 332 334 333 332 337 342 346 348 351 352 352 352 352 350 350 351 349 342 341 341 342 343 344 344 345 345 345 345
310 310 309 309 312 315 317 319 322 326 328 331 331 334 337 334 339 340 339 342 339 339 345 347 350 353 354 353 352 351 351 350 351 347 344 343 343 344 345 345 346 346 345 345
310 309 309 312 313 317 318 319 321 325 327 331 332 335 341 341 341 341 342 344 344 346 343 342 347 351 353 353 352 352 352 351 350 347 345 345 345 346 346 346 346 345 344 345
310 310 309 310 312 317 319 320 321 323 325 329 332 336 343 339 339 339 340 341 344 346 346 348 342 345 351 354 353 353 353 351 348 347 347 347 346 346 346 346 346 345 344 344
310 310 309 313 322 323 323 323 323 325 326 328 330 338 344 337 337 339 340 341 343 345 347 349 350 342 346 351 354 355 353 350 347 346 346 347 347 347 347 347 347 346 345 344
310 310 313 317 314 313 320 328 321 321 325 328 333 339 338 335 337 339 341 344 346 348 350 351 351 342 345 350 352 354 352 349 351 351 346 347 347 347 347 347 346 346 346 345
312 311 313 313 310 309 325 325 316 318 321 326 335 331 329 327 330 334 341 345 349 353 352 349 348 342 345 350 352 352 355 355 355 351 346 347 347 347 347 347 348 346 348 346
312 313 315 310 308 316 316 317 316 316 317 318 321 321 321 321 322 330 342 348 352 353 350 347 347 346 350 352 353 355 355 355 354 349 350 355 348 348 351 349 348 350 347 348
313 314 311 310 309 309 315 316 317 316 316 315 316 317 317 319 320 325 335 346 352 354 354 352 351 351 353 353 355 356 356 356 357 355 351 355 352 352 356 355 358 357 358 357
311 313 311 310 310 309 313 316 317 316 315 316 316 316 316 317 319 322 324 335 346 350 352 355 354 355 356 357 357 357 358 358 359 358 358 357 358 359 358 359 359 358 359 359
309 309 308 310 309 310 313 315 316 315 314 315 315 316 314 316 319 322 321 321 336 344 347 348 348 350 355 358 357 358 359 359 360 359 358 359 359 360 360 359 359 360 359 360
310 306 309 309 309 309 312 314 316 315 315 315 315 316 314 314 320 322 324 322 321 328 339 340 340 341 343 352 357 357 357 356 357 357 360 359 360 359 359 359 359 359 360 360
305 306 307 306 307 308 309 312 313 313 314 315 314 315 315 314 321 324 324 324 324 325 322 328 337 340 338 342 347 353 356 359 359 357 358 359 358 356 347 347 354 358 357 359
305 305 307 307 306 307 308 310 310 313 314 315 313 314 316 315 320 322 321 322 323 323 322 319 320 329 338 338 342 348 344 350 356 353 342 341 337 337 336 340 349 356 354 355
305 303 306 306 306 306 308 308 308 309 311 313 314 316 316 321 319 317 317 319 320 321 320 320 317 314 321 337 338 344 347 348 350 346 334 335 336 335 337 337 353 357 356 355
304 303 303 304 305 304 305 306 306 305 308 309 311 312 313 314 318 318 316 315 318 320 320 316 315 313 313 322 335 337 342 342 347 351 347 332 335 332 341 349 355 356 352 352
305 304 303 303 304 304 303 303 303 304 304 306 307 309 310 311 312 311 313 314 315 316 315 315 317 317 314 313 319 329 335 341 343 346 349 350 351 347 349 353 354 356 354 356
306 305 304 303 303 303 304 303 304 304 304 305 307 308 309 309 310 309 310 310 311 313 314 316 318 318 317 316 314 316 327 334 340 343 346 343 345 354 351 350 352 353 354 356
307 306 305 304 304 304 304 304 303 304 304 304 305 306 307 308 309 308 308 308 309 309 312 314 315 316 317 317 318 314 325 328 333 339 344 343 341 340 347 347 344 350 349 344
308 307 306 306 305 305 304 304 304 302 302 303 304 305 305 306 306 308 308 307 306 306 308 310 312 313 314 316 317 316 324 329 333 336 339 340 341 339 338 343 344 345 344 343
308 308 307 305 305 305 304 304 304 303 304 303 303 302 303 303 304 305 306 307 307 307 307 308 310 313 313 315 316 317 324 327 330 335 336 337 337 336 337 339 338 339 339 340
307 307 307 305 304 304 304 304 304 304 304 303 304 304 304 304 304 303 303 304 305 306 306 305 307 309 311 314 317 319 321 322 327 331 335 335 336 334 333 336 336 334 332 332
306 306 306 305 304 304 302 302 302 303 303 303 303 304 304 304 304 303 302 303 304 304 304 303 304 307 310 312 315 318 320 322 323 324 328 329 330 330 330 329 329 328 327 327
306 306 306 305 304 302 302 302 301 302 302 302 302 303 303 303 303 303 303 301 303 303 302 302 303 304 305 305 307 309 309 310 312 315 317 323 323 320 321 322 317 319 318 319
305 304 305 304 303 302 301 301 301 301 302 302 301 302 302 302 303 302 302 301 301 302 302 302 302 302 302 302 301 301 302 302 302 304 304 305 308 309 308 308 308 308 305 304
304 304 304 302 302 301 301 301 301 301 301 301 301 302 302 302 302 302 302 301 300 300 300 300 301 301 302 302 302 302 301 301 301 300 299 299 299 299 299 300 301 301 302 298
303 302 303 302 302 301 301 301 301 301 301 301 301 301 302 302 301 302 302 301 301 300 300 299 299 298 299 299 298 298 298 299 299 300 299 300 299 299 299 298 296 297 296 296

GFSNGP_850_thetae_057.txt.gz
Theta_e
313 314 314 315 318 321 325 327 331 331 331 333 333 333 333 333 333 334 336 338 340 343 347 350 351 353 354 353 352 352 351 352 351 352 353 353 350 350 344 343 339 340 343 345
314 313 313 313 314 315 319 321 324 326 329 330 330 333 334 332 334 335 336 336 336 342 345 348 350 353 355 354 354 353 352 351 351 353 354 352 352 350 349 344 340 341 343 344
315 313 313 313 312 313 314 317 319 323 326 328 330 332 334 335 337 339 340 340 342 343 341 344 347 351 354 356 354 354 353 353 352 353 352 350 351 350 346 339 339 342 343 344
318 314 313 313 313 313 314 315 319 321 323 325 326 329 332 343 342 342 342 343 344 345 345 345 345 348 351 355 356 355 355 355 354 355 354 350 351 347 344 340 341 342 344 345
316 315 314 312 316 321 318 320 321 321 322 322 323 326 330 334 342 343 344 345 345 345 346 347 348 345 346 351 357 356 357 355 357 355 357 356 351 348 346 343 343 344 345 345
314 314 314 313 318 314 318 323 322 326 323 323 325 330 331 337 338 339 342 345 347 348 349 350 351 350 349 347 353 358 357 357 357 357 358 358 355 354 348 345 345 346 346 345
315 315 312 317 315 313 321 323 315 321 324 326 329 332 330 328 330 333 337 344 346 352 353 354 355 353 352 347 350 354 358 359 359 359 359 359 359 358 357 350 357 351 355 351
315 314 314 314 314 314 314 310 310 318 320 322 324 323 323 324 324 327 333 340 350 355 356 355 355 355 354 352 347 354 357 359 360 360 359 361 359 359 360 359 357 359 357 359
313 313 315 313 312 313 311 309 309 318 318 319 320 319 319 320 323 325 330 339 348 354 359 357 352 350 352 350 350 355 356 359 360 360 360 360 360 359 361 360 360 360 361 360
313 313 311 309 310 310 309 308 311 317 317 316 318 319 317 319 323 325 325 331 339 347 352 353 355 356 354 357 356 357 358 359 359 360 360 360 362 363 362 361 361 360 360 359
310 309 307 309 309 307 308 311 315 316 316 316 316 318 317 319 324 325 325 325 327 334 340 346 353 357 357 358 357 359 359 359 359 360 361 360 361 361 361 360 360 359 357 355
310 307 307 308 307 306 308 313 314 314 315 315 316 317 317 322 325 324 324 324 322 325 332 337 344 349 354 356 358 358 359 359 361 360 361 361 361 360 361 361 360 359 359 359
306 305 306 307 306 305 308 311 312 314 314 315 315 317 316 321 323 322 322 323 323 322 323 325 334 344 349 352 357 358 359 360 361 361 362 361 361 360 360 360 359 360 359 359
304 304 306 306 305 305 307 308 309 311 313 314 315 317 320 321 318 318 320 321 323 323 318 318 321 336 343 346 346 353 359 359 360 359 361 361 361 360 360 359 356 352 350 351
306 305 305 307 305 305 305 306 307 307 309 310 314 315 317 319 319 318 317 319 322 322 321 319 316 318 335 339 341 345 351 354 357 359 361 361 357 343 344 343 341 338 339 343
306 305 305 305 305 305 304 304 305 306 307 308 309 311 313 314 315 315 315 316 319 319 318 318 319 317 318 330 337 340 343 349 352 349 347 345 346 345 344 337 335 336 337 341
306 306 305 305 305 306 305 304 304 304 305 306 307 309 310 310 310 310 311 312 313 314 314 315 318 320 321 320 324 333 338 343 347 351 347 341 345 336 338 336 343 339 335 343
307 307 306 306 306 305 306 304 305 305 304 304 305 306 307 307 308 308 308 308 309 310 311 312 315 317 319 321 320 321 328 334 340 345 346 350 350 342 337 343 350 353 350 356
308 307 307 306 306 306 306 306 304 303 303 304 305 306 306 306 307 307 307 307 307 307 309 308 312 313 316 317 320 322 319 329 333 341 342 345 346 347 346 346 349 350 353 353
310 308 307 306 306 306 306 305 305 306 305 306 307 308 308 307 306 306 306 306 306 306 306 308 310 310 313 316 317 321 325 325 333 338 340 341 343 340 339 344 344 345 342 340
309 309 308 306 306 306 306 306 305 305 305 305 306 305 305 304 305 303 304 304 305 305 306 307 309 311 313 315 316 321 327 330 328 334 334 334 336 340 338 337 336 335 336 335
308 308 308 306 306 305 304 305 305 305 305 305 305 306 305 305 305 304 303 303 303 303 303 304 306 307 311 315 317 319 322 324 323 327 332 333 334 336 337 336 338 338 329 326
308 308 307 307 306 305 304 304 304 304 305 305 305 305 305 305 304 304 302 302 302 302 302 301 302 305 308 312 314 316 318 320 322 323 326 329 330 329 328 329 333 335 332 327
308 308 307 306 305 305 304 304 304 304 304 304 305 305 305 304 304 303 302 302 302 302 302 302 302 302 303 304 306 307 309 311 313 314 315 317 318 318 318 318 318 319 321 324
308 307 307 305 305 304 304 304 304 304 304 304 304 304 305 304 304 303 303 302 302 302 301 301 300 300 300 301 301 301 302 303 304 305 305 306 306 307 307 307 308 309 309 311
308 306 306 304 303 303 303 303 303 303 303 304 303 304 304 304 303 303 302 302 302 302 302 302 301 301 301 301 300 299 299 300 300 300 301 301 301 301 300 301 301 301 301 301
306 305 306 305 304 303 302 302 302 302 301 302 303 304 304 303 303 303 302 302 302 302 301 301 301 301 301 301 301 301 301 299 299 299 298 298 298 298 297 296 296 296 298 299

GFSNGP_850_thetae_060.txt.gz
Theta_e
314 314 315 316 317 318 320 323 327 326 328 331 334 335 334 335 335 333 333 337 338 342 348 353 354 353 353 353 353 353 353 355 356 356 355 354 350 341 337 338 336 335 338 340
315 316 315 315 316 316 317 320 323 325 329 330 329 332 332 335 336 343 335 337 338 339 342 350 355 354 354 353 354 353 353 354 355 356 357 355 354 351 346 340 337 336 337 338
318 316 316 316 315 315 316 317 320 324 326 327 327 330 333 333 335 341 346 342 344 345 345 350 353 356 356 355 354 354 353 354 354 355 356 356 355 354 354 354 347 341 337 337
318 316 319 318 316 316 315 316 316 317 319 321 322 324 326 328 333 335 345 346 346 346 346 347 343 342 358 357 356 355 355 354 354 354 354 355 356 356 356 356 355 352 346 339
316 316 315 315 316 319 321 317 317 323 323 324 321 321 323 334 337 337 341 341 346 347 347 347 345 347 350 355 357 355 356 355 355 355 354 354 354 354 356 357 356 355 349 341
316 314 314 314 317 316 317 319 321 320 321 322 326 328 328 330 332 333 332 336 342 347 349 351 346 343 349 350 359 358 357 356 357 357 355 355 355 353 354 356 353 352 347 342
316 316 314 316 315 315 317 316 317 317 317 317 324 326 325 327 327 328 330 334 335 339 345 349 355 352 351 347 351 358 358 356 359 359 358 357 358 356 355 355 357 355 354 351
316 315 316 316 315 315 317 315 315 314 315 315 318 321 323 323 324 326 328 331 334 339 349 358 361 360 356 353 347 351 359 359 357 360 360 359 360 360 359 358 358 360 357 358
313 314 315 314 314 313 313 313 313 312 313 315 315 319 321 321 322 325 326 329 331 338 351 357 359 358 362 358 354 350 353 359 359 361 361 362 361 362 361 360 360 360 361 360
311 314 310 310 312 311 310 311 311 312 312 314 316 317 319 320 321 325 326 326 328 336 347 350 352 353 357 360 358 357 351 360 359 361 363 362 361 363 361 361 361 363 362 363
310 309 307 310 308 308 308 308 310 311 314 315 317 317 318 319 322 323 324 323 322 327 335 340 342 350 355 358 362 355 352 361 361 362 363 362 360 364 362 362 362 361 363 360
310 307 306 306 307 306 306 306 309 313 314 316 317 317 318 318 323 323 322 323 322 320 325 332 333 344 354 357 359 363 364 364 363 363 363 363 360 365 364 362 363 362 359 362
305 303 305 305 305 305 305 307 309 310 312 316 315 316 317 317 321 321 321 322 324 321 317 321 327 332 345 353 357 359 361 362 362 361 362 362 362 363 364 365 363 362 361 360
307 305 305 306 305 304 305 305 306 307 310 312 315 316 318 318 319 317 319 321 323 322 318 317 319 328 338 343 348 356 358 359 360 361 360 362 361 364 362 362 362 361 360 360
307 307 306 305 305 304 303 304 305 306 307 309 312 315 315 315 317 317 317 318 321 321 319 318 319 325 329 336 337 343 350 356 357 359 361 360 358 362 361 361 360 359 359 359
307 307 307 307 307 305 303 303 304 304 305 307 308 311 312 311 313 313 314 315 315 316 317 317 318 320 322 325 330 337 345 348 349 353 356 357 358 358 361 361 359 356 348 342
308 308 307 307 307 306 305 303 303 303 303 305 306 308 309 309 309 309 309 310 310 310 311 313 315 317 322 322 328 334 330 343 347 348 346 346 349 346 347 347 347 344 338 339
309 308 307 307 307 307 306 306 304 303 304 305 304 306 307 307 308 308 308 308 308 308 309 310 312 316 318 322 323 329 332 333 343 346 348 346 344 345 346 342 342 344 344 341
310 308 308 308 307 307 307 307 306 306 306 307 307 306 305 305 306 306 307 308 308 306 306 307 312 314 317 319 322 321 326 331 338 342 344 345 347 347 348 345 343 349 347 351
311 310 309 308 307 307 307 307 307 307 306 307 306 305 306 304 305 305 305 304 305 305 307 307 310 313 314 316 318 323 327 326 328 338 339 341 339 341 342 343 341 345 344 343
311 311 310 308 307 306 306 306 307 307 306 306 307 306 306 305 304 304 303 303 303 303 304 305 309 311 314 315 317 324 328 329 329 323 333 337 338 339 338 337 336 336 335 337
310 309 309 308 307 306 306 306 306 306 306 306 307 307 306 305 304 303 302 302 302 301 302 302 306 308 312 315 317 318 323 325 326 326 325 325 327 332 334 335 335 335 333 332
310 310 309 308 307 306 305 306 305 305 306 306 306 306 305 304 304 303 303 302 302 303 302 302 302 305 308 310 312 314 318 319 320 322 323 325 326 326 326 327 329 327 328 328
311 309 309 307 307 307 306 306 306 306 306 306 306 305 305 304 303 303 302 302 301 301 301 301 301 302 302 303 304 307 309 310 311 312 313 314 315 317 317 317 318 316 317 319
309 308 307 308 307 305 305 305 305 305 305 305 305 306 305 304 303 303 302 302 302 302 302 302 302 301 301 301 300 301 301 303 305 306 305 305 306 306 307 308 309 309 309 310
310 308 307 307 305 305 304 304 305 303 303 305 305 305 305 304 304 303 303 303 302 302 302 302 302 302 301 302 301 300 299 300 301 301 300 300 301 301 302 302 303 303 304 305
310 307 307 307 305 305 303 303 304 304 302 303 305 305 305 304 304 303 303 302 303 302 302 302 302 301 301 301 300 300 300 300 300 299 299 299 298 297 296 296 297 297 298 299

GFSNGP_850_thetae_063.txt.gz
Theta_e
311 312 313 313 313 314 314 315 317 318 320 324 326 326 329 333 338 340 345 347 344 341 339 341 343 348 351 351 352 352 354 353 352 351 350 350 345 336 331 328 328 329 336 348
315 313 313 314 315 316 315 315 315 316 318 322 323 323 327 329 334 339 338 345 347 344 342 340 348 349 348 351 353 352 353 355 355 354 353 352 351 347 340 336 331 330 331 332
315 315 315 316 315 315 315 314 314 314 315 320 325 322 326 338 339 337 334 335 337 345 348 347 343 341 340 352 353 353 353 354 355 355 355 354 353 353 349 345 340 336 335 336
314 314 316 314 314 317 317 318 317 316 322 321 322 326 328 330 332 333 333 332 332 335 345 345 346 349 343 349 354 354 354 353 354 354 353 354 354 354 353 351 348 343 342 339
314 313 313 313 313 317 316 319 319 320 320 319 322 325 326 325 327 328 329 331 331 329 334 338 347 350 351 347 344 354 356 354 353 353 353 354 354 354 354 353 351 349 347 344
315 314 313 313 316 315 315 316 317 316 317 318 320 324 322 322 323 324 327 330 332 330 333 331 343 350 351 342 344 351 356 357 354 354 354 353 353 353 354 354 353 352 352 351
315 315 313 314 315 314 317 316 316 315 314 315 316 318 319 321 321 322 325 328 331 334 336 339 349 355 346 350 345 350 357 358 356 355 354 354 354 353 353 354 354 355 353 353
315 315 315 312 316 316 314 313 313 314 313 313 314 315 318 319 321 320 326 327 329 334 335 337 347 351 354 355 347 355 349 359 358 357 357 356 355 354 354 354 354 354 355 355
313 314 310 309 310 311 310 310 310 310 310 311 312 313 316 318 319 320 324 325 328 330 336 338 343 348 351 355 356 353 357 352 358 358 357 358 358 357 355 356 355 355 356 356
308 311 308 307 309 308 307 307 308 308 309 310 313 314 316 317 318 319 321 324 323 326 330 334 336 343 345 350 354 358 358 358 352 361 359 359 359 359 358 357 357 358 357 357
308 308 305 308 306 307 306 305 306 307 309 311 313 316 316 317 319 320 322 323 322 323 323 330 332 335 343 349 353 355 358 359 360 353 362 359 360 361 360 359 358 359 358 358
308 305 305 305 305 306 305 305 305 307 308 310 312 314 317 317 318 320 322 321 321 322 323 324 328 330 335 345 352 355 358 357 359 358 359 361 360 361 362 362 361 360 359 359
306 306 305 306 305 305 304 305 305 306 307 308 312 314 316 317 317 320 319 321 322 321 322 319 321 323 330 336 347 353 356 362 365 365 364 364 363 362 362 364 361 363 363 362
308 306 307 306 305 305 304 304 304 305 305 308 309 313 315 317 317 319 318 318 320 321 321 319 318 320 325 328 340 345 351 356 360 364 365 364 362 362 361 360 361 365 363 363
308 308 307 307 306 305 304 303 303 303 303 307 309 311 312 313 314 315 316 316 316 317 317 318 318 319 321 327 335 340 344 351 355 360 360 360 360 360 359 360 359 359 362 361
308 307 307 307 307 306 304 305 303 303 303 304 307 308 309 309 309 310 311 312 313 314 312 315 315 316 319 324 329 335 338 342 348 353 357 360 357 356 356 361 361 360 363 359
309 309 308 307 307 307 306 305 305 304 304 304 304 305 307 307 308 308 308 309 309 308 309 311 312 313 317 320 323 330 334 340 346 350 352 355 356 354 357 358 360 360 359 356
309 308 308 308 307 307 307 306 306 306 306 307 305 305 304 305 305 305 306 307 309 310 310 310 311 312 314 316 320 327 333 337 343 346 348 349 348 348 349 352 352 352 346 342
309 309 308 308 308 308 307 307 307 307 306 305 305 305 304 303 304 303 304 305 306 308 309 310 311 312 313 314 319 325 330 335 338 342 344 346 348 347 345 344 343 344 343 344
311 310 309 308 308 308 307 306 307 306 306 306 306 305 305 303 303 303 302 302 302 302 305 308 310 312 313 315 316 323 327 330 333 338 341 340 341 343 344 343 342 343 344 343
311 311 310 309 307 306 307 306 307 306 307 306 307 305 304 303 303 303 301 301 301 302 303 305 310 313 314 315 316 321 325 327 326 331 332 333 337 338 340 340 338 341 341 340
310 310 309 308 307 306 306 306 306 306 306 306 306 305 304 304 303 304 302 301 302 302 301 301 304 307 308 313 315 316 319 322 322 322 324 326 328 331 333 333 333 332 332 330
308 308 309 308 307 306 306 306 306 306 306 306 306 305 303 302 302 303 302 302 302 302 301 301 300 302 304 307 309 309 312 315 316 318 319 320 322 324 325 325 325 325 326 325
310 310 309 309 307 307 306 306 306 307 306 306 305 305 304 302 302 302 302 302 302 302 302 301 301 300 300 302 303 303 305 307 309 311 312 313 313 313 314 314 316 318 319 319
311 308 307 307 307 306 305 306 305 306 305 306 305 305 304 303 303 302 302 302 302 303 302 301 301 300 300 300 299 299 299 300 302 304 305 307 309 309 308 309 309 310 310 311
310 309 306 307 306 304 304 305 303 303 305 306 305 305 304 304 303 303 303 302 302 302 302 301 301 300 300 300 300 299 299 299 300 299 299 298 300 302 303 304 304 305 306 306
306 305 307 308 306 304 303 304 304 303 302 305 306 305 305 304 303 303 303 302 303 302 302 301 301 300 300 300 300 300 300 299 299 298 298 298 298 298 299 299 299 299 299 300

GFSNGP_850_thetae_066.txt.gz
Theta_e
309 311 311 311 312 313 312 312 312 313 314 316 322 330 338 339 339 341 342 344 345 344 344 344 342 344 348 348 348 348 348 348 347 347 346 346 346 338 327 328 338 343 343 346
313 313 313 314 314 314 314 314 314 312 313 320 326 330 333 334 334 335 335 334 340 342 343 343 344 339 341 345 348 349 350 350 349 349 348 348 347 347 346 333 327 329 342 340
313 312 313 313 313 314 314 317 319 314 319 319 321 325 328 327 328 329 332 334 331 332 332 336 344 345 344 345 350 350 350 351 351 351 351 350 350 349 348 347 342 331 328 329
310 311 314 310 310 312 318 318 318 319 318 318 318 321 321 324 324 324 328 328 330 330 328 331 333 345 347 345 344 351 351 351 351 352 352 352 352 352 352 350 347 344 336 332
311 311 311 312 311 314 315 317 315 315 314 316 314 323 321 320 321 321 323 326 328 332 333 334 343 347 348 346 347 345 353 352 352 352 353 353 353 353 353 353 351 348 344 341
312 312 313 311 313 314 313 315 314 314 313 313 315 317 318 314 318 320 321 324 326 329 332 332 337 340 346 346 339 338 347 352 353 353 353 354 353 353 353 353 353 350 348 347
311 312 314 312 312 314 315 312 311 311 311 311 312 314 313 311 312 317 320 321 323 326 329 331 332 341 346 341 346 341 339 342 345 350 354 355 354 354 353 353 353 353 352 350
313 312 313 310 312 314 311 309 309 309 308 308 309 310 310 311 312 315 319 319 322 323 326 328 330 326 331 343 342 340 346 348 348 350 356 357 356 355 354 353 354 354 353 353
309 314 310 308 307 309 307 307 307 307 307 307 308 309 310 313 314 316 316 318 319 322 324 326 329 329 330 334 339 335 336 341 343 351 355 357 358 357 355 355 355 354 354 353
305 308 308 306 306 307 306 306 306 306 306 306 307 309 311 313 315 316 317 317 320 321 323 324 326 330 331 332 338 337 331 335 336 344 352 357 358 358 357 356 355 355 355 354
304 305 305 307 307 305 305 306 306 305 305 305 308 309 311 312 314 316 317 318 320 322 322 322 323 325 330 334 337 340 334 335 339 346 349 353 357 359 359 358 357 356 356 355
303 305 305 305 305 305 304 305 304 305 305 305 307 307 309 311 313 316 316 319 321 321 323 321 321 323 325 328 334 335 339 343 350 351 352 359 357 359 360 360 359 359 358 357
307 307 306 305 306 305 305 305 304 305 304 306 306 308 309 311 313 315 317 319 320 321 320 320 321 321 320 323 329 335 338 339 346 353 359 359 360 360 359 361 361 360 360 359
309 308 307 306 306 306 305 305 305 304 304 305 306 308 310 312 315 315 316 318 318 319 318 319 320 320 318 320 325 332 335 340 342 347 354 360 362 362 361 360 361 361 361 361
308 308 307 307 307 307 306 305 303 303 303 304 307 308 309 309 309 311 313 315 316 317 316 316 317 317 317 318 321 327 333 338 340 344 349 353 359 362 363 363 362 361 360 361
309 308 308 307 307 307 307 305 305 305 305 303 304 305 306 306 306 307 307 309 310 310 312 311 313 314 316 317 319 322 330 334 336 340 344 347 352 354 356 358 359 360 360 358
308 308 308 307 307 307 306 306 306 306 306 304 303 304 304 304 305 305 305 306 307 308 309 310 311 313 314 315 318 320 326 332 336 340 344 347 345 349 354 355 355 357 357 355
309 309 308 308 308 308 307 307 306 306 305 306 305 303 303 303 303 303 303 304 305 307 308 310 312 313 315 314 316 318 322 328 333 338 342 345 344 344 348 350 353 353 355 356
309 309 309 308 308 308 307 307 306 306 306 306 305 305 303 303 303 302 302 303 304 305 305 309 311 312 314 315 315 318 321 326 329 334 342 343 345 347 347 348 353 354 353 350
311 311 309 309 308 307 308 306 306 306 306 306 306 305 303 303 302 301 301 301 301 301 302 303 308 311 314 315 316 316 320 324 326 328 331 336 340 343 344 343 343 341 340 340
311 311 310 309 307 306 306 306 306 306 306 307 306 304 304 303 303 302 301 301 301 301 300 302 303 306 309 313 316 318 323 323 325 327 327 326 327 337 341 343 343 343 342 341
310 311 307 307 308 306 306 306 306 306 306 306 306 303 302 303 301 301 301 300 300 301 300 300 301 303 304 308 313 316 319 320 322 323 326 326 326 329 333 331 333 338 335 335
309 309 307 307 308 307 306 306 306 306 306 306 305 304 302 301 302 302 301 301 301 301 300 300 300 300 301 303 307 311 314 316 318 320 321 323 322 323 323 325 325 325 324 324
309 309 308 308 308 306 306 306 306 306 305 305 305 304 303 302 302 302 302 302 302 301 301 300 299 299 300 300 300 303 305 307 310 312 313 315 313 317 317 317 318 319 320 321
309 309 308 307 307 305 306 306 305 305 305 306 305 304 304 303 302 302 302 302 302 302 301 300 300 300 299 299 298 299 300 300 301 304 306 306 308 307 309 311 311 312 312 313
308 308 307 306 306 305 305 305 305 305 305 305 305 304 304 303 303 303 303 302 302 301 301 300 300 300 300 299 299 298 298 298 299 299 300 300 301 302 303 304 305 306 305 305
305 305 306 304 303 305 303 303 304 304 305 305 305 304 304 303 303 303 302 302 302 301 301 300 300 300 300 299 299 299 299 298 298 298 297 297 298 299 299 298 298 299 300 301

GFSNGP_850_thetae_069.txt.gz
Theta_e
310 311 312 313 313 313 313 311 311 311 312 320 321 328 329 328 331 334 335 336 336 339 342 343 343 343 344 346 346 346 346 345 345 345 345 344 344 344 338 329 334 341 345 347
311 312 312 312 312 312 313 313 313 315 314 317 321 325 325 325 326 329 328 330 330 331 335 338 344 344 343 340 345 347 347 347 347 346 346 345 345 345 345 344 332 328 337 343
312 310 310 310 311 311 317 318 318 315 318 317 317 320 320 322 323 324 325 326 331 332 331 338 337 344 345 343 342 344 346 348 348 348 348 348 348 347 346 346 346 344 332 327
309 309 310 308 309 312 317 316 315 315 315 315 315 317 316 318 320 321 323 324 326 329 334 335 338 345 346 346 343 343 348 348 348 349 349 349 349 349 349 348 348 347 346 345
310 309 309 311 311 312 314 316 314 314 313 313 312 317 318 312 311 317 320 321 321 324 328 333 332 339 347 350 346 344 347 351 352 351 351 351 351 351 351 351 351 350 349 348
308 310 313 309 312 312 312 315 312 312 311 311 311 315 318 312 308 310 315 318 318 319 323 327 330 329 329 344 346 342 341 345 352 354 355 355 354 353 353 353 353 352 352 351
308 308 310 311 309 312 314 311 310 310 309 308 308 310 309 309 308 310 314 317 318 319 319 323 326 326 325 325 338 340 341 345 343 349 348 350 350 350 353 354 354 353 353 353
311 310 310 309 309 313 309 309 308 307 307 307 307 307 308 308 309 309 311 314 316 317 317 319 324 324 325 325 325 329 340 341 344 347 346 346 347 349 353 354 355 355 354 353
309 308 309 308 308 306 307 307 306 306 306 306 306 306 306 308 309 310 311 313 315 317 319 321 322 323 324 326 328 327 327 337 338 337 342 344 348 349 352 355 355 355 355 355
304 304 307 306 306 306 306 306 306 305 306 305 305 305 305 306 309 311 311 313 316 318 318 319 322 322 323 323 327 329 330 328 327 335 337 338 342 348 352 355 355 355 355 355
301 303 305 306 306 305 305 305 304 304 304 304 304 304 305 308 308 308 310 314 316 317 319 321 321 321 322 323 324 326 328 329 328 326 330 343 339 342 348 352 355 356 356 355
301 304 305 305 305 306 305 305 305 304 305 305 304 304 305 306 307 307 309 312 316 316 320 319 322 321 321 321 322 323 325 328 330 328 326 337 347 343 350 354 352 354 357 357
306 307 307 307 307 306 306 305 305 305 305 304 304 305 305 305 306 308 310 312 315 316 318 318 319 319 320 320 321 322 324 326 330 330 329 334 343 351 352 355 358 358 358 357
307 308 308 308 306 306 306 306 305 305 304 304 305 306 308 310 310 310 314 315 316 315 316 318 318 318 319 319 319 320 321 323 326 330 329 331 339 345 353 358 359 357 359 359
308 309 308 307 307 307 307 307 305 305 305 304 304 305 305 307 307 307 308 310 311 312 314 317 316 316 316 317 318 318 319 321 324 330 332 331 337 343 347 354 360 356 355 357
309 309 308 307 307 307 307 307 306 306 306 305 304 304 304 304 304 304 305 306 307 307 309 311 313 314 315 316 317 318 319 320 323 328 332 333 337 338 343 344 352 359 357 356
308 308 308 308 307 307 307 307 306 306 306 306 304 303 303 303 303 303 303 304 305 305 306 307 309 311 312 313 315 316 317 319 320 325 331 334 336 340 342 345 346 349 354 355
309 309 308 308 307 307 308 307 307 306 306 306 305 305 303 303 302 301 302 302 303 304 304 305 307 307 311 313 314 315 315 317 319 324 329 335 336 338 338 340 344 345 348 352
310 310 309 308 308 308 307 307 307 305 306 306 306 306 303 302 301 301 300 301 301 301 302 304 304 306 310 312 314 315 316 318 322 326 330 333 335 338 340 341 342 343 345 348
311 310 309 309 309 309 308 306 306 306 306 306 306 306 304 302 301 300 300 300 300 300 300 301 302 304 306 310 313 315 317 320 324 327 328 332 331 334 338 342 341 344 345 346
311 311 310 309 308 308 306 306 306 306 306 306 306 304 303 302 301 301 300 300 300 300 299 300 300 301 304 306 310 314 317 319 322 325 327 322 323 328 331 336 339 340 342 340
311 311 310 310 308 308 307 306 306 306 306 306 305 302 302 301 301 301 301 300 300 300 300 299 299 300 301 304 306 309 311 314 317 321 323 325 321 323 323 319 331 332 338 338
309 309 309 308 307 307 307 306 306 306 306 306 304 302 301 302 302 302 302 302 301 300 300 299 299 299 300 302 303 304 305 307 310 315 316 317 315 320 321 322 320 318 320 332
309 309 308 308 308 307 307 306 306 306 305 305 304 303 302 302 302 302 303 303 302 301 300 299 299 298 299 300 300 301 302 302 304 307 309 312 308 312 314 314 315 316 314 315
307 307 307 307 307 306 305 306 305 306 305 305 305 304 303 302 303 302 302 302 301 301 300 299 299 298 298 298 298 299 300 300 301 303 306 308 305 304 305 307 306 309 308 305
307 308 308 306 306 306 305 305 305 305 305 304 304 304 304 303 303 303 302 301 301 300 300 300 300 299 299 298 298 297 297 297 299 299 299 300 302 301 301 303 302 302 302 301
305 306 306 305 305 305 305 305 305 304 305 304 304 304 304 303 303 303 302 301 301 300 300 300 299 299 299 299 298 297 297 296 296 295 295 297 298 296 297 299 300 300 301 301

GFSNGP_850_thetae_072.txt.gz
Theta_e
310 311 311 312 312 312 312 310 311 309 316 319 321 324 323 323 324 326 327 331 333 336 339 343 343 344 344 345 345 345 344 344 344 343 343 343 343 343 342 341 332 333 339 342
311 311 311 311 311 311 311 312 310 312 317 316 319 321 320 320 321 322 324 325 327 333 336 338 342 344 343 342 344 345 346 345 345 345 344 344 344 343 343 343 343 336 330 335
310 309 309 311 310 311 317 317 318 316 317 315 315 318 315 316 317 318 319 320 322 324 330 334 340 342 344 344 342 343 345 346 346 346 346 346 346 345 345 345 344 344 343 333
308 307 307 306 308 310 316 316 315 314 314 313 313 312 312 309 309 310 313 316 317 319 323 327 333 338 345 347 346 344 343 344 346 346 347 347 348 348 347 347 346 345 345 345
309 307 307 311 312 314 315 314 313 313 312 312 312 313 316 316 311 308 309 311 314 317 320 321 326 329 329 344 347 345 344 345 347 347 347 347 347 348 349 349 349 349 348 348
306 310 311 308 311 310 311 312 311 311 310 309 310 313 317 316 311 309 308 308 310 312 315 317 320 325 327 327 337 342 342 342 349 349 350 350 350 350 350 350 350 351 351 351
307 306 308 310 309 311 312 310 309 309 309 308 307 309 310 310 310 309 308 309 309 310 311 314 318 322 325 328 328 328 339 341 344 348 349 350 353 353 351 351 351 352 352 353
306 308 310 309 309 312 308 307 308 307 307 307 306 306 307 308 308 308 308 309 309 309 309 311 315 320 322 324 327 327 328 332 338 341 345 346 348 349 349 349 350 350 350 352
306 306 308 308 308 308 306 306 306 306 305 305 305 305 305 305 306 307 307 307 308 309 311 309 312 318 321 321 323 325 327 329 329 327 329 338 341 345 346 348 352 350 351 352
303 302 305 306 305 306 306 306 305 304 304 304 304 304 305 304 304 306 306 307 308 308 310 312 311 314 318 321 321 322 323 326 326 328 329 329 327 340 339 345 351 352 353 354
301 302 304 305 305 305 305 305 305 305 305 305 304 305 304 304 304 304 305 306 307 307 309 312 315 315 316 320 321 320 320 321 323 324 326 329 329 328 338 341 350 352 352 354
303 305 304 305 305 305 305 305 305 305 304 304 305 304 305 305 305 305 305 305 306 307 308 311 314 315 318 318 320 320 320 320 320 321 323 324 329 327 327 340 345 348 351 354
306 305 306 307 307 307 306 306 305 304 304 305 305 305 305 305 308 309 308 308 310 311 310 311 313 316 316 317 318 319 319 319 319 320 320 323 326 327 326 327 343 346 354 354
306 306 307 308 306 306 306 306 305 305 305 305 305 304 305 305 305 307 307 307 309 311 313 313 315 316 315 316 317 317 317 317 318 318 319 320 323 328 328 329 335 342 346 348
307 307 307 308 307 306 306 307 307 306 305 305 304 302 303 303 305 305 305 305 305 306 309 311 313 313 313 314 315 315 316 316 317 318 320 320 322 327 329 328 329 341 345 342
308 307 308 308 307 306 307 307 307 306 305 305 305 304 304 303 303 303 303 303 303 303 304 305 307 309 311 312 312 313 314 315 316 317 319 320 321 326 330 330 331 337 340 343
309 308 309 308 307 307 307 307 307 306 305 305 305 305 304 303 302 302 301 301 302 302 302 302 303 306 307 308 310 311 312 314 315 316 317 318 319 325 332 333 335 339 340 340
309 308 308 308 308 307 307 307 307 307 305 306 306 305 304 302 301 301 301 301 301 301 300 300 301 303 303 306 308 310 311 313 315 315 316 319 321 326 330 332 335 336 337 338
310 309 309 309 308 308 308 307 307 307 306 306 306 306 304 302 301 301 301 301 300 301 301 300 300 300 302 305 306 309 311 312 314 315 318 321 325 327 329 331 334 336 337 339
311 311 311 310 309 309 308 308 307 305 305 306 306 306 304 302 301 301 300 300 300 301 302 299 299 299 300 302 305 308 310 311 313 315 318 322 323 324 326 330 333 333 336 343
310 311 311 311 310 309 308 308 306 305 306 306 306 305 303 301 301 301 301 301 300 300 300 299 299 298 298 299 300 303 307 311 313 315 316 317 320 321 323 327 328 333 334 338
310 309 309 310 309 309 309 308 306 306 306 306 306 303 301 301 302 302 302 302 302 299 299 299 298 298 297 298 298 299 302 306 308 309 308 312 315 316 320 319 319 324 326 331
309 309 309 309 309 308 307 307 306 306 306 306 305 303 301 301 302 302 302 303 303 301 299 299 298 297 297 297 297 297 299 300 301 303 303 308 310 311 314 315 311 313 312 315
308 309 308 308 307 307 307 307 306 306 306 305 305 303 302 302 302 303 302 302 301 301 299 299 299 297 297 296 297 296 297 298 298 299 301 304 305 306 307 311 308 305 309 309
308 307 308 307 307 306 306 306 305 306 305 304 305 304 303 302 303 302 302 301 301 300 300 300 299 298 297 296 296 296 296 297 298 298 300 302 303 303 303 306 305 304 304 305
305 307 307 307 306 306 306 306 305 305 304 303 304 304 304 303 302 302 301 301 301 300 300 299 299 299 298 297 297 296 295 295 296 297 298 298 299 299 300 300 302 304 303 302
305 305 305 304 304 304 305 305 305 304 302 304 304 304 303 303 303 302 301 301 300 300 300 299 299 299 299 298 297 297 296 295 294 294 294 295 297 297 298 299 299 300 301 299

GFSNGP_850_thetae_075.txt.gz
Theta_e
314 314 314 314 314 314 314 315 319 318 321 327 326 326 323 323 324 324 324 326 328 332 337 339 343 343 343 344 343 343 343 343 343 344 343 343 342 342 342 342 341 335 335 338
314 313 313 313 313 313 313 313 314 315 321 322 323 323 321 319 319 318 318 319 321 325 329 334 337 341 343 343 344 345 345 345 345 344 344 344 344 343 343 342 342 342 341 336
315 313 313 312 313 313 315 318 317 317 319 319 319 320 317 314 312 312 313 314 315 318 322 324 328 332 341 344 344 343 344 345 345 345 345 345 344 344 344 344 344 343 343 343
315 312 313 312 313 312 316 318 319 320 319 316 315 314 315 313 314 313 311 310 310 312 315 319 321 326 328 341 345 346 345 342 344 345 346 346 346 346 346 346 346 346 345 344
315 313 312 312 313 315 315 315 317 317 316 315 314 315 316 314 312 312 311 310 309 309 310 311 315 320 325 328 336 342 342 344 344 344 346 345 346 346 347 347 347 348 347 347
315 313 312 313 314 313 314 314 314 315 314 313 313 317 319 312 310 311 311 310 309 309 309 309 310 314 320 324 327 330 339 341 342 345 345 346 347 347 347 347 347 348 349 349
315 315 313 312 312 313 315 316 312 312 312 311 313 312 310 309 309 309 309 309 310 310 309 309 309 310 313 319 322 326 328 333 340 342 346 348 347 348 349 350 350 350 350 350
315 316 315 312 312 315 312 310 309 309 308 308 308 308 308 308 308 308 308 308 308 309 310 309 309 309 311 313 317 321 324 328 331 335 338 343 346 349 352 351 353 353 352 351
315 315 311 310 310 309 308 308 308 307 306 306 306 306 306 307 307 307 307 307 307 308 308 309 308 308 311 316 314 316 320 322 325 329 330 329 332 339 343 345 347 350 351 350
310 310 311 311 309 307 307 307 307 306 306 306 306 306 306 306 307 307 307 307 306 307 308 308 308 308 308 315 316 314 317 320 320 322 326 328 329 329 329 335 340 343 344 351
310 308 307 307 307 307 306 306 306 306 306 305 306 306 306 306 306 306 307 308 308 308 308 308 308 307 308 311 316 316 315 317 320 320 320 322 324 327 329 329 332 341 343 349
314 310 309 307 306 305 306 306 306 306 305 305 305 306 306 305 306 305 306 307 308 307 308 310 310 311 311 313 315 315 316 316 318 319 319 319 319 321 323 324 326 328 331 342
309 305 307 306 306 306 307 306 306 306 306 306 306 306 305 304 304 305 305 305 306 306 306 307 308 312 314 314 314 315 315 316 316 317 317 317 318 319 320 320 320 324 326 333
306 305 306 307 308 306 306 306 306 306 305 306 306 305 305 305 304 304 303 304 304 304 305 305 306 309 309 310 312 314 314 313 315 316 315 316 316 317 318 320 321 320 322 326
306 306 308 307 306 306 306 306 306 307 306 306 306 306 305 304 304 303 303 303 302 302 303 303 304 305 306 306 308 311 311 312 314 314 315 315 315 316 317 319 321 321 321 324
308 306 306 307 309 307 306 306 307 307 306 304 305 305 304 304 303 302 301 302 301 302 301 301 302 303 305 306 306 307 310 311 312 312 313 314 315 316 317 318 320 321 323 329
308 306 307 307 308 308 307 307 307 307 306 305 305 305 304 304 303 302 301 301 301 301 301 301 300 300 302 303 304 305 306 309 310 310 312 313 314 315 317 318 319 321 326 330
308 309 308 309 309 308 307 307 307 306 307 305 306 306 305 304 303 301 300 301 300 301 300 301 299 299 299 300 301 303 305 307 309 310 310 312 314 315 316 318 320 322 326 329
310 309 309 308 308 308 307 307 307 306 306 306 305 306 306 303 302 301 301 300 301 301 300 299 299 298 298 299 300 302 303 304 307 309 309 311 313 315 316 319 322 324 327 330
311 310 310 311 310 309 308 308 307 307 306 305 306 306 306 302 301 302 301 302 301 300 299 299 298 298 297 298 299 299 300 302 305 308 309 310 312 314 318 320 323 324 325 328
310 310 310 310 310 311 309 309 309 308 306 305 306 306 305 301 301 302 302 302 302 303 301 299 298 298 297 297 297 297 297 298 301 305 308 309 310 314 318 320 322 323 323 325
309 309 309 309 309 310 310 309 308 307 306 305 306 305 303 301 302 302 302 302 302 302 301 300 299 297 297 296 295 296 296 296 297 300 303 304 305 309 314 315 315 316 316 319
309 308 308 309 309 309 308 308 308 306 306 306 306 305 302 303 303 303 303 303 301 301 300 300 299 297 296 296 296 295 295 295 296 297 298 299 300 304 307 307 308 308 309 311
308 308 308 308 307 307 307 306 307 306 306 306 305 304 302 303 303 303 303 301 301 300 300 300 300 299 297 296 295 295 295 295 295 295 295 296 297 299 301 300 304 303 304 305
306 305 307 307 306 306 306 306 306 305 305 305 305 304 303 303 302 302 302 301 301 300 300 300 299 299 298 297 296 296 295 295 295 295 295 295 295 296 299 296 300 301 303 302
304 305 305 306 306 305 306 305 304 304 305 304 305 304 304 304 304 303 301 302 301 300 301 300 300 299 299 298 297 296 296 295 294 295 295 295 295 295 297 296 298 299 301 301
304 304 304 303 303 303 303 304 304 304 304 305 304 303 303 303 303 303 302 301 300 300 300 300 300 300 299 298 298 297 297 296 295 294 294 294 295 295 295 297 297 297 298 299

GFSNGP_850_thetae_078.txt.gz
Theta_e
319 318 319 319 318 318 322 324 328 328 335 333 332 330 329 329 328 327 326 326 328 329 330 333 338 340 342 344 346 350 349 349 350 351 349 348 343 341 341 342 342 342 339 337
320 317 317 318 318 317 317 319 322 326 330 328 328 326 324 322 322 321 320 321 323 324 326 328 329 331 340 343 343 344 345 348 351 351 351 351 345 343 346 345 343 342 342 342
319 316 315 316 317 317 318 318 319 323 326 324 326 325 322 320 319 318 317 316 317 318 320 322 325 326 328 337 343 346 347 349 346 347 352 353 354 351 346 344 348 347 343 344
319 316 315 318 317 316 318 320 320 323 323 322 321 320 319 320 320 319 318 316 316 315 316 318 320 322 324 327 333 340 344 347 347 347 347 348 350 353 352 351 350 348 346 345
318 316 316 315 315 316 319 320 319 321 320 319 318 319 320 318 317 316 315 315 315 315 315 317 317 318 322 326 330 329 333 339 342 343 345 347 352 349 353 352 353 352 351 349
316 317 317 318 317 316 316 321 318 318 318 318 318 319 324 317 314 314 314 314 314 314 314 316 316 316 318 321 325 329 328 329 332 339 342 345 345 348 350 350 350 352 354 353
318 318 316 317 315 315 315 322 317 317 317 316 317 317 315 314 314 313 313 313 312 313 314 315 315 315 316 319 321 323 325 324 326 330 337 342 344 347 347 351 351 351 352 352
319 319 319 315 315 317 318 316 315 314 314 314 313 313 312 312 312 312 312 312 312 312 312 313 314 314 315 317 319 321 322 317 319 324 327 330 334 342 345 348 348 349 350 351
317 319 317 314 316 314 313 314 313 312 311 310 311 311 311 311 311 311 311 311 311 311 311 312 313 313 314 314 315 316 321 321 319 315 321 324 327 329 333 342 346 346 346 350
315 314 315 314 313 312 311 311 311 310 310 310 310 310 310 310 310 310 311 311 311 312 312 312 312 313 313 314 314 316 319 320 320 319 319 320 324 327 331 332 333 338 346 347
315 313 311 313 312 311 310 309 309 309 309 308 309 309 310 309 310 309 309 310 310 311 310 308 309 310 312 314 316 315 317 319 319 318 320 320 321 324 324 324 328 329 331 331
315 313 312 312 311 310 310 309 309 309 309 308 308 309 308 308 307 307 307 309 309 308 308 308 308 309 310 309 313 316 317 317 317 317 317 318 319 320 320 319 320 322 326 328
313 312 311 311 310 310 309 309 309 308 308 308 308 308 308 307 306 306 306 307 306 305 305 305 305 306 307 307 308 311 313 313 314 315 316 316 317 319 319 320 318 320 320 321
312 311 311 310 310 310 309 309 308 308 308 308 308 308 307 307 306 305 305 305 305 304 304 304 303 303 303 305 305 307 310 311 312 313 314 315 316 317 318 319 320 319 318 319
310 311 310 311 310 310 309 309 309 309 309 308 308 308 308 307 307 305 305 304 303 303 302 303 304 303 302 302 303 304 305 308 311 312 313 313 313 314 315 316 316 318 319 319
311 309 309 311 311 310 309 309 309 309 309 308 308 308 308 308 307 306 305 304 302 303 303 303 303 301 301 302 301 302 303 305 306 307 310 312 312 313 314 314 314 316 319 320
310 309 309 310 310 310 310 309 309 309 308 308 308 309 309 308 307 306 304 303 302 303 304 304 303 302 301 301 299 299 301 303 303 307 309 310 311 310 311 312 313 315 315 317
309 310 309 309 309 310 310 310 310 309 308 308 308 309 309 309 306 306 304 304 304 304 303 302 302 301 301 300 300 299 300 300 301 303 305 307 307 308 310 311 313 315 316 317
310 310 311 311 310 311 310 310 310 309 309 309 309 309 309 308 306 305 304 304 304 304 304 302 301 301 300 300 298 298 298 299 300 301 302 303 306 307 308 310 311 313 315 317
313 312 312 311 311 311 311 311 310 310 309 309 309 309 309 308 306 305 305 305 305 304 303 303 302 302 300 298 297 296 296 297 298 298 299 301 303 305 306 307 309 311 313 315
313 312 312 312 312 313 311 311 311 311 310 309 308 308 309 308 306 305 305 305 305 305 303 301 302 300 299 297 296 295 295 296 296 296 297 298 299 301 304 306 308 311 314 317
312 312 312 312 311 312 312 312 312 311 311 309 309 309 309 307 306 305 305 305 305 304 303 303 301 300 298 297 296 295 295 295 295 295 296 296 297 298 300 302 305 308 312 313
312 311 310 311 311 311 311 311 311 311 310 309 309 308 308 306 306 305 305 305 304 303 302 303 300 299 299 298 296 296 295 295 295 295 295 295 295 296 296 299 301 303 305 307
308 308 308 309 309 308 307 306 309 309 309 309 309 309 307 305 305 305 305 305 303 302 302 302 301 299 299 298 297 296 295 295 294 294 294 294 294 295 295 295 296 298 299 300
307 307 307 308 308 307 306 304 305 307 308 308 308 307 307 305 304 305 305 304 303 302 303 303 301 301 300 300 299 298 297 295 294 294 294 294 294 294 294 294 294 294 295 297
306 307 306 306 306 305 305 305 305 305 306 306 307 306 306 305 305 304 304 303 303 302 302 302 302 302 301 301 300 299 297 296 295 294 294 294 294 294 294 294 295 294 294 295
306 305 306 306 305 304 304 304 303 303 303 305 305 305 305 304 304 303 304 303 302 302 302 301 301 300 300 300 300 299 297 298 296 294 294 294 293 293 294 294 294 295 295 295

GFSNGP_850_thetae_081.txt.gz
Theta_e
323 323 325 326 326 325 327 329 331 340 341 339 337 336 335 334 332 331 331 330 329 329 333 336 341 342 344 347 349 350 351 352 354 354 353 354 355 354 354 354 352 347 348 349
323 320 322 322 321 321 324 325 328 335 337 335 332 331 330 329 328 327 326 326 327 328 329 328 328 333 340 342 343 343 345 350 351 350 352 355 355 355 353 353 353 353 352 349
322 321 319 320 321 321 322 322 327 334 336 332 331 327 326 325 325 324 323 322 322 323 324 325 325 326 328 333 337 344 347 348 348 349 351 352 354 353 355 352 354 353 354 355
321 322 320 322 320 320 321 322 324 330 331 330 328 325 325 324 324 323 322 322 321 320 321 322 322 323 323 327 332 333 338 344 346 347 348 347 351 351 352 352 353 352 353 353
321 322 321 320 319 319 320 323 323 327 326 325 324 323 323 321 321 320 319 319 319 319 319 321 320 320 322 325 327 333 331 332 337 341 344 345 348 351 352 351 352 352 353 353
321 321 321 321 320 319 319 324 321 323 323 322 321 324 325 320 318 318 318 317 317 317 318 319 320 319 320 321 324 326 327 329 330 331 335 341 343 344 346 350 350 351 351 352
320 321 321 322 319 317 319 325 321 320 320 319 321 322 320 318 317 317 316 316 315 316 317 317 318 318 319 320 321 322 324 326 326 328 327 328 335 340 343 345 347 351 350 350
321 322 322 319 318 319 323 320 319 319 318 318 318 317 316 316 315 315 315 315 315 315 316 316 316 317 318 319 320 319 319 322 326 325 324 327 327 328 332 337 343 347 348 350
321 325 321 318 319 320 319 318 317 317 315 315 314 315 314 315 315 315 315 315 315 316 316 316 316 317 317 318 318 319 319 319 322 324 324 324 320 327 331 334 335 339 345 348
318 319 319 317 317 317 316 315 316 315 314 313 314 314 314 314 314 314 314 314 313 313 314 314 313 313 314 315 315 317 320 320 320 322 323 322 323 324 326 330 333 334 337 339
317 317 315 316 316 315 314 313 313 313 312 311 311 312 313 313 313 312 312 311 311 311 311 311 311 311 311 313 313 314 315 317 320 321 321 321 322 322 323 324 326 325 325 327
318 316 316 315 315 314 313 312 312 311 311 311 311 312 311 311 310 310 310 310 310 310 309 309 308 308 309 310 310 310 312 313 316 318 318 319 320 320 320 320 320 319 318 319
317 316 315 314 314 313 312 312 312 311 311 311 311 311 311 310 309 308 308 308 308 308 308 307 307 306 306 306 307 308 308 310 312 313 315 316 317 319 319 319 319 320 320 321
316 315 315 314 313 312 312 312 311 311 311 311 311 310 310 310 309 309 307 307 307 306 306 306 306 306 304 305 305 306 307 307 308 311 312 313 315 316 317 318 319 319 320 320
316 315 315 314 314 313 312 312 311 311 311 311 310 310 309 309 309 308 307 306 306 306 306 305 305 305 306 305 305 304 305 305 306 307 308 310 312 315 315 316 316 316 317 318
315 315 315 313 313 313 312 312 311 311 311 311 310 310 309 310 309 308 307 306 306 306 306 305 305 305 304 304 303 303 303 303 303 303 305 306 308 311 313 314 315 316 317 317
315 314 313 312 312 312 312 312 311 311 311 310 310 310 309 309 309 309 308 306 306 305 305 305 305 304 304 303 302 302 302 302 302 302 303 303 304 306 309 311 314 315 315 316
313 312 311 311 311 312 312 312 311 310 311 310 310 310 310 310 309 309 307 307 307 306 306 305 304 303 304 303 301 301 301 301 300 301 301 301 302 303 305 307 309 310 312 313
313 313 312 311 311 311 311 310 310 311 311 310 310 310 310 310 310 309 307 307 307 307 306 305 304 304 303 302 299 299 299 298 297 297 298 298 299 300 302 303 304 306 307 310
314 314 312 312 312 311 311 312 312 311 311 311 310 310 310 309 309 308 307 307 307 306 306 305 305 304 302 301 299 298 297 297 296 296 296 296 297 298 299 300 302 304 305 307
314 314 313 313 313 312 313 313 313 312 312 311 310 310 310 310 309 308 307 307 307 307 306 304 304 303 302 300 299 298 296 296 295 295 295 295 295 296 297 298 299 300 302 304
313 314 313 313 312 312 312 313 313 312 312 312 310 310 310 310 309 308 307 307 307 306 305 305 304 303 300 299 301 298 297 295 295 295 294 294 294 294 295 296 297 298 299 301
312 311 311 311 311 311 312 312 312 312 313 313 312 310 310 310 309 308 307 308 307 306 304 304 304 300 299 300 302 300 298 296 295 294 294 294 293 293 294 295 295 296 297 298
308 308 309 309 309 310 310 309 308 308 309 312 313 311 309 309 308 307 306 306 305 305 304 303 303 302 301 302 302 302 300 297 296 295 294 293 293 293 293 294 294 295 295 295
307 307 308 308 309 309 308 309 308 307 307 308 307 310 310 308 307 306 307 306 305 304 304 304 303 303 303 303 303 302 301 299 298 296 294 293 293 293 293 293 294 294 294 294
307 307 307 307 307 307 306 306 306 306 306 307 308 307 307 306 306 306 306 305 305 305 304 304 304 303 303 302 302 302 301 300 298 297 294 294 293 293 293 293 294 294 294 294
307 306 307 307 307 306 306 305 304 304 305 305 304 306 306 306 306 305 305 306 305 304 304 303 302 302 301 301 302 302 301 300 298 297 296 294 293 293 292 292 293 293 293 293

GFSNGP_850_thetae_084.txt.gz
Theta_e
328 325 327 326 327 327 329 330 343 344 343 343 341 340 337 335 334 333 332 332 332 332 334 339 336 339 345 345 348 348 350 349 352 355 355 355 355 354 354 355 353 350 347 344
324 323 325 326 326 327 327 328 333 337 341 337 336 335 335 333 332 330 329 329 330 330 329 330 336 337 337 343 344 344 345 348 349 349 353 353 352 353 354 354 354 354 353 350
326 323 322 324 324 323 324 326 338 342 338 335 334 332 330 329 328 327 326 325 326 326 326 326 326 327 334 338 339 340 343 345 346 348 350 351 353 353 352 352 352 354 355 354
324 324 324 323 323 322 323 324 332 337 336 332 330 328 328 327 326 326 325 324 323 324 325 323 323 325 326 331 335 334 338 341 343 346 347 348 349 352 353 352 353 353 351 352
323 323 323 322 322 321 322 323 330 335 333 329 327 327 325 325 323 323 322 322 321 321 323 323 322 322 324 326 328 329 330 330 332 337 341 344 345 346 348 350 351 352 353 353
323 322 323 324 322 321 320 323 324 329 330 328 326 329 325 322 321 320 320 320 319 319 320 321 321 321 323 323 325 325 326 328 327 326 327 332 339 342 343 346 348 350 351 352
322 322 323 323 320 319 320 324 323 326 325 324 325 325 323 321 320 319 318 318 318 318 319 319 319 320 321 322 323 322 319 319 325 326 320 327 328 329 334 339 342 344 346 349
320 321 323 321 319 320 325 323 322 323 322 323 322 321 320 319 319 318 318 317 317 317 318 318 319 319 320 321 320 320 321 319 318 321 324 322 318 316 319 328 332 336 339 342
324 327 322 321 322 322 321 321 321 320 319 319 318 317 317 317 317 317 317 317 317 317 319 319 317 316 316 317 316 317 315 318 322 320 318 323 323 317 324 328 330 334 338 340
321 323 322 320 320 320 320 319 318 318 317 315 316 316 316 317 317 317 317 316 315 315 315 315 314 314 313 313 314 314 315 316 316 320 321 321 322 323 324 324 326 330 331 331
318 319 318 318 318 318 317 317 317 315 315 315 315 314 315 316 316 315 315 314 313 313 313 313 312 311 311 311 311 310 310 312 314 315 318 320 321 322 322 322 322 321 322 321
319 318 319 318 318 318 316 315 314 314 313 312 313 315 314 314 313 313 313 312 312 312 312 311 310 310 308 307 307 308 309 309 310 312 314 314 316 317 318 318 319 320 320 319
319 318 318 317 316 316 315 314 313 313 313 313 313 314 313 313 312 310 311 310 310 310 310 309 309 307 306 305 306 306 306 307 308 309 310 312 313 314 315 315 316 316 317 319
318 318 318 316 315 315 314 314 313 313 313 313 313 313 313 313 310 311 310 309 309 309 308 307 307 307 306 306 305 306 306 306 307 307 307 308 309 310 313 314 316 317 318 318
316 316 317 316 315 314 314 314 314 312 312 313 312 312 312 312 312 311 310 309 308 307 307 306 306 307 306 305 305 305 305 305 304 305 305 306 305 306 308 310 312 313 315 316
315 315 316 316 316 315 314 313 313 313 312 312 313 312 311 311 311 311 310 309 308 308 307 306 306 306 306 306 305 304 303 303 303 303 304 304 304 305 305 306 307 309 312 314
316 316 316 315 315 316 314 313 313 313 313 312 312 312 312 311 311 310 310 309 308 307 307 306 306 305 305 305 304 302 302 302 301 302 302 302 301 302 302 303 304 305 306 309
315 315 315 315 315 315 314 313 313 313 312 312 312 312 311 311 311 311 310 309 308 307 306 305 306 305 304 304 303 301 301 300 298 298 298 298 298 298 299 299 300 301 302 304
314 314 315 314 313 313 313 313 312 312 311 311 312 311 312 311 310 309 310 309 308 307 308 307 306 305 304 304 303 301 300 299 298 298 297 297 297 297 297 297 298 298 300 301
314 315 314 314 313 313 313 313 313 312 311 311 312 312 311 312 310 310 310 309 308 308 308 308 306 306 305 304 303 301 300 299 298 297 297 297 296 296 296 295 295 296 297 298
314 314 315 313 314 313 312 312 312 312 312 313 312 312 311 311 310 309 309 309 308 307 308 308 306 305 305 303 301 301 301 300 299 298 297 297 296 295 295 295 294 294 295 296
312 313 313 313 314 314 313 313 313 312 314 312 311 311 312 311 311 310 309 309 308 308 307 307 306 306 305 302 301 302 301 301 300 298 298 297 295 294 294 294 294 294 294 294
310 309 309 309 310 310 310 311 313 311 312 312 311 313 313 311 310 311 310 309 307 308 307 307 306 305 304 303 303 303 303 302 301 299 297 297 295 294 293 293 293 293 293 293
308 307 308 308 309 309 310 311 310 310 311 310 310 312 313 313 311 308 309 309 308 308 307 305 305 303 303 303 303 304 303 302 301 299 297 296 294 294 293 293 293 293 292 293
308 308 309 309 308 309 309 308 308 308 309 309 308 310 311 311 310 307 307 307 308 306 306 306 305 304 303 303 304 304 303 303 302 299 297 297 295 294 293 293 292 292 293 292
309 307 308 308 309 308 308 307 306 305 307 307 308 307 309 308 306 305 306 307 307 306 305 306 305 305 304 304 304 302 303 303 301 300 299 298 296 295 293 293 293 292 292 292
308 307 308 308 308 307 306 305 306 305 305 307 307 307 306 305 306 307 306 306 306 306 306 305 304 303 303 302 302 303 303 302 301 300 299 298 297 296 295 294 293 293 292 292

GFSNGP_850_thetae_087.txt.gz
Theta_e
326 327 327 325 325 326 327 339 345 344 345 343 338 335 334 333 334 334 333 333 336 341 342 342 343 345 344 342 345 341 347 351 347 346 349 352 351 354 354 354 353 350 348 346
328 327 323 323 325 326 326 338 340 341 343 338 337 335 335 333 332 332 332 330 328 329 332 336 336 339 341 342 344 342 342 340 339 337 338 347 352 354 352 352 351 354 352 352
326 323 322 325 325 323 326 337 339 342 339 338 336 332 330 329 328 328 327 327 326 325 325 327 328 334 335 336 337 342 340 341 343 345 347 347 346 348 351 351 353 353 352 354
324 323 325 323 320 321 323 338 336 336 335 334 330 328 327 326 325 324 324 325 324 323 322 324 326 327 331 331 331 335 335 337 341 342 345 346 345 346 350 349 349 350 352 352
322 320 323 322 321 321 329 338 335 335 332 329 328 326 325 325 325 323 321 322 323 323 322 322 323 324 326 328 329 329 328 328 329 333 337 340 342 344 346 347 349 350 350 351
323 325 324 323 320 318 321 337 334 329 328 327 326 325 322 322 321 320 320 320 320 321 321 321 321 322 323 323 324 322 322 325 323 321 322 327 330 333 338 341 343 345 347 347
321 323 325 322 319 318 322 328 331 328 327 326 323 325 322 320 320 319 319 318 318 319 319 318 318 319 319 320 320 318 316 314 316 319 318 319 319 316 319 325 332 335 338 341
320 323 326 324 323 326 325 322 324 325 324 322 321 321 320 320 318 318 318 317 318 318 318 318 318 318 319 319 319 317 315 314 315 314 314 315 316 316 317 322 329 331 334 338
326 325 323 322 322 321 320 320 320 322 321 321 321 320 319 318 317 318 318 317 318 318 319 318 318 316 315 315 314 314 313 312 311 312 317 318 319 319 322 324 324 325 332 332
323 324 322 321 320 320 320 318 318 318 317 317 317 317 317 317 317 317 317 316 315 316 315 315 314 312 311 311 311 311 310 310 313 313 316 319 321 323 324 324 323 323 323 325
319 321 320 320 320 319 318 319 317 317 316 316 316 316 317 317 317 316 315 314 313 313 313 313 311 309 308 308 308 307 308 308 310 311 313 315 319 319 319 320 319 319 320 319
320 320 319 320 318 317 317 316 316 315 315 314 314 315 316 316 315 314 313 313 313 312 312 310 310 309 307 305 306 305 305 306 306 307 308 309 310 311 316 315 317 318 319 318
320 318 318 318 317 318 317 315 314 314 313 313 313 315 314 314 313 313 311 311 311 311 310 309 308 307 305 306 304 303 304 305 306 306 306 305 305 305 306 307 308 311 313 317
317 317 318 318 316 316 315 315 313 313 313 313 313 314 313 313 312 310 310 310 310 309 307 307 306 306 304 304 304 303 303 303 302 301 302 302 303 303 304 304 305 306 307 309
316 315 316 317 317 315 315 314 314 313 313 313 313 313 313 313 312 311 311 309 309 307 305 305 306 306 306 305 304 302 302 302 301 300 301 301 301 302 302 302 302 303 304 305
315 315 315 316 316 316 314 314 315 314 313 313 313 313 312 313 312 311 310 309 306 308 307 304 306 306 305 305 304 300 301 301 299 299 299 299 299 299 299 299 300 300 301 302
315 315 315 316 316 316 316 314 314 314 313 312 313 313 312 312 311 310 310 310 309 307 305 305 306 306 305 303 304 302 300 299 299 299 299 298 298 298 298 298 298 298 299 299
314 314 314 315 315 315 314 316 315 313 313 314 313 314 312 311 310 310 310 310 309 308 306 305 305 305 305 303 304 303 302 300 299 300 299 299 299 298 297 297 297 297 297 297
315 313 314 315 314 314 313 314 314 313 313 313 312 313 312 312 311 310 310 310 309 308 307 307 307 306 305 304 304 303 301 300 300 301 300 300 299 298 297 297 296 296 296 296
315 315 315 315 315 314 313 314 313 313 313 313 312 311 312 312 311 310 310 310 309 309 307 308 307 306 306 304 304 303 301 301 301 300 300 299 298 297 296 296 296 295 295 295
314 314 313 314 314 313 313 313 313 313 313 313 312 312 311 312 312 311 310 310 309 309 307 308 307 307 306 305 305 303 301 302 302 301 300 300 298 296 295 295 295 295 295 295
310 309 310 310 310 311 311 311 312 313 313 312 312 312 312 312 311 312 311 310 310 309 308 307 308 307 306 305 304 303 302 302 302 302 302 300 297 296 295 295 294 294 294 294
309 308 308 308 309 309 309 309 310 310 312 311 311 310 308 310 312 312 312 311 309 309 309 308 307 307 307 305 304 303 303 304 303 303 302 300 298 296 295 295 294 294 293 293
308 307 309 309 309 308 309 308 308 309 309 310 309 310 310 311 310 309 312 311 310 309 308 308 307 307 305 304 303 303 303 304 304 303 302 300 299 297 295 295 294 293 293 293
309 308 308 308 308 308 308 307 307 307 307 308 308 308 309 309 309 311 312 311 310 308 307 307 307 305 305 304 304 304 304 304 303 303 302 300 299 298 296 295 295 294 293 293
307 308 308 307 307 307 306 306 306 305 305 308 307 307 309 309 310 310 308 307 306 304 304 306 306 306 305 304 303 303 303 303 303 302 301 300 299 298 297 296 295 294 293 293
307 307 307 307 307 306 305 307 307 304 305 306 305 304 305 305 306 305 306 306 306 306 306 306 306 305 304 303 303 303 303 302 302 302 301 300 299 298 298 296 296 295 294 293

GFSNGP_850_thetae_090.txt.gz
Theta_e
321 323 325 325 324 322 327 331 337 344 343 342 338 336 337 336 336 335 337 339 342 343 342 343 342 342 341 342 341 341 339 342 343 343 344 344 345 345 348 348 347 346 346 347
322 324 322 321 321 322 333 339 342 341 342 336 334 334 334 334 332 330 331 334 337 340 341 342 343 343 343 344 344 337 338 342 341 342 344 344 345 346 350 351 349 349 350 350
325 322 320 320 319 324 335 339 341 343 339 334 334 333 333 332 331 330 328 326 327 329 334 335 337 340 341 342 342 342 342 341 340 342 341 340 340 345 346 347 348 347 348 347
323 321 324 320 319 331 339 339 337 338 336 335 333 330 329 328 327 326 326 324 324 324 326 330 333 331 332 332 333 334 336 338 341 341 341 339 341 341 341 343 344 348 349 348
325 322 318 320 320 319 331 336 337 337 332 328 326 325 324 325 324 324 323 322 322 323 323 327 331 331 329 329 329 330 330 331 332 332 340 338 339 341 343 342 342 343 347 347
321 325 325 321 319 319 328 337 331 328 327 325 325 325 322 322 322 321 323 323 322 321 322 322 323 325 326 326 326 327 327 326 325 326 329 329 328 325 325 329 337 338 341 343
320 320 324 322 323 323 325 327 327 327 325 325 322 323 321 322 321 320 319 319 319 320 319 319 320 321 321 321 320 318 316 316 319 321 322 322 319 317 318 326 329 332 337 340
317 320 322 322 322 325 322 324 327 326 324 325 322 321 320 320 319 318 318 318 318 318 318 318 318 318 317 316 315 315 314 313 313 314 314 314 315 316 318 323 325 328 335 339
322 321 320 320 320 320 323 324 322 322 321 322 320 319 319 318 317 317 317 317 318 317 318 318 318 317 315 313 313 311 311 310 310 310 311 314 315 316 320 323 323 324 326 328
320 320 319 319 319 319 320 320 322 321 320 320 320 319 318 318 317 317 317 317 317 317 317 317 316 314 311 310 309 309 308 309 310 311 312 315 318 320 321 321 322 321 321 321
316 318 320 320 319 318 317 318 318 316 319 318 318 318 317 317 317 317 317 317 316 315 314 313 312 309 308 307 307 306 307 307 307 308 310 312 314 317 318 317 317 318 318 318
315 318 316 319 319 318 317 316 316 315 316 316 316 317 317 317 317 316 316 316 314 311 311 310 308 307 306 305 305 305 305 305 305 305 305 305 306 308 309 311 313 313 314 316
317 318 318 317 318 317 317 316 315 315 315 315 315 316 316 316 316 315 314 314 312 312 311 309 306 305 304 303 303 302 302 302 301 301 301 302 302 302 303 303 303 304 306 307
316 317 317 318 317 316 316 317 316 314 314 313 313 314 314 315 314 313 312 310 310 309 309 307 305 304 303 303 302 302 301 301 300 300 300 300 301 301 301 302 302 302 303 303
316 315 315 315 316 317 315 315 314 313 313 313 313 313 313 313 313 312 310 309 307 306 307 304 304 304 305 304 303 300 300 299 299 299 299 299 299 300 300 300 300 301 302 302
314 313 314 315 315 316 316 315 314 313 313 313 313 313 313 313 312 312 311 310 310 306 304 303 304 305 304 303 303 300 300 299 299 299 300 300 300 300 300 300 300 300 300 300
314 313 313 314 315 316 316 316 315 314 313 313 313 313 313 312 313 312 311 311 308 307 306 304 305 305 304 304 303 302 301 299 299 300 300 300 300 299 299 299 298 298 299 299
315 314 312 313 313 313 314 315 315 315 314 314 313 313 313 313 313 312 311 310 309 309 308 304 304 305 305 305 303 302 300 300 299 300 300 299 299 298 298 297 297 297 297 298
314 314 313 313 315 314 313 313 313 315 315 314 313 313 313 313 312 312 311 310 310 309 309 307 305 305 305 305 303 302 302 301 301 301 301 300 299 298 297 296 296 296 296 296
314 315 314 315 314 314 314 314 313 313 313 313 313 313 313 313 311 312 311 310 310 309 309 308 306 307 306 305 304 303 303 301 302 302 301 302 301 299 297 296 295 295 295 295
313 313 313 314 313 312 312 313 313 313 313 313 313 312 313 312 311 312 311 311 310 310 310 309 307 307 307 305 305 304 304 302 302 302 302 303 302 299 298 296 295 295 295 295
310 309 309 309 309 309 310 310 310 310 311 312 312 313 312 312 311 311 312 312 311 310 310 309 308 307 307 306 305 305 305 303 303 302 303 303 302 300 298 296 295 295 295 295
308 307 308 309 308 308 308 307 307 307 308 309 310 311 311 310 310 311 311 311 311 312 310 309 309 307 307 307 306 306 305 304 303 302 303 303 302 300 298 297 296 295 295 294
307 307 308 308 307 307 307 306 306 307 307 308 309 309 309 309 309 310 308 308 310 311 311 310 309 308 307 307 307 306 304 303 303 303 303 302 302 300 299 297 296 296 295 295
308 308 308 307 305 306 306 305 305 305 305 306 307 307 306 307 308 308 309 310 309 309 307 309 309 307 307 306 305 304 304 303 303 303 303 303 302 300 298 298 297 296 296 296
307 307 306 306 305 304 304 305 305 306 306 305 305 305 306 309 308 309 309 310 311 311 309 308 307 305 306 305 305 304 303 303 303 303 303 302 300 299 299 298 298 298 297 296
307 306 305 305 306 305 305 305 306 305 305 306 305 305 305 305 304 306 306 306 306 305 305 305 304 306 306 305 304 303 303 303 302 302 301 301 300 300 300 299 298 298 298 297

GFSNGP_850_thetae_093.txt.gz
Theta_e
320 319 321 323 323 319 320 324 334 339 343 342 338 338 339 339 338 338 339 341 343 344 346 346 345 344 344 342 340 343 339 341 343 344 342 342 342 343 342 343 344 343 344 346
323 323 321 320 319 320 333 340 340 340 342 337 336 337 337 335 334 335 337 339 340 342 342 343 342 342 341 339 339 337 340 340 339 339 341 342 342 342 343 344 344 345 345 347
325 322 320 318 318 318 332 339 339 340 337 333 335 336 334 331 331 331 333 336 338 339 341 340 342 343 343 342 342 340 339 340 341 339 338 340 340 340 341 343 343 345 345 345
324 321 324 319 319 321 340 339 336 335 334 334 334 333 332 330 327 328 328 332 334 334 337 339 338 340 340 340 341 340 340 340 341 341 339 338 339 340 340 340 341 342 344 344
326 324 321 321 319 321 321 339 335 334 332 331 326 327 324 326 326 325 323 324 328 332 332 332 333 334 335 335 336 336 336 336 337 339 340 340 338 337 339 338 339 340 341 341
324 327 328 322 321 322 326 340 334 334 327 325 326 326 321 325 323 322 322 323 325 329 332 331 329 329 329 329 329 330 329 329 329 332 335 335 336 337 336 336 336 336 338 339
323 324 325 322 321 321 325 329 328 328 326 325 323 322 322 323 322 322 322 321 321 322 323 324 324 324 325 324 322 320 321 323 324 324 325 325 323 324 328 328 331 334 337 340
315 319 323 320 321 320 319 322 327 326 325 324 324 321 320 322 322 322 321 320 320 320 319 318 318 317 317 316 316 315 315 314 314 315 316 317 318 318 321 325 327 332 336 336
318 319 319 318 318 321 323 327 326 325 324 324 321 319 318 319 319 319 319 318 318 317 317 317 316 316 315 314 312 311 310 310 310 310 312 315 316 318 320 322 322 324 327 328
317 319 317 319 322 324 323 324 326 325 325 323 322 320 319 318 318 318 318 317 317 317 317 317 316 315 312 310 309 308 308 308 309 311 311 312 315 316 318 319 320 320 320 321
314 317 318 317 318 321 322 322 323 323 323 322 322 320 319 318 318 317 317 317 317 316 315 314 313 311 308 307 306 306 306 307 308 308 309 310 312 314 316 316 317 317 317 317
315 316 315 317 317 317 318 318 321 320 319 319 319 318 318 317 317 317 317 316 316 315 314 311 310 308 306 305 304 305 305 305 305 305 305 305 305 305 306 308 308 310 311 312
316 318 316 317 316 316 316 317 317 317 318 318 318 318 318 317 317 317 317 316 316 315 311 309 308 305 304 303 303 303 303 302 301 301 301 301 302 302 302 301 302 302 302 303
316 316 317 317 317 316 315 315 315 315 315 315 315 316 316 317 316 316 316 315 312 310 309 308 306 305 303 303 302 302 301 299 299 299 299 299 300 300 300 301 301 301 301 301
316 315 315 315 315 315 316 315 314 314 314 314 314 314 315 315 315 315 314 312 309 308 307 306 304 304 303 303 301 300 300 299 299 299 299 299 300 300 300 300 300 300 301 301
314 313 312 312 313 314 315 315 314 313 313 313 313 313 313 313 312 312 312 311 310 308 308 304 303 303 303 303 302 300 299 298 299 299 300 300 300 299 299 299 299 299 299 299
315 314 311 311 313 314 315 315 315 315 314 312 313 313 313 313 313 312 312 311 311 310 306 303 302 303 302 303 303 302 300 299 299 300 300 299 299 299 299 298 298 298 297 298
315 315 313 312 312 312 312 313 313 315 315 313 313 313 313 313 313 312 312 312 311 310 307 306 303 302 303 304 302 302 300 300 300 300 300 300 299 298 298 298 297 297 296 297
314 313 314 313 313 313 313 313 313 313 314 315 314 313 313 313 313 312 312 312 311 310 309 308 306 303 303 304 303 301 300 301 301 301 301 301 300 299 299 298 297 296 296 296
314 315 315 314 314 314 314 314 313 313 313 313 313 313 313 313 313 313 312 312 311 311 311 309 308 305 305 304 304 301 301 301 302 302 301 302 302 302 300 299 297 296 295 295
313 312 313 314 314 314 313 312 312 312 312 313 313 313 313 313 313 313 312 312 311 311 310 310 309 308 306 305 305 304 303 303 303 302 302 302 302 302 302 300 298 296 295 295
310 309 309 309 309 307 307 308 309 309 309 310 311 312 312 312 312 312 312 312 311 311 311 310 310 309 307 306 306 305 304 304 304 304 303 302 303 303 303 301 298 296 295 295
310 308 307 307 308 308 308 307 307 306 306 306 307 308 310 311 311 311 311 311 311 310 310 311 311 310 309 307 307 306 305 305 304 304 304 303 303 302 302 301 298 297 297 297
308 307 307 308 307 306 306 306 306 306 306 306 306 306 307 308 308 309 309 310 309 308 307 310 311 311 310 308 307 307 306 306 305 304 304 303 303 302 302 300 297 297 297 297
307 307 307 307 305 305 304 305 305 306 305 305 305 306 306 306 306 306 306 307 308 308 307 308 310 311 311 309 308 307 307 306 304 303 303 303 302 303 303 300 299 298 297 297
308 307 306 305 304 304 305 305 305 305 305 305 305 305 305 305 305 307 307 308 308 309 309 309 309 309 310 308 306 307 307 306 304 303 303 303 303 302 300 299 299 299 299 298
308 307 305 305 304 304 304 304 305 305 305 306 305 305 305 305 304 304 306 305 306 307 309 309 308 307 306 303 303 305 305 305 304 303 302 302 301 300 300 300 300 300 299 299

GFSNGP_850_thetae_096.txt.gz
Theta_e
320 319 320 321 319 318 318 319 328 330 338 339 339 339 340 339 339 340 340 343 345 345 343 343 345 344 344 344 344 343 340 342 342 343 343 342 340 340 340 341 342 342 344 344
323 322 321 319 319 323 323 335 338 336 340 334 337 339 338 336 336 336 338 340 341 342 344 344 344 345 344 345 344 343 342 343 341 341 341 341 342 342 342 342 342 343 344 344
324 320 319 318 319 319 320 335 336 338 335 336 337 337 334 334 335 334 335 338 340 342 342 342 342 343 343 343 342 341 339 339 340 339 339 339 338 339 340 340 342 342 343 344
323 320 322 317 318 320 331 337 334 334 335 336 335 333 333 335 335 334 335 337 339 339 339 341 341 341 341 340 340 341 340 340 341 340 338 339 339 338 338 339 338 340 341 341
322 322 320 320 320 322 322 336 334 334 335 329 329 329 327 328 331 333 334 336 337 337 337 337 338 338 340 340 340 340 340 339 339 339 340 340 339 339 338 337 337 337 339 337
321 326 326 320 320 321 324 333 334 332 329 328 330 330 324 326 327 329 333 333 334 334 334 334 332 333 335 334 334 334 332 332 333 335 337 334 335 336 337 336 336 337 336 336
322 323 322 321 319 320 325 324 330 329 327 328 324 325 323 324 324 325 327 330 332 332 331 329 328 327 328 327 328 328 326 326 325 327 328 329 329 329 329 329 332 334 336 338
314 319 323 318 320 323 319 323 327 326 325 325 324 324 323 323 322 323 324 327 329 326 325 324 322 321 321 319 318 317 316 315 315 316 318 319 319 319 323 329 332 334 331 332
315 316 317 317 318 321 322 325 326 327 325 325 322 322 321 321 321 320 320 321 320 320 319 318 316 315 315 313 312 312 311 311 311 311 312 313 315 317 319 322 323 326 325 325
316 317 317 317 320 322 323 325 325 326 325 324 323 321 322 321 320 320 319 318 318 317 316 316 316 314 313 311 310 309 308 308 309 309 310 310 311 313 315 317 319 320 320 320
314 316 317 317 319 321 324 326 325 324 324 323 323 320 322 323 320 319 318 317 317 317 316 315 313 312 310 308 307 307 307 307 308 308 309 310 311 312 313 314 314 315 316 316
317 315 315 316 316 319 321 323 325 325 325 322 321 320 322 322 318 318 317 317 316 315 314 313 311 309 307 306 305 305 305 305 306 306 306 306 306 307 307 307 308 309 309 308
316 316 316 317 316 316 316 319 320 320 321 322 320 322 322 320 319 317 317 317 316 315 314 312 309 307 305 304 304 304 304 304 303 303 302 302 301 301 301 301 301 301 301 301
315 317 316 316 316 316 316 316 317 318 319 319 319 319 318 317 317 317 316 316 315 313 311 310 308 306 304 303 303 302 301 300 300 300 300 300 300 300 300 300 300 300 300 300
316 315 315 315 315 315 315 315 315 315 316 316 316 316 317 317 317 316 316 315 313 311 309 308 307 305 303 303 302 301 300 299 299 299 299 299 300 300 300 300 299 299 299 299
314 313 312 310 311 313 314 315 315 314 314 314 314 314 314 313 314 314 315 314 312 310 308 306 305 304 303 303 301 300 299 298 299 299 300 299 299 299 299 299 299 298 298 298
314 314 311 311 310 311 312 314 315 315 314 313 314 314 313 313 313 313 312 312 311 310 310 307 305 303 303 303 302 300 299 299 299 300 299 299 299 299 298 298 298 297 297 297
314 315 314 313 312 311 311 311 311 312 314 315 314 313 314 313 313 313 313 312 312 311 310 308 305 303 303 302 302 301 300 299 299 300 300 300 299 299 299 299 298 297 296 296
314 314 314 314 313 313 313 313 313 312 312 313 314 314 313 312 313 313 313 312 312 312 311 310 307 304 303 303 303 302 300 300 300 300 301 301 301 300 300 300 299 298 296 295
315 314 314 314 314 313 314 314 314 313 312 312 312 312 313 313 313 313 312 313 313 312 312 311 309 307 304 303 304 303 301 301 301 301 301 301 301 301 301 301 300 299 297 296
313 313 313 313 314 314 314 313 311 311 311 311 312 312 313 312 312 312 312 313 313 313 312 311 310 309 308 304 304 304 301 300 301 302 302 301 302 302 302 302 301 299 297 296
312 310 309 310 310 308 307 306 307 307 307 307 306 308 309 311 312 312 312 312 312 312 312 311 311 310 308 306 305 304 303 301 302 302 303 303 302 302 302 302 301 300 297 297
311 309 308 307 307 307 307 307 306 306 306 306 305 306 306 307 308 310 311 310 311 312 312 311 311 310 310 308 306 305 305 304 303 303 303 303 303 303 302 302 302 300 297 297
310 309 307 306 307 307 305 305 305 305 305 305 305 305 305 305 305 306 307 308 309 310 310 310 310 310 310 309 310 307 306 305 305 304 304 304 304 303 303 302 302 301 299 298
309 307 307 307 306 304 304 305 304 304 305 305 305 304 305 304 304 304 304 305 306 306 308 309 309 308 308 308 307 309 308 306 306 306 305 304 303 302 302 303 303 300 299 299
307 307 307 305 304 304 304 304 304 305 305 305 305 304 304 305 304 305 306 307 307 307 307 307 308 308 308 308 308 307 306 305 306 307 306 305 303 302 303 303 302 299 299 300
307 307 306 304 303 303 303 304 304 304 305 305 305 305 304 305 304 304 304 304 304 305 307 307 309 308 308 307 308 308 307 306 305 305 303 303 303 302 301 300 300 300 300 300

GFSNGP_850_thetae_099.txt.gz
Theta_e
324 324 323 323 322 327 324 328 330 329 340 343 344 342 342 341 342 343 343 344 344 344 345 346 345 344 344 342 343 342 342 343 341 343 340 343 342 339 339 339 340 340 341 342
327 324 324 322 322 327 330 325 326 337 337 339 340 340 340 340 340 341 343 344 343 343 344 344 345 345 344 342 343 343 342 343 341 342 342 342 342 342 341 342 341 342 342 342
327 324 323 325 323 325 330 332 336 340 340 341 340 340 340 339 339 339 340 342 344 344 343 343 344 344 344 345 344 344 342 342 343 341 340 339 339 339 340 341 341 341 342 342
330 325 328 323 323 326 332 339 339 339 338 339 339 339 337 336 336 336 338 339 340 342 343 343 344 344 345 344 344 343 342 341 340 341 340 339 339 338 338 338 339 338 338 340
330 328 325 322 324 324 326 334 337 337 336 336 333 332 330 334 335 335 336 337 340 341 342 341 341 342 343 342 341 340 340 340 339 340 339 339 339 339 339 340 338 337 337 337
329 329 328 324 322 321 324 337 335 334 334 332 332 338 331 328 334 335 336 336 338 337 337 339 338 339 340 339 338 337 337 338 337 338 339 336 335 336 336 337 337 336 336 337
327 328 326 322 321 321 330 329 333 334 331 332 335 332 327 328 332 334 334 334 335 334 334 333 332 333 334 332 332 331 331 330 330 332 332 331 330 330 332 334 335 336 336 336
322 325 325 321 323 326 323 324 330 329 327 325 326 326 324 325 331 332 332 332 330 330 328 325 323 324 325 324 323 321 320 321 321 321 321 321 320 321 326 330 332 333 335 335
323 324 320 320 320 321 322 324 327 327 325 325 324 323 322 325 328 331 331 326 325 325 324 322 319 316 315 314 313 313 313 313 313 314 314 315 317 320 324 329 330 330 329 329
322 320 319 320 320 323 324 324 326 325 325 323 322 321 322 323 324 327 327 324 322 320 318 316 315 314 313 312 311 310 309 309 309 310 310 311 314 316 319 320 321 321 321 321
321 319 318 318 318 321 324 324 325 324 325 324 324 322 322 321 320 320 319 318 317 316 317 316 314 312 311 309 308 308 308 308 308 309 309 310 311 312 313 314 315 316 316 316
324 318 319 318 316 317 322 323 324 325 323 323 325 322 322 323 322 321 318 317 317 317 315 314 313 311 308 307 306 306 306 306 306 307 307 307 308 309 310 310 309 309 310 308
318 315 316 315 315 316 318 319 321 322 323 323 323 323 321 322 320 321 319 318 318 316 314 313 311 308 306 305 305 305 305 305 304 304 303 303 303 302 302 302 302 301 301 301
315 316 317 316 316 315 315 315 317 318 319 320 322 322 322 322 322 321 318 317 315 315 314 312 310 308 306 303 303 303 303 302 302 301 301 301 300 300 300 300 299 300 300 300
315 315 314 314 314 314 315 315 315 316 317 319 319 320 320 320 319 318 317 316 315 314 313 310 308 307 305 303 303 302 301 300 300 299 299 299 299 299 299 299 299 299 298 298
314 313 312 310 311 312 312 312 314 315 314 314 316 316 315 316 317 316 316 316 315 314 311 309 307 306 304 303 302 301 300 299 299 299 299 299 299 299 299 299 298 298 297 298
314 315 311 312 311 311 312 313 314 314 315 314 313 313 315 315 315 315 314 313 314 312 310 309 308 307 305 303 302 300 299 299 299 299 299 299 299 299 298 298 298 297 297 297
313 313 312 312 312 312 311 311 311 311 311 313 314 315 313 313 314 313 314 313 313 312 311 310 309 306 304 303 303 301 299 299 299 299 299 299 299 299 299 299 298 298 297 296
312 312 313 313 313 312 313 313 312 312 312 312 312 313 314 314 312 313 314 314 313 313 312 311 310 308 305 303 303 302 300 299 298 299 300 300 299 300 300 300 299 298 297 296
313 314 314 314 314 314 313 314 314 314 313 311 310 310 312 312 313 313 312 313 313 312 313 312 312 310 307 305 303 303 302 301 299 299 300 301 301 301 301 301 301 300 298 296
315 315 314 313 312 313 313 314 313 310 310 310 309 309 311 312 313 312 313 313 313 313 313 312 312 311 310 308 304 304 303 302 300 300 300 301 301 302 302 302 301 301 299 297
314 313 311 309 312 313 310 307 306 306 306 306 306 306 306 306 308 310 312 312 312 312 312 312 312 312 312 311 308 306 304 303 302 302 301 301 301 301 302 302 302 301 300 298
313 311 308 308 308 307 307 307 306 305 305 305 305 305 305 305 305 306 307 309 308 311 311 311 311 312 311 310 310 308 306 305 304 302 302 302 302 303 302 302 302 302 301 300
311 309 308 307 306 307 307 305 304 304 304 305 305 304 304 304 304 305 305 305 305 307 308 309 310 310 311 311 310 310 307 306 305 305 304 303 303 304 304 303 302 302 303 301
311 309 307 306 307 306 304 304 304 305 305 304 304 304 304 304 305 306 307 307 306 306 306 306 307 309 310 310 310 310 309 308 307 305 305 304 304 304 304 303 302 302 303 302
309 307 306 306 304 303 304 304 305 304 304 304 305 304 304 304 304 304 305 305 305 306 307 307 307 307 307 308 308 308 308 309 307 307 306 305 305 305 305 303 302 303 302 301
307 306 307 305 303 303 303 304 304 304 304 304 305 304 304 304 305 305 305 305 306 305 305 304 304 306 307 307 308 307 308 307 308 307 305 305 306 306 305 302 302 301 300 300

GFSNGP_850_thetae_102.txt.gz
Theta_e
326 326 326 328 328 328 329 329 329 329 331 333 344 348 349 348 347 348 348 349 349 349 350 350 349 347 343 343 343 343 343 344 343 343 343 343 347 347 347 347 341 339 349 349
326 327 327 327 327 327 330 330 328 329 331 339 343 345 347 346 346 346 348 348 349 349 350 350 346 345 344 343 344 344 344 343 342 343 343 342 344 344 340 341 344 341 342 343
326 327 328 329 328 327 329 333 333 331 333 342 346 345 345 345 345 346 345 346 348 349 349 349 349 347 347 345 343 342 342 340 339 341 339 339 342 343 345 344 344 343 344 346
326 328 329 328 328 329 329 332 338 339 340 342 344 343 343 343 343 343 341 343 343 344 344 344 344 345 346 345 344 344 344 342 342 341 341 341 341 340 340 339 339 343 340 341
327 327 327 326 327 327 329 334 338 341 340 340 341 339 338 338 339 339 339 341 341 342 344 344 343 343 344 345 345 345 343 343 343 341 341 340 339 338 338 337 339 341 339 338
326 327 329 328 325 324 325 335 333 337 338 338 336 342 339 337 336 335 337 339 341 341 342 341 341 343 343 344 344 342 341 339 340 339 339 339 339 339 339 339 340 340 339 337
324 324 326 327 324 324 330 332 331 334 335 335 337 335 336 334 333 334 336 336 337 338 338 339 339 339 340 339 339 339 339 338 337 336 335 334 333 334 336 336 336 336 337 337
325 325 326 325 327 329 329 327 330 332 331 329 331 333 334 329 331 332 333 331 331 332 331 330 330 331 331 331 330 330 329 329 329 329 326 325 325 328 332 336 337 336 335 335
327 329 325 325 327 328 328 327 330 332 327 329 330 331 330 326 327 327 328 328 327 326 324 323 322 320 319 320 319 318 318 319 319 319 320 321 325 328 330 332 331 331 327 325
326 324 323 323 323 327 329 329 329 329 326 328 328 327 326 323 325 325 324 323 322 322 319 316 315 314 313 312 312 312 312 312 312 314 315 318 319 322 322 323 323 322 321 320
326 323 322 321 322 324 327 329 328 328 327 325 325 323 323 325 322 321 321 319 318 316 316 315 313 312 311 310 310 312 312 313 312 313 314 312 313 315 317 318 318 317 317 317
326 323 324 322 320 322 325 326 327 326 323 322 323 322 321 321 320 319 318 317 317 316 315 314 312 310 308 307 307 310 312 312 312 313 312 311 310 311 312 312 313 313 313 312
323 322 322 320 319 319 321 323 325 325 325 324 321 318 318 317 321 321 320 320 319 317 315 314 313 311 309 306 305 306 310 308 309 309 309 310 308 306 307 306 305 304 303 303
320 320 321 320 320 319 319 318 319 323 324 325 323 321 321 319 318 317 319 319 318 317 316 315 314 311 308 306 305 304 306 305 307 306 306 306 306 306 305 304 304 301 301 301
319 319 320 319 319 319 319 318 318 320 322 322 323 322 321 321 320 319 319 318 318 316 315 315 313 309 308 306 304 303 303 303 304 304 304 304 304 304 304 304 304 303 300 299
318 317 316 316 317 317 317 317 319 319 318 320 321 321 321 321 321 321 320 319 317 316 316 313 310 308 307 306 304 303 302 303 303 303 302 303 303 303 303 303 303 303 302 302
317 317 314 314 314 314 315 315 316 317 318 318 318 318 320 319 319 320 318 317 316 316 315 312 309 309 307 306 304 305 304 301 301 303 303 303 303 303 303 303 302 302 301 298
314 314 313 313 314 314 314 314 314 314 315 316 317 318 318 318 318 319 319 319 318 317 317 313 310 310 308 305 306 305 304 303 302 303 303 303 303 303 303 302 302 302 301 297
315 314 314 313 314 314 314 315 315 315 315 314 314 315 316 317 318 318 318 318 318 317 316 316 313 311 310 309 305 306 304 303 303 303 304 303 302 303 303 303 303 302 301 301
315 315 315 315 316 315 315 316 316 316 316 315 314 313 313 315 316 317 317 317 317 317 316 316 314 312 312 311 310 307 306 304 304 304 303 304 303 304 304 304 304 303 302 301
316 316 317 317 317 317 316 316 316 316 315 313 312 312 313 313 314 315 316 315 316 316 315 314 313 313 312 312 311 309 306 306 305 304 304 303 304 304 305 305 304 304 303 302
316 317 317 317 316 315 315 315 314 312 311 310 310 310 310 310 311 311 312 314 314 314 314 314 314 313 312 311 311 310 310 308 306 305 304 304 303 304 304 305 305 305 304 303
317 317 317 315 314 313 312 311 311 310 309 310 310 310 310 309 309 309 309 310 310 310 309 311 313 312 311 310 310 311 310 307 307 306 305 304 304 304 304 304 305 304 304 304
318 316 314 313 311 311 310 310 309 309 309 309 310 309 308 308 309 308 308 308 307 307 308 308 309 310 310 311 311 311 310 310 308 306 306 305 305 304 305 305 305 304 304 304
316 314 313 311 310 310 310 309 308 309 309 309 308 308 308 308 308 308 308 308 306 306 307 307 307 306 307 308 309 310 310 309 309 307 305 305 305 304 305 305 306 305 305 305
315 313 311 310 309 309 308 307 307 308 308 308 308 308 307 307 307 308 307 307 307 307 307 306 305 308 307 308 307 310 309 309 309 309 307 307 306 306 305 305 305 305 305 305
314 311 310 310 308 307 307 307 307 307 307 308 308 307 307 307 307 306 306 307 306 306 306 306 306 304 305 306 307 307 309 308 308 308 308 307 307 305 305 305 305 304 303 303

GFSNGP_850_thetae_105.txt.gz
Theta_e
329 329 329 329 329 328 330 330 331 331 331 333 345 347 351 352 353 354 353 351 350 352 350 349 350 348 348 345 343 341 342 343 342 346 350 350 350 351 349 348 348 349 350 350
330 327 327 328 329 330 329 329 329 329 330 335 345 347 351 350 349 351 351 352 352 353 352 351 352 352 349 349 344 343 343 343 342 344 345 346 349 349 346 348 348 349 350 351
329 325 327 327 328 328 328 328 329 330 330 341 344 346 348 349 348 348 351 350 351 350 350 351 352 352 349 347 344 343 343 343 343 343 343 343 344 344 346 346 346 347 348 348
329 327 330 329 329 330 330 331 332 335 333 342 342 346 347 347 347 347 347 349 348 350 350 350 350 350 350 348 347 344 345 343 340 340 340 340 339 341 342 340 345 346 347 345
330 326 329 328 329 330 330 334 339 339 338 339 345 345 342 344 344 345 342 343 344 344 346 348 349 348 348 348 346 345 345 343 343 342 341 340 341 341 341 340 341 341 342 339
329 331 329 331 329 326 328 330 333 333 339 341 342 345 343 340 339 337 337 340 341 342 343 343 343 345 345 344 345 345 345 344 342 342 341 341 340 339 339 338 338 337 334 340
326 328 329 328 326 324 330 333 331 335 337 337 340 339 341 339 335 333 337 338 340 340 341 342 341 342 343 343 343 343 343 343 340 340 339 339 340 339 338 339 339 340 340 338
327 330 332 327 328 332 332 330 331 334 334 335 333 336 335 332 330 329 334 333 333 335 334 331 333 335 334 335 333 335 337 337 338 336 335 334 334 335 336 337 338 337 336 336
328 331 328 327 328 329 329 329 330 333 332 333 333 329 326 326 326 327 330 329 328 327 326 324 324 326 329 328 328 328 327 327 328 327 328 328 327 329 333 335 334 334 331 326
326 326 326 326 328 330 330 329 330 331 329 330 326 324 322 321 322 324 324 324 322 318 317 317 317 317 313 315 315 317 318 319 320 322 325 327 328 328 330 330 329 329 328 326
326 324 324 324 325 328 330 330 329 329 329 327 325 321 321 321 320 320 318 317 316 316 314 313 312 311 311 312 311 312 315 315 316 317 321 320 320 321 322 324 325 324 324 322
328 325 326 324 323 325 326 328 328 327 326 324 324 323 320 320 319 318 318 317 315 314 313 312 311 309 307 307 308 309 314 315 316 317 317 315 313 313 313 315 318 319 318 316
325 324 325 323 322 322 323 325 327 327 325 321 319 318 319 318 319 318 317 317 317 316 314 315 314 312 309 307 306 308 312 313 312 313 314 314 312 311 308 310 310 311 310 309
323 323 323 322 322 321 321 321 323 326 326 324 322 321 318 316 318 319 318 318 318 319 317 315 314 312 309 308 306 305 310 307 311 310 311 311 312 311 309 307 306 304 302 302
322 322 322 322 322 322 321 321 322 323 324 324 324 323 323 320 319 317 318 318 318 318 317 316 314 311 309 307 306 305 306 308 308 308 308 308 309 309 308 308 309 307 302 300
321 321 320 320 320 320 320 320 320 320 322 323 323 323 323 323 322 321 321 316 316 318 318 315 315 311 309 308 307 306 305 304 305 306 306 306 306 306 307 307 307 307 307 307
321 319 318 317 317 317 317 318 319 320 320 320 321 322 322 323 322 322 323 322 320 319 319 317 313 310 309 307 306 306 305 304 302 304 305 305 306 305 306 306 306 306 306 304
318 318 317 315 316 316 316 316 316 316 317 318 320 320 320 321 321 321 322 322 321 318 318 316 313 311 311 310 308 306 307 305 303 302 305 305 305 305 305 305 305 305 304 302
316 316 315 315 315 316 316 316 316 316 316 315 315 316 317 318 319 320 320 320 320 320 320 319 318 313 314 311 311 310 308 306 306 305 305 305 305 305 305 305 305 305 305 303
316 315 315 315 315 316 316 316 316 317 317 316 316 315 315 315 316 316 318 319 319 319 319 319 318 317 315 315 312 311 310 309 307 307 306 306 305 305 305 305 306 305 305 304
316 316 316 316 317 317 317 316 316 316 317 317 314 313 314 314 314 315 315 315 316 318 318 318 317 317 317 315 314 312 310 310 308 307 307 306 306 306 306 306 306 306 306 305
317 317 317 317 318 317 317 316 315 316 316 314 312 312 312 312 312 312 313 313 314 314 315 316 316 315 315 315 314 313 312 310 309 308 307 307 307 306 306 307 307 307 306 306
317 317 318 318 317 317 316 315 314 313 312 312 312 312 312 312 311 311 311 312 312 312 311 311 312 313 313 313 313 313 312 311 310 308 308 307 307 307 306 306 307 307 306 306
318 318 319 318 317 316 315 313 312 311 311 312 312 312 310 310 311 310 310 309 308 306 309 309 309 309 308 309 311 311 311 312 311 310 309 307 307 306 305 306 306 307 307 306
320 320 319 318 316 314 313 313 312 311 311 311 311 310 310 309 310 309 309 309 307 309 309 307 306 306 307 309 309 309 310 310 310 310 310 308 307 307 305 306 306 306 306 306
321 319 317 316 314 311 312 311 310 310 310 310 309 309 309 309 309 309 309 308 308 308 308 308 307 307 308 309 309 309 309 308 308 309 309 309 309 307 306 306 306 306 305 306
319 316 315 313 311 310 310 309 309 309 309 309 309 309 309 308 308 307 307 307 307 307 307 307 307 307 307 306 305 307 308 308 308 309 308 307 308 308 307 306 305 305 306 307

GFSNGP_850_thetae_108.txt.gz
Theta_e
329 330 330 331 331 331 329 330 330 332 334 347 347 347 347 351 352 354 353 351 350 349 349 346 347 343 350 350 354 351 352 352 350 349 350 348 348 348 347 349 350 345 349 348
330 329 329 329 329 331 330 328 330 331 332 342 347 350 350 354 356 355 352 351 352 352 351 350 348 349 348 344 349 350 348 343 341 341 343 344 348 348 347 347 347 348 345 348
328 328 327 329 329 330 331 330 330 330 338 335 344 349 345 351 353 354 354 353 352 353 353 352 351 350 347 348 347 347 345 343 343 343 343 343 346 345 345 345 345 345 349 350
330 329 332 330 331 332 330 330 335 339 339 341 347 338 331 347 349 350 351 351 352 351 352 351 349 349 350 351 350 348 346 343 343 343 344 344 343 343 343 343 341 342 346 341
328 327 329 331 331 331 331 335 337 337 335 333 339 340 344 344 347 345 347 346 347 350 350 350 350 350 349 350 348 346 346 344 343 340 341 342 342 341 340 342 339 337 334 337
332 328 332 333 330 328 327 332 334 336 338 333 338 343 343 342 340 342 342 343 343 343 346 349 349 349 349 348 349 347 346 345 344 343 342 341 340 341 340 341 340 338 340 338
328 330 334 330 328 326 329 335 333 335 337 339 342 337 334 336 332 334 337 339 340 341 342 342 343 343 343 346 347 346 345 345 343 342 341 340 341 339 340 339 339 338 338 337
330 332 334 326 331 331 332 330 331 334 334 336 338 334 332 330 331 331 332 331 333 336 337 338 340 341 342 342 340 342 343 342 342 340 339 340 340 340 339 338 338 339 339 340
329 330 328 329 330 329 328 329 332 333 334 334 330 325 325 325 326 326 326 326 327 329 329 328 328 331 334 331 331 334 334 334 333 333 336 336 336 336 336 336 337 337 336 335
330 326 325 327 328 329 329 331 332 332 330 331 327 323 322 321 320 321 321 320 321 322 321 317 314 317 320 323 324 326 328 328 328 329 331 328 329 332 332 332 332 332 331 328
326 327 326 325 327 328 330 330 330 330 327 325 325 322 321 319 319 317 316 315 314 313 311 311 312 314 315 313 314 314 315 318 317 322 324 327 328 328 330 330 330 329 328 328
328 325 327 326 325 326 330 330 329 328 326 325 323 322 322 320 317 316 315 314 313 312 311 311 310 308 308 310 312 312 316 316 316 318 317 316 320 323 323 324 326 326 325 325
326 325 325 324 323 323 324 330 328 328 326 324 322 321 321 320 319 319 318 318 316 315 315 314 312 309 308 306 309 311 314 315 317 317 317 316 315 312 309 311 312 319 319 318
325 324 324 322 322 322 322 323 328 326 324 323 322 321 320 319 318 317 318 317 317 317 317 315 314 312 310 307 307 306 306 309 310 312 314 313 314 313 312 310 307 306 306 305
322 322 322 322 323 322 322 322 323 326 325 324 323 322 321 322 321 320 319 318 318 317 316 316 313 312 312 311 310 306 307 308 309 309 309 310 310 311 311 310 311 310 308 301
322 322 321 322 321 321 321 321 321 324 325 325 324 324 324 323 322 322 321 321 316 314 315 314 314 313 311 310 309 308 307 306 306 308 308 307 308 308 308 308 309 309 308 309
322 321 320 319 319 320 319 319 320 320 321 323 324 323 324 324 324 323 322 322 321 318 314 315 315 314 311 309 309 308 308 308 306 305 305 305 305 307 307 307 308 308 308 307
322 321 320 318 317 317 317 317 318 318 320 320 321 321 321 321 321 322 322 322 322 321 321 321 319 316 312 311 310 309 308 307 305 304 303 304 304 307 306 307 307 307 307 306
319 318 318 316 317 317 317 317 317 317 318 317 317 317 317 319 319 319 320 321 320 321 321 320 319 318 315 312 311 310 310 309 308 308 302 305 305 306 306 306 306 306 306 305
317 317 316 316 316 316 317 317 317 318 317 317 316 316 316 315 316 317 317 318 319 319 318 319 319 319 318 316 314 312 313 311 309 308 308 307 307 307 306 306 306 306 306 305
317 317 316 316 317 317 317 317 317 317 317 318 317 316 315 316 316 316 316 315 315 317 318 319 318 319 318 318 316 316 313 312 312 311 309 308 307 307 307 306 306 306 307 306
318 318 317 317 318 318 318 318 317 317 317 318 316 314 313 313 313 313 313 314 315 314 314 316 317 316 316 315 315 316 316 314 313 312 311 310 309 308 307 307 307 307 307 306
320 319 318 318 318 319 318 318 317 316 317 316 314 314 313 313 314 313 315 314 313 313 312 312 312 312 312 313 314 315 314 313 313 313 311 310 309 308 308 308 307 307 308 307
320 319 319 318 319 319 318 318 315 315 314 313 313 313 313 312 312 311 311 309 305 307 309 308 305 305 307 308 309 311 312 313 312 312 311 311 310 308 308 308 307 307 307 307
321 320 320 319 319 318 318 317 314 314 313 313 313 313 311 311 312 311 312 310 308 309 311 309 307 307 309 310 309 309 309 309 310 311 311 311 310 310 309 308 307 306 306 307
322 322 321 321 320 318 316 314 314 313 312 312 312 311 311 310 310 308 310 310 309 308 308 309 309 308 308 308 307 307 310 310 309 309 309 309 308 308 309 308 308 307 306 306
324 322 321 320 318 315 312 313 313 312 311 312 311 311 310 310 310 309 308 309 308 308 308 308 308 308 307 307 308 307 305 306 307 307 307 305 305 308 308 308 308 308 307 307

GFSNGP_850_thetae_111.txt.gz
Theta_e
327 329 329 328 329 330 329 327 328 335 347 345 342 342 344 340 345 349 347 345 349 348 348 348 347 346 345 342 344 350 347 348 348 344 349 350 346 349 349 348 346 348 345 345
327 328 329 330 330 329 329 330 327 340 345 340 341 343 344 343 351 353 352 351 349 350 348 347 346 345 343 338 341 346 348 349 347 348 344 348 345 349 347 347 346 348 346 349
328 327 328 328 332 331 331 336 340 348 346 343 337 336 339 334 340 345 351 352 350 350 350 348 346 345 342 340 341 344 345 347 346 347 343 342 347 346 348 346 344 344 344 345
328 328 331 331 328 330 336 338 337 340 344 337 335 334 340 344 346 345 345 347 350 350 351 351 351 348 346 345 347 347 346 347 346 344 343 342 343 343 344 344 344 344 344 340
328 327 328 332 330 329 332 337 335 339 334 341 337 333 337 338 340 342 344 345 344 349 349 349 350 350 349 348 347 346 347 347 345 343 342 343 344 344 343 343 343 342 342 340
329 333 332 332 329 327 326 337 335 337 339 340 339 339 341 338 342 342 341 342 343 343 344 345 347 348 348 349 350 348 347 346 344 342 340 340 342 342 341 340 341 340 338 335
330 330 333 328 329 329 329 335 334 334 337 335 333 332 330 333 334 335 336 339 340 341 341 342 345 346 347 347 348 347 346 346 344 343 341 340 340 340 340 340 341 340 339 338
328 330 330 323 329 332 329 329 333 335 336 332 331 331 329 328 330 332 333 335 335 337 339 339 340 342 343 344 344 346 346 345 345 343 342 340 340 340 338 340 340 339 339 338
328 329 326 325 326 322 329 334 333 331 331 331 330 330 329 328 326 329 327 328 329 330 331 333 334 336 337 335 338 340 342 341 341 339 339 339 340 339 339 338 337 338 338 338
328 326 327 321 322 329 332 331 329 330 329 329 327 323 321 325 324 322 322 323 321 321 321 323 325 328 329 329 329 330 331 332 331 332 332 333 335 334 335 336 335 334 331 329
327 324 324 326 330 331 330 329 328 328 327 324 323 322 321 319 318 314 313 312 312 313 315 316 317 315 314 317 320 323 321 324 327 327 328 330 330 332 331 332 332 331 331 328
328 323 326 326 327 329 330 328 327 325 324 322 322 321 320 317 317 316 314 313 313 313 311 309 308 310 312 314 313 313 314 316 316 315 314 317 324 327 326 325 326 326 326 325
327 326 325 324 324 329 329 329 327 326 323 322 321 320 318 318 316 315 315 315 316 316 315 312 309 309 308 309 312 313 314 316 317 317 317 316 314 311 312 317 314 321 325 323
325 325 324 324 322 324 329 329 327 325 321 320 321 320 319 318 317 317 318 317 317 316 316 315 313 312 308 308 308 308 313 314 315 314 314 315 314 313 312 312 310 307 308 309
324 324 323 322 322 322 322 327 326 324 323 323 320 318 317 318 318 318 318 318 318 319 319 318 318 316 313 311 309 307 306 308 310 312 311 311 312 312 311 311 310 310 310 308
322 322 322 323 323 322 322 322 326 326 324 324 323 322 321 320 319 317 318 318 318 317 315 317 314 313 312 311 311 311 310 307 308 309 309 309 310 310 310 309 309 309 309 308
322 321 321 320 321 321 320 320 320 325 325 324 324 323 323 323 322 322 321 319 318 316 315 314 314 314 315 311 309 309 309 309 308 306 305 305 306 307 307 308 308 308 308 308
322 321 320 319 319 318 318 318 318 319 323 322 323 324 324 323 322 321 321 321 322 321 320 319 318 317 316 314 310 310 309 309 310 306 305 305 305 305 307 307 307 307 307 307
322 321 320 319 318 317 317 317 316 317 318 318 318 318 318 318 317 317 319 321 321 321 319 320 320 319 318 316 313 311 311 311 311 311 310 306 303 304 304 306 305 307 306 306
321 319 319 317 317 317 317 317 317 317 317 316 317 316 316 316 315 316 316 317 318 318 317 316 317 319 319 318 317 315 312 312 312 311 311 310 309 308 307 306 306 305 306 306
318 318 317 316 316 316 317 317 317 317 317 317 316 316 316 316 316 316 316 315 316 315 315 316 319 319 319 319 318 318 317 314 313 312 311 310 309 308 307 307 307 306 306 306
318 317 316 316 316 317 317 317 317 317 317 318 317 317 315 314 314 314 313 314 314 315 314 316 316 317 318 317 317 317 315 316 316 313 313 312 310 309 309 308 307 307 306 306
319 318 317 317 317 317 318 318 318 317 317 318 317 316 314 313 313 314 314 314 314 314 313 312 311 310 310 311 312 313 315 315 315 315 314 312 312 310 310 309 308 307 307 308
319 319 319 318 318 318 320 319 318 317 316 316 315 314 313 314 312 312 312 312 310 308 305 308 307 305 302 304 306 308 309 311 314 314 312 312 312 312 311 310 309 308 308 307
320 320 320 319 318 319 319 318 318 316 314 314 313 313 313 313 312 312 311 310 309 307 308 309 307 306 306 305 304 304 309 309 309 309 311 311 311 311 311 311 310 310 309 308
323 322 321 320 319 319 319 318 318 314 313 313 312 312 311 310 311 310 309 310 310 308 307 308 308 307 307 307 305 304 304 307 309 309 309 309 309 309 308 308 308 308 309 308
326 325 323 322 320 319 319 317 315 314 313 312 312 311 311 310 310 309 309 309 308 308 309 308 308 308 307 307 307 306 305 304 303 303 303 301 302 302 302 303 303 307 308 308

GFSNGP_850_thetae_117.txt.gz
Theta_e
325 324 324 327 336 337 334 334 327 338 345 343 343 338 340 338 341 344 344 342 342 343 345 345 345 345 345 346 347 346 347 347 346 344 342 344 344 342 342 343 345 344 346 344
323 325 327 337 337 337 339 342 342 343 343 335 340 341 340 339 336 333 338 344 342 341 342 344 346 346 346 346 347 347 347 346 346 345 343 347 345 345 347 346 343 347 347 347
323 322 327 329 334 338 338 340 339 337 336 335 338 335 333 336 337 335 340 343 345 345 346 344 345 346 347 348 348 348 348 347 347 344 344 342 344 345 345 345 343 344 344 343
322 322 329 329 329 336 338 337 337 334 335 336 334 331 331 333 335 336 336 337 340 339 343 345 345 345 346 346 347 347 348 347 347 345 343 344 344 345 344 346 345 343 344 343
323 323 327 331 328 329 330 338 334 337 333 335 335 335 330 333 335 338 339 340 339 340 344 344 342 345 345 345 346 345 343 343 342 342 342 344 345 344 345 345 343 343 345 344
322 327 328 328 327 325 327 337 332 335 335 336 335 335 331 331 332 334 335 338 341 341 343 344 343 342 343 340 344 344 343 341 341 345 345 345 345 345 344 343 342 343 343 344
324 325 326 327 325 326 330 327 333 333 331 331 330 330 329 330 331 332 333 335 337 337 340 341 344 346 343 337 336 338 336 341 339 344 344 344 344 343 341 343 343 343 343 343
322 325 325 324 325 328 326 330 335 333 330 328 328 328 328 327 327 330 331 332 333 336 338 341 341 344 341 339 338 341 344 343 336 338 344 342 340 340 341 341 341 341 341 340
320 321 321 323 324 327 328 332 334 332 330 330 328 326 323 324 324 327 328 331 332 335 335 336 338 340 341 340 342 344 342 333 342 338 338 339 338 340 340 340 340 340 340 339
321 322 323 324 322 328 331 331 330 330 330 328 326 325 324 325 324 324 325 327 328 330 332 332 333 334 335 336 338 339 339 340 341 341 341 340 340 340 339 339 339 339 338 337
319 322 323 323 325 330 330 327 328 328 327 323 322 321 323 324 323 321 319 317 318 321 323 324 326 329 329 329 331 333 334 334 335 336 336 336 336 336 336 337 337 336 336 334
321 323 323 324 329 329 326 325 326 321 322 323 323 323 320 317 314 313 313 313 314 315 316 316 316 317 318 321 323 325 326 324 326 325 328 329 329 330 331 331 330 331 330 328
323 323 323 327 327 327 325 323 321 321 320 321 322 320 317 315 314 313 312 311 310 309 309 309 311 313 314 315 316 316 316 317 317 316 315 314 314 314 314 320 322 323 325 326
323 323 325 326 328 326 324 321 320 320 319 319 320 319 317 316 313 313 314 315 315 315 315 314 310 309 309 310 312 313 315 315 314 316 317 315 313 312 312 311 309 308 310 310
324 323 325 326 327 326 324 321 320 319 317 317 317 317 317 317 316 316 316 316 316 318 318 318 317 315 312 310 308 307 307 312 312 313 312 312 312 312 311 311 311 310 310 310
324 324 323 325 324 326 323 322 322 321 319 317 318 317 317 317 317 317 318 317 317 316 315 315 315 313 312 311 311 310 309 308 309 309 309 309 309 309 309 309 309 310 310 309
325 324 323 325 326 324 322 320 320 321 321 321 320 318 317 317 317 317 316 316 316 316 315 314 314 313 313 313 311 310 310 310 309 309 308 307 306 306 305 306 307 307 308 308
325 324 323 322 323 323 322 321 321 322 323 323 322 322 321 321 319 319 319 319 319 319 319 319 319 319 317 316 315 314 311 310 310 311 311 310 309 307 307 306 305 305 306 306
323 322 321 322 322 322 321 321 320 319 320 322 323 323 323 323 322 321 321 322 321 320 319 318 318 318 316 318 319 319 317 313 311 310 311 311 311 310 310 310 309 307 305 305
321 321 321 321 320 320 320 318 318 317 318 320 324 324 323 323 323 321 317 317 318 320 320 321 318 316 315 315 317 319 318 317 315 313 311 311 312 312 310 309 309 309 308 306
321 321 321 320 319 318 318 317 317 316 316 318 321 317 318 323 318 315 315 314 314 315 315 315 314 314 316 316 317 317 317 318 318 317 317 314 312 312 312 311 309 309 309 308
321 321 321 320 320 318 317 317 317 316 316 316 317 316 316 315 315 315 315 315 315 315 315 314 314 315 314 313 313 313 313 315 316 316 316 316 316 316 314 312 312 310 308 309
321 321 320 319 319 317 316 316 317 316 317 317 317 316 316 316 316 315 315 314 313 313 313 313 313 312 310 309 306 306 307 310 312 314 314 314 314 314 314 313 313 312 309 309
320 321 319 318 317 317 316 315 316 316 316 317 317 317 317 316 316 315 315 312 313 313 313 308 305 304 303 302 302 302 302 303 305 307 310 310 310 312 312 312 312 311 311 311
319 319 319 318 317 317 317 317 316 316 316 316 317 317 317 316 315 311 310 312 312 307 306 306 306 306 305 304 303 303 302 304 307 309 309 309 308 308 308 309 308 308 308 307
318 319 319 318 318 318 318 317 316 316 316 317 317 317 317 315 313 311 311 311 309 307 306 307 307 307 307 307 306 306 304 303 302 302 302 303 304 304 302 301 301 302 304 305
321 321 320 320 319 319 319 318 317 317 316 317 317 316 314 313 312 309 311 310 308 308 307 308 308 308 307 307 307 307 306 304 304 304 304 304 304 304 304 302 300 301 303 304

GFSNGP_850_thetae_120.txt.gz
Theta_e
324 325 323 326 334 337 338 335 326 336 344 341 340 340 339 336 342 343 342 341 340 341 342 343 345 345 345 345 345 345 345 345 345 345 346 344 342 343 342 342 341 343 345 345
322 324 331 337 335 335 340 341 340 340 340 336 338 337 336 338 335 340 343 343 342 341 341 344 344 345 346 346 346 346 346 345 345 346 347 346 342 343 344 341 343 344 346 346
320 321 328 329 332 337 337 337 336 337 337 338 336 334 332 332 331 334 336 340 345 343 342 342 344 345 346 346 345 346 346 347 347 347 347 346 343 344 345 344 345 344 343 343
322 321 329 327 328 334 336 336 333 335 336 336 332 330 330 331 330 331 333 337 340 342 345 343 344 343 343 344 345 346 346 346 347 348 347 346 344 342 344 342 344 344 344 344
321 321 324 329 329 331 333 337 333 334 334 333 332 332 330 332 331 331 333 335 337 341 343 343 344 342 343 345 345 345 345 345 345 346 347 346 345 343 343 343 343 344 345 344
321 324 330 326 326 326 328 335 333 335 333 333 334 332 330 330 331 331 332 334 336 338 340 341 344 340 340 345 344 342 336 340 342 344 341 343 343 343 344 341 343 341 342 341
321 323 323 323 325 326 333 329 332 330 330 330 329 328 329 329 329 330 330 332 335 336 338 340 343 344 344 342 337 337 337 334 336 340 341 343 343 343 344 342 342 341 340 342
319 324 324 323 325 327 323 328 332 331 328 326 326 328 328 329 328 329 329 332 334 336 337 339 341 341 344 343 336 336 335 336 342 337 339 343 343 342 341 342 340 339 339 340
317 319 318 322 323 325 327 330 333 330 328 326 325 325 326 326 325 326 329 331 331 333 335 337 337 338 339 340 341 342 341 342 341 336 338 338 339 336 334 337 338 339 339 339
321 318 322 323 324 326 330 332 332 329 329 328 325 324 322 323 323 325 327 329 329 329 330 330 332 333 333 334 337 339 339 334 338 341 338 337 338 334 338 338 338 339 338 337
318 319 322 323 323 329 329 328 327 329 327 322 321 322 322 322 323 322 322 323 323 324 325 325 326 327 329 330 332 335 335 334 335 335 336 336 336 337 337 337 336 337 336 334
319 320 321 322 324 328 326 324 326 324 321 322 323 323 323 322 321 319 319 317 317 317 317 318 318 317 320 322 325 327 329 330 330 329 328 329 330 330 330 330 329 330 330 327
321 322 322 323 328 327 322 322 321 320 320 322 323 321 316 312 311 310 310 310 310 309 309 310 312 314 316 316 316 316 317 317 317 315 314 314 313 314 313 317 319 320 323 325
323 323 324 327 327 325 319 320 320 320 320 321 321 319 316 315 313 312 312 313 313 314 313 310 310 310 310 312 313 314 314 313 316 316 315 313 312 312 311 311 309 309 309 309
320 322 323 326 327 325 320 319 319 318 317 319 319 317 316 313 313 314 315 315 317 317 317 317 316 313 312 310 309 307 309 311 312 312 312 312 311 311 311 311 310 310 310 309
320 322 324 326 326 325 322 320 319 317 317 317 317 317 316 316 316 316 317 317 317 316 314 314 314 312 311 310 310 310 309 308 308 308 308 308 308 308 308 308 308 309 309 309
323 322 325 327 326 325 323 319 321 321 319 318 317 317 316 317 316 317 317 317 317 316 315 314 314 314 313 314 313 310 310 310 309 309 308 308 307 306 306 306 305 306 307 307
324 323 324 323 324 324 324 321 321 321 321 321 319 318 318 318 318 318 317 317 318 318 319 319 319 319 319 318 317 316 314 311 310 310 311 309 309 309 310 310 309 307 305 305
323 324 324 323 323 322 322 321 321 320 321 322 321 321 321 320 318 318 320 320 320 319 317 319 319 318 317 317 317 319 319 317 313 310 310 311 311 310 310 310 309 308 308 307
322 323 324 321 321 322 323 321 322 321 320 321 322 322 322 323 323 322 322 320 317 317 318 319 319 318 317 315 315 315 318 319 317 316 312 311 310 311 311 310 309 309 309 308
322 322 321 321 320 320 321 321 320 318 317 318 317 321 324 321 322 323 323 316 314 314 314 314 315 315 314 316 317 316 316 317 318 318 318 317 316 312 312 312 312 312 309 309
322 321 321 321 321 320 319 318 317 317 316 316 315 318 316 315 316 319 317 315 315 315 315 315 314 314 315 316 315 314 314 314 315 316 317 317 317 316 316 315 315 313 311 311
321 321 320 320 320 320 319 319 317 316 316 316 316 316 316 316 316 316 316 316 315 314 313 312 313 313 312 310 309 308 307 306 307 310 312 314 314 314 313 312 312 313 313 313
319 320 320 320 320 320 319 318 317 316 316 316 316 316 317 316 316 316 315 315 314 313 313 313 309 304 303 303 302 302 302 302 302 304 305 306 309 309 309 310 310 311 310 309
317 319 320 321 320 319 318 317 316 316 316 316 316 316 317 316 316 316 315 314 312 313 313 306 304 304 303 304 304 301 301 304 306 308 308 308 308 308 308 307 307 305 301 302
318 318 318 318 318 318 318 317 317 316 316 316 316 316 316 317 316 315 312 311 311 310 306 305 306 306 306 306 305 304 303 302 302 302 302 302 303 303 303 301 300 300 300 301
318 318 318 319 319 318 318 318 317 317 317 316 316 316 316 316 315 313 311 312 310 309 306 306 307 307 307 307 307 306 306 304 304 304 304 305 305 305 304 304 304 303 301 300

GFSNGP_850_thetae_123.txt.gz
Theta_e
326 327 326 336 339 341 338 339 330 332 343 345 342 341 339 339 342 343 345 345 345 344 344 343 342 342 342 342 342 344 344 343 343 343 342 342 343 340 340 341 344 344 345 343
325 326 328 335 334 335 342 341 341 342 343 339 339 339 338 335 334 336 340 342 343 343 344 343 344 344 344 344 344 344 344 345 345 344 344 344 344 345 343 342 343 343 343 342
326 325 329 332 332 332 338 340 341 344 342 340 338 335 332 333 332 333 335 338 343 342 342 342 342 342 343 343 344 345 345 345 345 346 346 346 345 346 345 343 343 342 342 344
325 327 329 330 331 335 336 338 336 337 340 337 334 330 330 331 332 334 336 338 339 342 342 343 344 345 342 345 346 346 345 346 346 345 345 346 347 346 347 344 343 343 344 346
326 326 326 330 333 337 336 338 337 337 335 334 333 333 331 330 331 332 334 336 337 340 343 343 343 344 344 344 343 343 345 342 343 344 343 344 344 343 346 344 343 343 341 343
329 330 326 329 328 329 331 337 336 336 336 334 334 340 334 328 328 329 331 334 337 339 340 341 342 342 340 344 344 344 343 343 340 337 339 343 344 343 344 343 344 343 343 342
328 329 328 325 327 328 335 332 335 336 335 336 336 334 328 327 327 327 328 331 335 334 338 340 343 343 343 344 344 340 339 340 336 337 339 341 343 343 344 344 344 343 342 342
328 330 327 326 327 332 330 329 333 332 331 330 328 327 326 326 327 327 329 331 332 334 336 338 340 341 343 342 338 336 335 335 338 339 337 340 342 343 342 342 342 342 339 336
326 326 324 325 326 326 325 331 333 330 328 326 326 325 325 324 325 326 328 330 332 333 334 334 335 337 339 340 340 340 339 341 342 340 341 339 341 338 338 336 337 334 337 337
326 325 322 325 324 326 329 332 331 328 327 326 325 323 323 322 323 325 327 327 327 329 331 331 332 333 334 336 338 339 340 340 336 337 339 337 339 336 334 338 337 335 336 337
327 324 323 325 325 328 330 330 329 327 326 323 323 323 322 322 323 324 323 321 322 324 325 326 327 330 331 331 333 334 334 335 335 336 336 336 336 335 336 334 335 336 336 334
324 325 326 325 325 327 328 326 327 326 321 321 322 322 322 322 320 319 318 318 318 318 318 318 317 320 320 320 323 326 328 329 328 329 329 331 331 331 330 330 330 329 329 328
325 323 322 323 323 327 326 325 326 320 320 323 324 323 322 318 315 311 311 310 310 310 311 312 314 315 315 316 316 316 316 315 313 312 313 313 313 312 314 318 320 321 324 324
321 322 326 327 330 324 320 322 320 320 321 323 321 316 313 312 311 310 311 311 313 312 310 310 310 309 309 310 312 313 314 316 316 314 313 312 311 311 310 309 309 309 309 308
322 323 323 328 328 322 319 320 320 318 320 321 318 317 315 313 312 314 314 317 317 316 316 316 314 313 312 311 310 308 310 312 312 312 312 311 310 310 310 310 310 310 310 309
322 320 322 327 327 321 319 319 317 317 317 318 317 316 315 314 315 316 316 316 316 314 314 313 312 312 311 311 310 310 310 309 309 308 308 308 308 308 307 307 308 309 309 309
321 323 326 329 327 323 319 318 318 318 317 316 316 316 316 316 317 317 317 316 316 315 315 314 313 313 313 313 313 311 311 310 310 310 310 309 308 307 308 308 306 306 306 306
319 322 323 325 326 324 322 319 319 319 319 318 317 316 316 316 315 316 316 316 316 317 317 318 318 318 318 318 317 316 314 312 311 311 311 311 311 311 310 310 310 309 308 307
321 323 323 325 324 322 322 320 319 320 320 320 318 318 318 317 317 317 317 318 318 318 319 319 318 318 317 317 316 316 318 319 317 313 310 311 311 311 311 310 310 310 309 307
321 323 323 323 323 323 322 322 320 320 320 321 321 319 319 319 319 319 319 320 321 319 316 317 320 319 318 318 316 314 314 315 318 319 316 312 310 310 311 311 310 309 309 309
321 322 324 324 321 322 322 323 322 321 321 322 322 322 322 321 321 321 322 322 321 314 314 314 313 317 319 319 318 317 316 316 316 317 318 317 316 316 312 311 312 312 312 311
321 322 322 322 321 320 320 320 322 323 322 320 318 317 318 322 322 321 322 323 317 315 315 315 314 314 314 314 315 317 317 317 316 316 316 317 317 317 316 316 315 314 314 313
320 321 322 321 320 320 321 321 321 318 317 316 316 315 318 316 316 316 316 316 315 315 315 314 313 312 312 312 311 310 310 309 309 310 312 314 315 315 314 313 312 311 311 311
319 321 321 320 320 320 320 319 318 318 317 316 316 315 316 316 316 316 316 316 315 315 314 312 313 311 305 303 302 302 302 302 302 302 304 305 308 311 310 309 309 309 307 306
317 317 320 319 319 320 320 319 319 318 317 316 316 316 316 316 316 316 316 316 315 314 312 312 311 305 303 303 302 301 301 304 306 307 308 308 309 308 307 305 303 302 301 301
317 317 318 318 318 320 320 320 319 318 317 316 316 316 316 316 316 316 316 316 315 312 312 312 306 304 304 304 304 302 302 302 302 302 303 303 303 303 302 302 303 304 303 301
318 318 318 318 319 319 319 318 318 318 317 317 317 317 316 316 316 316 316 315 314 312 311 307 306 306 306 306 306 305 304 303 304 304 304 305 305 305 304 305 305 305 305 301